GFSWCAN_con_lsi_000.txt.gz
Lid_Strength_Index
4 4 4 4 4 4 4 4 4 3 3 3 3 4 4 4 3 1 0 -1 2 5 4 3 3 5 5 5 8 6 7 7 9 13 13 12 14 12 12 10 12 13 14 15 15 16 18 6 7 13 9 7 6 6
4 4 4 5 5 4 4 4 4 4 4 3 4 4 4 3 3 3 2 -2 -1 3 4 1 1 1 2 2 5 5 7 6 7 10 11 11 13 13 13 15 8 13 11 12 11 12 7 6 6 5 5 6 6 6
5 5 5 5 5 5 5 5 5 4 4 4 4 4 4 4 4 2 1 -0 1 9 5 4 4 1 0 1 0 6 5 4 5 4 7 12 13 10 14 13 12 9 7 10 11 8 7 6 5 5 5 5 5 4
5 5 4 5 5 5 5 5 5 5 5 5 4 4 5 4 4 3 2 -1 1 8 14 8 2 3 0 0 1 1 3 3 3 4 9 12 13 8 12 10 11 9 8 10 10 8 7 6 5 5 5 4 4 4
5 5 5 5 5 5 5 5 5 5 5 5 5 5 4 4 4 3 2 0 0 4 11 10 6 3 1 1 2 2 3 4 5 9 11 12 8 9 8 10 11 7 9 11 12 7 7 7 5 4 5 5 4 5
5 5 5 5 5 5 5 6 6 5 5 5 5 4 4 4 4 4 7 3 2 2 9 13 7 6 3 2 3 3 3 4 5 7 10 7 6 9 12 12 7 6 5 5 7 5 5 4 4 4 5 4 5 6
5 5 5 5 5 5 6 5 5 5 5 5 5 4 4 4 3 6 8 5 3 2 12 12 9 7 5 4 3 4 3 5 5 7 9 9 9 7 12 12 7 6 5 4 4 4 6 5 6 4 4 5 5 5
4 4 5 5 5 5 6 6 6 5 5 5 4 4 4 4 4 7 5 4 3 6 9 12 13 11 6 7 8 6 7 8 8 8 9 10 8 10 12 8 6 5 5 4 5 4 4 5 5 5 5 5 6 6
4 4 4 5 5 5 5 5 5 5 5 4 4 4 3 6 8 7 4 4 4 7 11 12 12 12 6 8 9 9 9 12 8 11 9 8 9 12 8 7 6 5 5 5 5 5 5 6 6 5 5 5 6 6
3 3 3 4 4 5 5 5 5 4 4 4 3 6 10 7 3 4 5 9 9 10 10 12 9 10 6 9 11 10 10 12 12 9 7 10 10 6 5 5 4 4 5 5 6 7 7 6 6 6 6 5 5 6
3 3 3 3 3 4 4 4 4 4 4 4 6 8 4 3 4 6 10 11 11 12 11 10 9 8 6 11 11 10 11 11 13 10 10 11 11 7 5 4 4 4 5 5 5 5 5 5 5 6 6 5 6 6
2 2 3 3 3 3 3 3 3 4 4 4 4 3 3 5 7 10 10 9 11 11 9 10 9 8 8 6 9 9 11 9 13 7 11 12 8 6 5 5 5 5 5 5 4 5 5 5 4 5 5 5 6 6
2 2 3 3 3 3 3 4 3 3 3 2 4 8 7 8 11 12 13 11 11 8 9 8 9 7 7 7 9 9 11 12 8 11 12 9 6 5 4 5 5 4 5 6 5 5 4 4 4 6 7 6 7 7
2 2 2 2 2 3 3 3 3 3 3 6 9 12 10 12 11 10 9 9 9 8 8 7 8 8 8 10 9 12 9 9 13 13 12 8 6 5 4 4 5 5 7 6 5 4 5 5 6 6 6 7 7 8
1 2 1 2 2 2 2 3 3 2 3 8 8 12 11 8 8 8 7 7 7 6 6 7 7 8 9 10 9 9 12 13 11 11 8 6 5 5 5 4 4 6 7 6 4 5 6 6 6 6 6 7 7 7
1 1 2 1 1 1 2 2 2 2 5 7 9 10 8 8 9 8 8 8 5 5 5 6 8 10 11 9 11 12 12 12 9 8 6 5 5 4 4 4 4 4 4 4 4 4 4 5 6 5 5 7 7 7
1 3 1 1 1 1 1 2 2 6 7 9 8 6 7 7 8 7 7 6 3 6 8 7 11 11 7 10 11 9 10 8 7 6 4 4 5 4 4 4 5 4 4 4 3 4 4 4 5 6 7 7 7 7
2 1 1 1 1 2 2 2 5 7 9 7 8 6 7 6 6 6 6 4 5 6 7 9 7 10 11 12 11 7 6 5 5 5 4 4 3 3 3 4 3 3 3 3 5 4 5 5 6 6 7 7 7 7
1 1 1 1 1 2 5 5 4 9 8 6 6 6 5 5 4 5 5 5 3 4 5 7 10 11 10 8 7 6 6 5 5 5 4 3 3 4 4 4 4 3 3 3 3 4 5 5 5 5 6 6 6 6
1 1 1 1 1 4 7 6 4 7 9 7 6 6 6 6 4 6 5 5 5 6 8 10 9 8 7 5 4 4 4 4 4 5 5 4 3 3 3 3 3 3 3 3 4 5 5 6 5 5 5 5 5 6
1 1 1 1 2 3 5 6 7 7 6 7 6 6 7 4 5 6 6 4 7 8 9 7 6 5 4 4 3 3 3 3 4 4 5 5 3 3 3 3 3 3 3 4 5 5 5 6 5 5 6 6 6 6
1 1 3 3 5 5 6 4 6 5 6 6 6 6 7 7 7 6 4 7 7 6 5 5 5 4 4 4 3 3 3 3 3 3 4 3 4 4 4 3 3 4 4 4 4 5 5 5 5 5 6 6 6 6
2 2 4 5 7 7 7 3 7 6 9 8 7 8 7 7 5 4 7 6 5 4 3 3 3 3 3 3 3 3 3 3 3 3 3 3 3 3 3 3 3 4 5 4 4 4 5 5 6 6 6 6 6 7
2 5 6 7 7 8 6 7 6 7 6 8 8 9 8 6 5 7 9 7 5 3 4 3 3 4 3 3 4 3 3 2 3 3 3 3 4 4 3 4 3 4 4 4 4 4 5 6 6 6 6 6 6 7
7 7 6 8 6 8 9 9 8 8 9 8 9 9 8 5 9 9 10 7 5 5 4 3 3 4 4 4 4 3 3 2 3 4 3 4 5 5 5 4 4 4 4 5 5 5 6 6 6 6 6 6 7 7
9 7 8 8 7 8 8 10 9 9 8 9 9 7 6 8 10 11 8 5 5 4 5 5 5 4 4 3 4 4 3 2 3 5 5 4 5 5 5 5 5 4 3 4 5 5 5 5 6 6 6 6 7 7
9 8 6 4 5 6 7 6 6 7 9 10 8 8 8 11 11 8 4 3 4 3 2 2 3 3 4 3 2 2 1 2 4 4 4 4 4 4 3 5 5 3 3 4 5 5 5 5 6 6 6 5 6 6
7 6 8 7 6 6 8 8 8 9 8 6 6 9 10 9 9 5 3 2 2 2 2 2 2 2 2 2 2 3 4 4 4 4 4 4 4 4 3 4 4 6 4 4 4 5 4 5 5 5 6 6 5 5
7 5 5 8 7 7 7 8 8 6 5 6 8 8 7 5 4 4 3 2 2 2 3 3 3 4 3 3 3 4 4 4 6 7 7 7 6 4 4 4 4 5 4 5 5 4 4 4 5 5 5 5 5 6
7 5 7 7 9 9 6 5 6 4 4 4 4 5 5 4 3 2 2 3 4 4 4 4 5 5 6 6 5 5 4 4 5 6 7 7 6 5 5 4 5 5 4 5 5 6 6 5 6 6 6 7 7 7
4 5 7 7 8 6 5 4 5 4 4 5 4 6 6 5 3 2 3 3 4 5 6 6 6 5 6 6 6 7 6 5 5 6 6 6 5 5 5 5 5 5 5 5 6 6 6 6 6 7 8 8 8 8
6 7 8 9 8 5 5 6 6 6 6 6 6 5 5 6 7 6 8 8 7 7 7 7 8 7 6 6 5 5 6 7 8 8 8 7 5 5 5 5 5 5 5 5 6 6 6 7 7 7 7 8 8 9
7 6 7 8 8 8 6 7 7 8 7 7 7 6 6 6 8 9 8 8 9 10 10 9 9 8 7 7 7 6 7 8 9 10 10 10 10 9 7 6 5 5 6 6 6 6 7 7 7 7 8 8 9 9

GFSWCAN_con_lsi_003.txt.gz
Lid_Strength_Index
4 4 4 4 3 3 3 3 4 4 3 3 3 3 3 4 3 2 2 1 3 8 6 5 4 7 7 8 12 9 9 11 13 14 14 15 14 15 16 13 15 16 17 16 16 16 18 7 8 12 9 8 7 7
4 4 5 5 4 4 3 3 3 4 4 4 4 4 4 4 4 3 3 1 1 5 5 2 2 3 3 4 6 7 9 8 10 14 14 14 14 14 14 15 10 14 12 15 13 14 9 7 7 6 5 6 7 7
5 4 4 4 5 5 5 4 4 4 4 4 4 4 4 4 4 3 3 2 4 10 6 6 5 2 1 2 1 9 9 5 7 6 10 13 13 12 14 14 13 10 8 12 12 9 8 7 6 5 5 6 5 5
5 5 5 5 5 5 5 5 5 5 5 4 4 4 4 4 4 3 3 1 3 8 13 9 3 4 1 1 2 3 4 3 4 6 12 13 13 9 13 11 11 10 10 11 11 8 8 7 6 6 5 5 5 5
5 5 5 5 5 5 5 5 5 5 5 5 5 4 4 4 4 4 3 2 2 4 12 11 6 4 2 2 2 2 3 5 8 10 13 12 11 11 11 12 12 8 9 11 12 7 8 7 6 5 5 5 5 5
5 5 5 5 5 5 5 5 5 5 5 5 5 4 4 4 4 4 7 4 2 2 9 13 7 7 5 4 4 4 4 5 5 8 12 9 6 9 13 12 9 7 6 5 8 5 5 5 5 5 5 5 6 6
5 5 5 5 6 5 5 5 5 5 5 5 5 5 5 4 3 6 8 6 3 2 11 12 12 9 7 6 5 5 4 5 6 8 10 10 9 8 12 12 8 6 6 5 5 5 6 5 7 6 6 5 5 5
4 4 5 5 5 6 5 5 5 5 5 5 5 5 4 4 5 7 6 5 3 6 10 12 13 12 8 11 12 9 10 9 8 8 10 11 9 10 12 8 7 6 5 5 5 4 5 6 6 6 5 5 6 6
3 4 5 5 5 6 5 5 5 5 5 5 5 5 6 7 9 8 5 5 6 7 11 13 14 14 8 10 11 11 9 12 9 11 10 9 11 12 9 8 7 6 6 6 6 6 6 7 6 6 6 6 6 6
3 3 4 4 5 5 5 5 5 5 5 5 6 9 12 10 5 5 7 10 11 12 12 13 11 12 8 11 12 11 11 12 12 11 9 11 11 7 6 6 5 6 6 5 8 9 8 8 7 7 7 6 6 6
3 3 3 4 4 4 5 5 5 5 5 6 10 11 8 5 6 9 12 13 12 13 13 12 11 11 8 11 11 11 12 12 14 15 14 16 14 9 6 6 5 5 5 5 6 6 6 6 7 7 8 8 9 9
3 3 3 3 3 3 4 4 4 5 5 6 6 5 6 8 10 11 12 12 13 14 11 11 10 8 9 6 10 10 13 12 16 12 14 15 12 7 6 6 6 6 6 6 6 7 6 6 6 7 8 8 9 8
1 2 2 3 3 3 3 4 4 4 4 4 8 10 9 11 13 15 17 13 14 10 9 10 10 10 9 9 10 11 13 13 13 13 15 13 8 6 7 7 6 6 8 8 7 6 6 6 6 8 8 10 6 7
1 1 2 2 3 3 4 4 3 4 6 10 11 16 14 14 15 12 12 10 10 10 10 10 10 11 11 11 11 14 14 13 17 19 17 12 8 6 6 6 6 6 9 9 8 7 8 9 8 9 11 7 7 9
1 2 2 2 2 3 3 3 3 4 7 12 13 17 17 13 11 11 10 9 9 9 9 9 10 10 14 15 15 16 18 15 16 16 14 10 8 7 6 5 6 9 10 10 7 8 8 9 6 5 5 6 7 7
1 2 2 2 2 2 2 3 3 4 9 11 12 15 13 13 10 10 9 9 8 8 9 10 13 16 17 15 18 17 18 17 15 13 11 9 7 7 7 7 7 7 7 6 6 6 7 9 6 5 5 6 6 7
1 4 1 1 1 2 2 4 7 9 11 13 14 11 9 10 9 9 9 9 6 11 14 14 17 15 13 17 17 12 15 14 13 11 10 8 8 7 7 7 8 7 6 6 6 7 7 8 8 6 6 6 7 8
3 1 1 1 1 2 3 4 9 11 14 12 14 13 12 11 8 8 8 8 7 10 12 13 11 16 18 19 18 14 13 12 11 11 10 7 7 6 5 6 5 6 6 6 6 6 7 10 8 7 6 6 8 8
2 2 1 1 1 5 9 9 7 12 12 11 11 11 11 11 10 10 9 9 9 9 11 13 17 17 15 14 15 13 12 12 10 8 8 7 7 6 6 6 6 6 6 6 6 5 6 6 5 4 5 7 7 8
1 1 1 1 1 7 9 9 6 9 11 10 11 12 11 12 11 8 8 7 10 12 14 14 15 12 13 11 10 11 10 9 8 8 7 6 6 6 6 5 5 5 5 5 6 8 7 5 5 5 5 6 6 7
2 2 1 2 4 4 8 10 11 9 10 11 10 10 12 11 12 9 8 9 9 10 13 11 9 8 8 8 8 7 6 6 6 7 6 7 5 5 5 5 5 6 8 7 5 5 5 5 4 5 5 6 6 6
3 1 4 4 6 7 9 8 10 9 11 12 12 11 14 15 14 12 10 11 12 11 9 8 8 8 7 7 6 6 6 6 6 7 8 7 6 5 5 5 6 6 6 5 4 4 4 4 4 5 5 6 7 7
2 3 5 6 8 9 12 8 12 10 14 14 12 14 15 14 11 8 14 10 9 7 6 6 6 6 6 5 6 5 5 5 6 7 7 7 6 7 5 5 6 5 5 4 4 4 4 4 4 5 6 6 8 7
2 5 8 9 11 15 10 9 8 11 13 14 14 16 13 12 11 13 14 13 8 8 7 6 7 6 7 6 7 6 6 6 7 7 7 7 6 6 5 5 5 4 4 4 4 4 5 5 6 6 6 7 7 7
8 8 8 11 10 11 12 13 10 14 16 14 15 16 14 12 15 17 15 12 11 8 7 7 7 6 7 9 9 7 6 6 8 8 7 8 6 5 5 4 4 4 4 5 5 5 5 5 7 8 8 7 7 7
10 9 10 12 11 12 13 17 15 14 15 16 14 12 13 15 17 17 12 12 11 10 9 8 8 10 8 6 7 8 7 8 8 9 8 6 5 5 6 6 6 5 4 5 5 5 5 8 9 8 8 6 7 7
10 13 10 7 9 10 13 12 11 13 16 16 15 15 14 15 17 13 9 9 8 8 7 7 6 6 6 6 7 7 8 9 8 6 5 5 5 5 5 6 6 6 4 4 5 5 5 6 6 6 6 6 6 7
11 11 12 11 11 10 14 14 15 15 14 11 12 15 15 15 14 9 7 7 7 6 6 5 5 5 5 6 8 9 7 6 5 5 5 5 4 5 5 4 4 5 5 4 5 4 5 5 5 5 6 6 7 6
11 9 9 13 13 12 12 13 12 10 8 9 11 12 12 9 9 9 8 6 5 6 8 8 6 5 5 5 9 6 5 5 6 7 8 7 8 8 8 5 5 5 5 5 5 5 5 5 5 5 6 8 8 6
12 8 12 14 14 14 11 9 10 9 7 6 5 7 7 6 4 5 5 4 5 4 5 6 7 5 6 7 10 7 5 5 5 6 7 12 11 8 6 6 5 5 4 5 5 8 6 5 5 6 7 8 8 9
9 9 12 11 11 8 7 6 6 9 10 8 6 7 7 6 5 8 10 7 7 5 5 6 6 6 6 7 7 8 8 6 9 8 8 7 7 6 6 6 6 6 6 8 8 8 7 7 7 7 8 8 8 9
10 10 10 11 10 8 7 9 10 9 9 9 7 6 6 6 8 9 11 10 9 8 8 8 8 9 8 9 7 7 9 12 12 11 13 14 12 10 8 6 6 7 8 8 8 8 8 8 7 8 8 9 10 10
12 10 9 9 11 14 12 11 12 12 10 9 9 8 8 8 9 12 12 10 11 12 12 11 11 11 9 10 10 9 11 11 12 11 11 12 13 13 13 13 11 9 7 8 8 8 9 9 10 10 10 10 12 14

GFSWCAN_con_lsi_006.txt.gz
Lid_Strength_Index
4 4 4 3 3 3 3 3 3 3 3 3 3 3 3 3 3 2 3 2 4 8 6 5 5 7 7 9 12 9 9 11 12 14 15 16 15 16 16 14 15 16 18 16 17 17 18 9 8 12 10 9 7 7
3 4 4 4 4 3 3 3 3 3 3 3 3 3 3 3 3 3 4 2 2 6 6 3 3 3 4 5 7 8 9 10 11 13 14 17 15 14 17 15 11 14 13 15 14 15 10 8 8 7 6 7 7 6
4 4 5 5 5 4 4 4 3 3 3 3 3 4 4 3 3 3 4 3 5 10 7 6 5 3 2 3 3 9 11 6 8 8 12 13 14 13 14 14 13 11 9 13 12 10 9 8 6 6 6 7 5 5
5 5 4 5 5 5 5 4 4 3 4 4 4 4 4 4 3 3 4 3 5 9 13 9 5 5 2 2 3 4 4 4 5 7 12 13 13 9 13 11 12 10 9 10 10 8 8 7 7 6 5 4 5 5
5 5 5 5 5 5 5 5 5 5 4 4 4 3 3 3 4 3 3 3 2 5 12 11 7 5 3 3 3 3 4 5 10 11 13 12 11 11 12 13 12 9 9 11 12 7 8 7 5 5 5 6 7 7
5 5 5 6 6 5 5 5 5 5 5 5 5 4 4 4 4 4 7 5 3 2 10 13 7 8 6 5 5 5 5 5 6 9 12 10 7 9 13 13 9 7 6 5 8 5 6 5 5 5 6 6 6 6
5 5 5 6 6 6 6 5 5 5 5 5 5 5 4 5 4 6 8 6 3 3 12 12 12 10 9 7 7 7 6 6 6 8 11 10 10 7 13 12 8 6 6 5 5 5 7 6 7 5 6 6 6 6
4 5 5 6 6 6 6 6 5 5 5 5 5 4 4 4 5 7 6 5 3 6 10 13 13 12 8 12 12 10 11 10 9 9 11 11 10 11 12 8 7 6 5 5 5 5 6 6 6 6 6 6 6 7
4 4 5 5 5 5 5 5 5 5 5 5 5 5 5 7 9 8 5 5 6 7 11 13 13 13 8 11 12 12 11 13 11 13 11 10 12 12 9 8 7 6 7 7 6 6 6 7 7 6 6 7 7 7
3 4 4 5 5 5 5 5 5 5 5 5 6 8 12 10 5 5 8 11 11 12 12 13 12 13 9 13 13 13 13 13 14 12 9 12 11 7 6 5 5 6 6 6 8 9 8 8 8 8 7 7 8 8
3 3 3 4 5 5 5 5 5 5 5 7 11 12 8 5 7 10 13 13 13 14 13 13 12 12 10 12 12 12 13 13 15 16 12 16 14 10 8 7 7 6 6 6 6 7 7 7 7 7 8 8 9 9
3 3 3 3 3 4 4 4 5 6 6 7 7 6 7 9 12 13 14 14 14 16 13 13 12 10 11 8 12 12 14 13 15 14 15 15 14 9 8 8 8 8 7 7 7 6 7 7 7 8 8 8 9 9
2 3 3 3 3 3 3 4 4 4 4 6 9 11 10 12 14 16 17 15 15 12 11 11 12 11 10 10 11 13 14 15 16 14 15 15 10 8 7 7 7 6 7 8 6 6 6 7 7 9 8 9 11 9
2 2 2 3 3 3 4 4 4 5 6 11 13 15 14 17 16 15 14 13 11 11 11 10 11 12 12 16 12 14 15 16 17 16 17 13 10 8 7 7 7 7 9 9 8 7 8 9 9 9 6 6 6 6
1 1 2 2 3 3 4 4 4 5 10 13 13 17 16 13 12 11 10 10 10 9 10 10 12 12 16 18 18 17 19 16 14 17 15 12 9 8 8 7 7 9 9 9 7 9 9 9 10 9 7 6 8 7
1 2 3 2 2 2 2 3 4 5 12 13 14 17 14 12 12 11 10 10 9 10 12 12 15 17 17 18 19 20 19 18 16 16 13 11 8 8 8 8 8 8 8 8 7 7 7 8 8 8 7 5 7 5
2 4 1 1 2 2 2 4 7 10 13 16 18 12 12 12 14 10 11 9 8 9 16 16 18 16 15 21 20 14 17 15 14 12 10 9 8 8 8 8 9 8 7 7 7 7 7 7 9 7 7 7 8 6
4 1 1 1 2 3 4 7 10 12 14 15 16 16 15 15 10 10 9 9 8 9 13 15 13 17 19 20 18 15 15 14 12 11 11 10 8 8 7 7 6 6 6 6 7 7 7 9 8 7 7 7 7 6
2 1 1 1 3 7 9 9 9 15 14 15 14 14 14 15 14 13 13 8 7 7 11 15 19 19 17 16 18 17 17 15 11 9 8 8 8 7 7 6 6 7 7 6 6 6 6 6 6 5 5 7 6 6
1 1 1 1 2 8 10 12 8 12 14 12 14 14 13 13 14 14 8 10 8 8 10 11 15 14 14 12 12 12 10 10 11 11 8 7 8 7 7 6 6 6 6 6 6 9 8 7 6 6 6 6 5 6
2 2 2 3 5 7 10 12 13 11 11 12 12 12 14 16 14 12 9 11 9 10 11 11 11 9 9 9 9 9 8 8 8 9 8 8 6 8 7 6 6 7 7 6 7 6 7 8 6 5 5 4 5 5
4 2 5 4 8 10 12 11 11 11 12 13 13 13 16 17 17 13 13 9 10 11 10 10 8 8 8 8 7 7 7 7 7 7 8 8 8 7 7 7 9 6 5 5 5 5 5 4 4 4 4 5 5 7
3 4 6 6 11 13 14 10 13 12 15 14 14 15 17 18 15 11 16 12 11 9 6 7 7 7 7 6 7 7 6 6 7 7 8 8 8 10 10 8 11 8 6 5 4 5 5 4 4 5 5 5 6 8
3 7 9 10 13 18 15 11 12 13 17 15 17 19 16 16 14 17 16 16 10 9 9 7 7 7 8 8 7 6 5 7 7 8 9 10 11 9 9 5 5 4 4 4 4 4 5 5 6 6 6 6 7 8
11 9 9 11 9 11 12 18 17 17 18 19 19 19 16 15 17 20 18 11 13 11 9 8 9 7 8 7 10 8 8 7 8 8 10 10 12 10 7 5 5 5 4 4 5 4 5 5 7 6 8 9 7 7
15 12 10 11 14 15 15 19 19 17 20 19 18 15 19 19 19 17 14 13 14 13 13 11 11 11 9 7 7 8 8 9 9 10 10 10 10 7 7 7 7 6 5 5 5 5 5 5 6 9 11 8 8 7
16 14 11 9 10 12 17 18 16 18 20 18 18 18 18 16 18 14 11 11 10 10 9 9 8 8 8 7 7 8 9 9 8 8 8 6 5 6 6 7 7 6 4 4 5 5 5 6 6 7 7 6 6 6
13 15 13 12 12 13 17 20 19 17 16 13 16 18 16 16 14 11 9 7 8 8 8 8 7 6 6 7 9 10 11 11 11 10 10 10 9 9 8 5 5 5 5 4 5 5 5 5 5 5 5 6 6 6
10 12 11 13 14 13 14 14 14 12 10 13 16 17 15 12 12 11 9 8 8 8 7 5 6 7 5 7 7 6 6 8 9 10 8 8 7 9 12 10 7 7 6 5 5 5 5 5 5 5 5 5 5 6
12 10 12 17 16 15 12 12 14 14 12 8 9 10 10 10 7 6 7 7 10 7 6 8 8 6 5 6 7 9 9 6 6 7 9 10 10 11 7 6 6 6 6 6 6 7 8 9 7 6 6 7 7 8
14 17 17 18 17 13 10 13 15 14 16 12 8 9 8 7 11 11 13 10 8 6 6 7 7 7 7 8 8 9 9 11 11 12 13 14 12 10 9 8 6 6 7 14 14 13 11 10 10 8 8 8 9 9
18 16 15 16 11 11 11 12 11 12 12 15 9 14 12 13 10 12 12 12 11 12 12 12 12 12 11 12 11 11 12 13 14 14 14 15 15 15 13 13 11 10 10 14 14 13 12 10 10 10 10 10 10 10
18 20 20 20 18 19 16 16 17 17 19 14 11 10 10 12 10 13 13 12 14 14 15 14 14 12 12 10 10 12 12 12 12 11 12 13 14 14 15 14 14 12 12 12 12 13 14 14 15 15 15 15 16 16

GFSWCAN_con_lsi_009.txt.gz
Lid_Strength_Index
4 4 3 3 3 3 3 3 3 3 3 3 3 3 3 3 3 3 4 3 5 9 7 5 5 7 7 9 12 9 10 12 12 14 17 16 21 16 16 14 16 16 17 19 17 18 19 10 9 13 10 10 9 8
4 4 4 4 4 3 3 3 3 3 4 3 3 3 3 3 3 3 4 3 3 5 6 4 3 4 5 5 8 9 10 10 11 13 14 18 16 15 15 15 12 14 13 16 15 14 10 9 8 8 8 8 9 8
4 4 4 4 4 4 3 3 3 3 3 3 3 3 3 3 3 3 4 4 5 10 7 6 6 4 2 4 4 9 12 8 10 9 13 13 13 13 14 14 13 11 9 13 12 10 9 8 6 6 6 7 5 6
5 4 4 5 5 4 4 4 3 3 3 3 4 4 4 3 3 3 4 4 5 9 13 9 5 5 3 3 3 4 5 6 7 10 13 13 13 10 13 11 12 10 9 11 11 9 8 7 6 6 5 6 7 7
5 5 5 5 5 5 5 5 4 4 4 3 3 3 3 3 3 3 3 2 2 5 11 10 7 5 4 4 5 5 5 7 10 12 13 12 12 11 12 13 12 8 10 11 12 8 8 7 6 7 7 7 7 7
5 5 5 5 5 5 5 5 5 5 5 4 4 3 3 3 3 3 6 3 2 2 9 12 7 8 7 6 6 6 6 6 8 10 12 11 8 10 13 13 9 7 6 6 8 6 6 5 7 7 7 7 5 5
5 5 5 6 6 6 5 5 5 5 5 5 5 3 3 3 3 5 6 6 3 3 11 12 12 11 9 8 8 8 8 8 8 9 11 10 9 8 13 12 8 7 6 6 5 5 7 7 8 6 6 7 6 6
5 5 6 6 5 6 6 6 5 5 5 5 5 5 5 5 5 7 6 5 4 6 10 12 13 12 9 12 13 10 12 11 10 9 11 12 11 12 12 9 8 7 7 7 7 7 7 7 7 7 7 7 7 7
4 5 6 6 5 6 5 5 5 5 5 5 5 5 6 7 9 8 5 5 6 7 12 13 13 13 9 11 12 13 11 13 11 13 12 11 13 12 9 9 9 8 8 8 8 7 7 9 8 8 8 8 8 8
3 4 5 5 6 5 5 5 5 5 5 5 6 8 12 10 5 6 7 10 11 12 12 13 12 13 9 13 13 12 13 13 14 13 10 13 12 9 9 9 8 8 8 8 10 9 9 10 10 9 9 8 8 8
3 3 4 5 5 5 5 5 5 5 5 8 11 12 8 5 8 11 13 13 13 13 13 13 13 12 10 12 13 13 13 13 16 17 14 16 15 12 10 10 9 9 9 9 9 8 8 8 8 9 9 8 9 9
2 3 3 3 4 4 4 5 5 6 7 7 8 7 8 9 12 13 14 14 14 15 13 13 12 11 12 9 12 13 15 15 18 15 15 17 14 11 10 9 9 8 8 7 7 7 7 7 7 8 8 8 9 10
2 3 3 3 3 3 4 4 4 5 5 7 9 11 11 13 14 15 16 15 15 14 12 12 12 12 12 11 13 14 16 17 16 16 17 15 11 9 9 8 8 7 8 9 8 7 6 6 7 9 9 8 7 7
1 2 2 3 3 3 4 4 4 5 8 13 14 14 14 16 14 15 15 15 13 12 12 12 12 13 13 16 14 16 17 16 16 17 18 14 11 10 10 9 9 9 10 10 9 8 9 9 9 10 12 8 8 8
1 1 2 3 3 4 4 4 4 6 10 13 15 18 16 15 13 12 11 11 11 11 11 11 12 12 14 17 15 16 18 18 15 18 16 14 10 10 10 9 8 10 10 10 8 9 10 10 10 9 8 9 8 6
1 1 2 2 3 3 4 4 6 8 13 14 15 18 13 12 13 12 11 11 10 10 11 12 18 20 19 19 20 18 19 19 17 17 15 12 10 9 9 9 8 8 9 9 8 8 8 9 9 8 9 9 8 7
2 4 1 1 2 2 3 6 8 11 15 18 19 12 18 14 17 11 12 10 9 11 13 17 18 18 17 22 20 15 18 16 16 14 13 10 9 8 8 9 10 9 8 8 8 8 7 7 9 11 10 7 8 8
4 1 1 1 2 3 5 7 11 13 15 17 16 18 12 17 10 10 12 14 9 10 13 15 15 20 22 21 19 16 15 15 13 13 11 10 9 9 8 8 7 7 7 7 8 8 8 9 9 7 7 7 8 9
2 1 1 2 3 7 9 9 9 14 15 16 15 16 16 17 15 15 16 13 9 8 10 12 21 20 18 16 18 18 19 16 12 10 10 9 8 8 8 7 7 7 7 7 7 7 6 6 6 6 6 6 6 6
1 1 2 1 3 9 11 12 9 12 15 13 15 15 15 15 15 14 10 12 10 9 10 12 15 14 15 13 12 12 12 11 12 11 9 9 8 8 7 7 7 7 7 7 8 10 6 6 6 6 6 6 6 5
2 2 2 4 6 8 11 13 13 12 12 12 13 13 15 15 13 13 14 8 10 10 11 11 13 11 9 9 10 10 9 9 9 10 9 8 7 8 8 7 8 8 9 9 8 7 5 5 5 4 4 5 5 5
3 2 5 5 9 12 11 11 12 12 14 15 15 14 18 19 16 11 14 9 11 11 10 11 9 8 9 9 8 8 8 7 7 8 9 8 9 8 9 9 11 11 7 6 6 6 5 4 4 4 4 5 5 6
3 5 7 7 12 15 15 11 15 13 16 17 16 17 18 19 15 12 14 11 12 9 8 8 8 7 7 7 8 7 7 7 8 8 8 8 8 9 11 10 13 11 8 6 5 5 4 4 4 5 5 5 6 8
4 9 12 12 16 18 16 10 13 15 18 16 18 20 18 18 16 18 17 17 10 10 10 8 8 8 9 9 8 7 6 8 8 8 9 11 10 9 10 9 10 9 6 5 5 5 4 4 4 7 7 7 8 7
13 11 14 12 10 11 13 17 18 16 16 20 21 20 17 17 18 21 18 14 15 13 10 10 11 9 10 10 10 9 9 8 8 9 8 11 13 13 11 10 9 8 8 6 7 5 5 5 5 5 7 10 9 9
17 14 11 11 11 17 17 18 15 17 22 21 20 17 22 21 20 18 14 14 15 14 14 14 14 13 11 9 9 9 7 9 9 10 9 9 10 11 10 7 7 9 10 7 5 6 6 6 5 6 6 7 9 7
18 13 10 11 11 13 18 20 18 20 21 19 19 20 20 20 19 14 12 12 10 11 10 8 8 8 8 7 7 7 8 10 8 8 9 9 8 7 7 7 8 9 7 5 6 6 7 6 6 6 6 6 6 6
14 15 13 13 15 15 19 22 20 18 17 14 18 18 17 17 15 12 10 9 10 9 8 8 8 7 7 8 9 11 9 9 13 11 10 9 9 10 12 7 7 8 8 7 6 6 6 6 6 6 6 5 5 5
10 12 14 17 17 16 14 14 15 13 11 13 16 18 16 12 13 12 9 9 10 10 11 8 9 12 11 6 6 6 6 7 8 11 14 13 9 8 10 10 7 6 6 6 6 5 6 6 7 7 7 6 5 5
13 11 11 12 12 13 12 12 15 15 14 10 11 10 10 12 12 12 11 11 11 13 12 9 7 7 6 6 7 8 8 8 7 8 10 13 13 13 11 8 7 6 6 7 7 10 12 14 12 11 9 8 8 8
16 18 18 20 18 16 13 16 20 19 18 14 13 11 9 11 15 15 14 14 11 10 10 11 9 11 11 11 12 13 13 13 13 12 14 15 16 15 13 12 12 10 8 11 10 14 17 16 15 14 13 11 11 10
14 16 17 18 16 14 19 16 17 17 13 19 10 17 18 16 16 18 15 14 15 14 15 14 14 13 12 11 13 13 12 13 13 13 13 14 15 15 15 14 14 13 13 12 12 13 14 15 15 16 15 13 14 15
21 24 25 23 20 20 19 18 20 20 22 17 12 13 16 14 15 15 15 14 14 15 15 14 14 13 13 12 13 13 12 12 12 11 12 13 15 16 17 18 18 17 16 15 15 15 17 18 20 19 18 18 18 19

GFSWCAN_con_lsi_012.txt.gz
Lid_Strength_Index
4 4 4 3 3 3 3 3 3 3 3 3 3 3 3 3 3 3 4 3 5 10 8 6 6 8 8 10 12 10 10 12 12 14 16 16 21 17 17 15 16 16 19 20 18 18 19 11 11 13 10 10 9 10
4 4 4 4 3 3 3 3 3 3 3 4 3 3 3 3 3 3 4 4 4 6 7 5 5 5 5 6 8 10 10 11 12 14 14 17 18 16 16 17 13 16 14 14 13 15 11 10 9 9 9 9 9 9
5 4 4 4 4 3 3 3 3 3 3 4 4 3 3 3 4 3 4 4 6 10 8 7 7 4 3 4 4 9 13 9 10 10 14 15 14 15 15 14 16 12 10 13 12 11 10 8 7 7 8 8 7 8
5 5 4 4 4 4 3 3 3 3 4 4 4 4 3 3 3 3 5 5 6 9 13 9 5 6 4 3 5 5 6 7 9 11 14 14 14 10 13 11 12 10 10 11 12 9 9 8 8 8 8 7 7 7
5 5 6 5 5 5 4 4 4 3 3 3 3 3 3 3 3 4 4 3 4 6 11 10 7 5 4 4 5 5 6 7 10 12 13 13 13 12 13 12 13 9 10 12 12 8 8 7 7 7 8 8 7 7
5 5 6 6 5 5 5 4 4 5 4 4 3 3 3 3 3 2 5 4 3 3 9 11 8 9 7 6 6 7 7 7 9 10 12 11 8 10 13 13 9 8 7 7 8 6 6 7 8 8 8 7 7 8
5 5 5 6 6 5 5 5 5 5 5 5 4 3 3 3 2 4 6 5 3 3 10 11 12 11 9 8 8 9 9 9 8 10 12 11 11 9 13 12 8 7 7 7 6 6 8 8 9 7 7 8 8 8
5 5 5 6 6 5 5 5 5 5 5 5 5 5 4 3 4 5 5 4 2 6 9 12 13 12 10 13 13 10 12 11 9 9 11 12 11 12 13 10 9 8 7 7 8 8 9 7 7 8 9 9 9 9
4 5 5 6 5 5 6 5 5 5 5 5 5 5 5 6 8 7 5 5 5 6 11 13 13 13 9 11 12 13 13 13 11 13 12 11 13 13 12 12 11 10 10 10 9 9 9 10 10 10 10 10 10 9
4 5 5 6 5 5 5 5 5 5 5 5 6 8 12 10 5 5 7 10 10 11 11 13 12 13 9 13 13 12 13 13 15 13 12 13 13 11 11 11 11 11 11 10 11 12 11 11 11 10 10 9 9 9
3 4 5 5 5 5 5 5 5 5 5 8 10 12 8 5 8 10 13 13 13 13 13 13 13 12 10 13 13 13 13 13 17 18 15 15 16 14 12 12 11 11 11 10 10 10 9 9 9 10 10 9 9 9
1 3 4 4 4 5 5 5 5 6 7 7 8 7 8 9 12 12 13 14 14 15 14 14 13 11 12 10 12 13 14 15 18 16 16 18 16 13 11 10 10 10 10 9 9 9 9 8 8 8 8 8 9 10
1 2 3 3 3 4 5 5 5 5 6 8 10 12 11 13 14 15 17 15 15 14 13 13 13 12 12 11 13 14 17 19 17 19 19 17 13 11 11 11 11 10 11 11 10 9 9 9 9 10 9 9 10 9
1 1 2 2 3 4 4 4 5 6 8 12 14 14 15 16 15 15 15 17 15 13 13 13 13 14 14 14 15 18 17 17 18 22 20 17 12 12 11 11 11 10 12 12 10 9 10 10 10 10 10 10 11 10
1 1 2 2 3 3 4 4 5 7 10 13 15 17 15 16 14 13 12 12 12 12 12 12 13 14 15 17 15 16 17 18 16 19 19 15 12 11 11 10 10 11 12 11 9 10 11 11 11 10 9 10 10 10
0 1 2 2 2 3 3 5 6 9 12 14 15 19 15 14 14 13 12 12 11 11 12 13 18 19 18 18 18 18 18 20 19 20 16 14 11 10 9 10 10 9 9 9 8 9 9 10 10 8 8 9 9 9
1 3 1 2 2 3 3 6 8 11 14 17 18 13 16 15 16 15 11 11 10 11 14 15 19 19 17 21 20 18 20 18 17 16 14 11 10 9 9 9 10 9 9 9 8 9 8 8 10 11 10 7 8 8
3 1 1 1 3 4 6 8 11 13 15 16 17 18 12 14 16 15 12 16 12 12 13 16 16 21 23 22 21 18 16 17 15 14 12 10 9 9 8 9 8 8 8 8 9 9 9 11 9 7 7 7 7 7
2 2 1 2 4 7 8 9 9 15 15 16 16 15 16 16 13 13 15 13 12 11 11 15 21 20 18 17 18 20 21 18 13 11 11 9 9 9 8 8 8 7 8 8 8 7 7 7 7 6 7 7 6 5
2 2 2 3 3 9 11 13 9 12 14 13 14 15 15 15 13 12 11 11 12 9 11 14 15 15 15 14 13 13 12 12 12 12 10 10 9 8 8 7 7 7 7 8 9 10 8 7 7 8 7 5 5 5
3 3 3 5 7 8 11 14 14 13 13 14 14 14 16 13 12 12 11 11 10 11 14 12 14 12 10 11 10 10 9 10 10 11 11 10 9 9 8 7 8 9 11 12 9 6 6 6 6 5 4 5 5 4
4 3 6 7 11 12 12 12 12 13 14 15 16 15 20 20 15 12 14 11 11 12 10 11 9 10 9 9 9 9 8 8 8 9 10 10 10 10 10 10 13 11 11 10 9 8 6 5 5 5 5 5 4 4
4 5 9 12 14 15 14 12 15 14 17 17 17 17 19 20 17 11 12 10 11 10 9 10 8 8 8 7 8 8 8 8 8 8 9 8 8 9 12 11 12 11 11 9 10 8 6 5 5 4 4 5 5 6
4 10 13 15 17 17 15 14 14 16 19 19 20 20 18 19 16 13 16 18 11 11 10 8 9 10 10 9 10 8 8 8 9 9 9 11 10 9 10 10 12 11 10 8 8 6 7 6 4 5 5 6 6 8
12 11 15 14 13 17 17 12 17 15 14 22 20 20 19 19 19 19 18 15 17 15 12 12 12 10 11 13 12 10 10 9 10 10 8 10 11 14 11 11 11 10 11 14 12 10 7 6 6 6 6 6 7 7
19 12 13 17 13 18 19 16 15 16 24 23 18 20 24 22 21 18 15 15 17 15 16 15 15 14 12 9 10 10 8 10 11 11 7 9 9 9 12 13 10 9 12 8 7 6 7 7 7 7 7 6 7 7
17 13 10 11 13 15 20 22 19 21 23 20 20 22 21 20 21 15 13 12 11 11 10 10 9 9 8 8 9 9 9 11 10 8 11 11 9 8 7 7 8 9 8 7 8 7 7 7 7 7 7 7 7 6
15 16 14 12 13 17 20 23 21 19 18 15 18 19 17 17 15 12 10 10 10 11 10 9 9 9 10 9 9 11 9 9 8 10 8 7 8 9 11 10 9 8 10 7 6 7 7 6 7 8 8 8 7 7
10 12 14 14 19 20 17 16 17 14 12 13 16 18 16 13 13 13 12 12 14 12 12 12 11 14 12 11 11 7 6 6 7 9 10 9 14 11 10 11 9 8 7 7 6 6 9 12 12 14 13 10 8 8
13 14 17 20 17 16 13 11 15 16 15 13 13 12 12 13 15 14 14 13 11 11 9 8 8 8 8 9 8 8 10 10 10 9 11 14 15 14 13 12 12 10 9 8 8 8 10 16 15 15 14 13 13 13
18 18 16 19 18 16 15 20 22 21 21 17 17 13 10 15 14 17 15 16 15 14 14 15 14 12 13 14 13 13 12 13 13 14 15 15 15 14 14 15 14 14 13 13 11 14 17 19 20 20 17 13 15 16
13 17 17 19 17 18 21 17 23 22 20 22 13 19 20 18 17 16 15 15 16 16 16 16 16 15 13 12 12 12 12 13 14 15 16 16 16 16 17 17 19 19 21 20 20 20 21 22 22 21 21 19 19 19
25 24 22 24 21 20 22 21 22 22 24 26 24 23 23 16 20 17 13 13 14 15 16 15 14 14 13 13 14 14 14 14 15 15 15 15 17 19 22 24 24 24 23 23 23 24 23 24 23 24 22 22 22 22

GFSWCAN_con_lsi_015.txt.gz
Lid_Strength_Index
4 4 4 4 3 3 3 3 2 3 3 3 3 3 3 3 3 2 2 3 5 10 7 5 5 7 8 9 10 9 9 10 11 13 13 14 15 13 14 13 15 14 15 16 16 17 17 10 9 11 9 8 8 7
4 4 4 4 3 3 3 3 3 3 3 3 3 3 3 3 4 3 3 3 4 6 6 4 3 3 4 5 7 9 8 9 9 12 13 14 14 15 14 15 12 14 12 13 12 12 9 9 8 7 7 8 8 7
5 5 4 5 4 4 3 3 3 3 3 3 3 3 3 3 3 3 3 4 5 9 7 6 5 4 3 3 3 7 10 7 8 7 11 13 13 13 14 15 13 11 10 12 11 9 8 7 6 7 6 8 8 7
5 5 5 5 5 4 4 3 3 3 3 3 4 3 3 3 3 3 4 4 5 8 13 8 5 5 3 2 3 4 6 7 7 9 12 13 13 10 13 11 11 9 10 11 11 8 8 7 7 7 8 7 7 6
5 5 5 5 5 5 5 4 4 3 3 3 3 3 3 3 3 3 3 3 4 5 11 10 6 5 5 4 3 4 5 6 8 11 13 12 11 11 11 12 12 8 9 11 12 7 8 8 7 7 8 8 7 7
5 5 6 6 6 5 5 5 4 3 3 3 3 3 3 3 3 3 6 4 3 3 9 12 8 8 7 5 4 5 5 6 7 10 12 10 8 9 13 13 9 7 6 6 7 6 6 8 8 7 8 8 8 8
5 5 5 6 6 6 5 5 4 4 4 3 3 3 3 3 2 4 7 5 3 3 10 12 11 9 8 7 7 7 7 7 7 10 12 11 10 9 13 13 8 8 8 7 6 6 8 8 9 8 9 9 8 8
4 4 5 5 6 6 6 5 5 5 5 4 4 4 4 4 4 4 4 3 2 5 8 11 12 11 8 10 10 9 10 10 9 10 12 12 11 12 13 10 11 10 9 9 9 8 9 10 9 9 9 8 9 9
3 4 5 5 5 6 6 6 5 5 5 4 4 4 4 5 8 6 5 4 4 5 10 12 12 13 9 11 11 11 11 13 11 13 12 11 13 13 12 12 11 11 10 10 11 10 10 10 9 9 9 9 9 8
3 3 4 5 5 5 5 5 5 5 5 4 5 7 12 10 5 5 7 9 10 11 11 13 11 12 9 12 13 12 13 13 14 13 12 13 13 12 12 11 11 11 10 10 10 11 10 10 10 9 9 8 8 8
2 3 3 5 5 5 5 5 5 5 5 8 11 12 8 6 8 10 13 13 13 13 12 12 13 12 10 12 13 13 13 13 16 15 14 14 14 13 12 12 11 10 10 9 9 9 9 9 10 9 9 8 8 7
1 2 3 3 4 5 5 5 5 6 7 7 8 7 8 9 12 13 14 14 13 14 13 13 13 11 12 10 12 13 14 14 17 15 15 16 14 12 11 11 10 10 9 9 9 10 9 9 8 9 8 8 8 8
1 2 2 2 3 4 5 5 5 5 6 8 10 12 11 13 14 14 16 15 14 13 13 13 13 12 12 11 13 14 16 17 15 17 17 16 12 11 11 11 10 10 10 11 10 9 8 8 9 9 9 8 9 8
1 1 1 2 2 3 4 4 5 7 9 12 12 14 14 15 14 15 15 15 14 13 13 12 13 13 14 14 15 16 16 16 18 19 18 14 12 12 11 10 10 10 12 12 10 9 10 10 10 9 10 9 10 9
1 1 1 1 2 3 4 4 5 7 11 14 14 16 15 15 14 13 13 12 13 12 12 13 13 13 15 16 15 16 17 18 17 17 15 13 12 11 10 9 10 11 12 11 9 9 10 10 10 9 8 8 8 9
0 0 2 2 2 2 3 4 6 8 12 14 16 16 15 15 15 14 13 13 12 12 13 14 16 16 17 16 17 17 18 19 16 16 14 12 11 10 9 10 10 10 10 9 8 8 8 9 10 7 8 8 8 8
0 3 1 1 2 3 4 6 8 12 13 16 17 15 16 16 14 14 12 12 11 12 14 16 17 16 16 18 18 16 18 16 15 14 13 11 10 9 9 9 11 10 9 8 8 8 7 7 8 9 9 6 6 6
3 1 1 1 3 4 6 8 11 12 15 15 16 15 13 13 15 15 13 12 11 13 14 15 15 19 19 18 17 16 15 14 14 13 11 9 8 8 8 8 8 7 7 7 8 8 8 9 8 6 6 6 6 6
1 1 1 1 3 7 9 9 10 14 15 15 14 13 13 13 13 13 13 12 11 11 13 15 18 17 15 15 15 16 16 14 11 10 10 9 8 8 8 8 8 7 7 7 7 6 6 7 6 6 6 6 6 6
2 2 3 3 3 9 11 13 10 13 14 13 14 13 14 14 12 12 11 10 9 10 11 13 14 13 14 13 12 11 11 11 11 11 10 9 8 8 8 7 7 6 6 7 7 9 7 6 5 5 5 5 5 6
4 3 4 4 8 9 11 13 14 13 13 13 13 13 15 12 12 12 11 9 10 11 12 11 12 11 10 10 9 9 9 9 9 9 9 9 7 8 7 7 6 7 8 8 8 7 9 7 5 5 5 5 5 5
4 3 7 7 10 11 12 12 12 13 14 15 15 14 18 19 14 12 11 11 11 11 11 11 10 9 9 9 8 8 7 7 7 8 9 9 9 8 8 7 8 8 8 8 7 7 6 6 5 5 5 5 5 5
4 6 9 11 12 13 14 12 16 14 16 17 17 17 19 20 17 11 12 10 11 10 9 9 8 7 8 7 8 7 7 7 8 8 8 8 8 7 8 8 8 9 9 7 7 7 7 5 5 5 5 5 5 5
6 10 12 15 17 17 16 18 13 16 19 18 19 16 18 17 13 13 14 15 11 11 10 8 8 8 9 9 8 7 7 7 7 8 8 9 8 7 7 7 7 8 8 6 7 7 7 6 7 5 6 7 6 6
11 12 15 16 16 16 20 14 13 12 19 20 16 18 19 17 18 15 14 13 14 13 12 11 11 8 9 9 10 9 9 7 8 8 7 8 8 8 7 7 8 7 7 7 7 8 8 5 5 6 6 7 7 7
16 12 18 20 19 18 20 16 15 15 19 17 16 20 22 21 20 17 15 13 14 13 13 12 11 11 10 9 8 8 7 8 8 9 7 7 8 8 7 8 8 7 7 7 7 7 7 7 7 7 7 6 7 7
15 13 11 13 14 17 20 21 19 21 18 19 20 22 21 20 20 14 12 11 10 10 10 9 9 9 7 7 8 8 8 9 8 7 7 8 7 7 7 6 7 6 6 6 7 7 7 7 7 7 7 7 7 7
17 17 16 12 14 17 21 23 22 19 19 16 18 18 17 17 15 12 11 10 11 10 9 10 10 9 9 8 8 9 8 9 6 7 7 7 8 9 9 8 8 8 8 8 7 6 7 7 8 9 8 9 8 8
13 16 15 13 14 14 18 17 16 15 13 14 16 18 15 12 14 14 13 13 12 10 10 10 9 9 9 9 9 8 8 7 7 8 8 9 8 9 11 10 10 9 9 8 7 7 7 8 9 10 10 10 11 11
13 14 18 18 19 17 14 13 15 17 15 14 13 12 12 16 15 15 16 16 16 16 15 14 14 13 13 13 13 12 12 11 12 11 10 11 13 13 13 13 13 12 12 11 10 9 12 12 13 13 13 13 14 15
17 13 17 18 19 17 17 23 24 22 22 18 21 14 15 17 17 17 17 17 17 17 17 18 17 15 14 14 14 13 12 12 12 12 12 13 14 14 15 15 16 16 16 15 12 14 15 16 17 17 17 17 18 18
13 15 20 16 17 20 21 18 21 21 24 22 20 24 23 18 22 19 17 18 18 18 18 18 17 16 13 12 12 13 13 14 14 14 14 15 16 16 18 19 20 19 18 18 18 18 19 19 19 19 19 19 19 19
19 17 17 21 20 19 22 22 23 21 24 24 25 19 25 23 24 20 19 17 18 18 19 18 17 13 13 14 15 15 15 15 15 16 17 17 18 19 20 21 21 21 20 20 20 20 20 20 21 21 21 22 22 22

GFSWCAN_con_lsi_018.txt.gz
Lid_Strength_Index
4 3 3 3 3 3 2 2 2 2 2 2 2 3 3 3 4 -0 1 -0 2 5 4 3 4 5 5 5 8 6 7 7 8 13 13 12 14 11 11 10 11 12 14 15 14 16 17 7 8 11 8 6 6 6
5 4 4 5 4 3 3 3 3 2 3 3 3 2 3 4 3 1 2 -0 0 3 4 2 2 1 2 2 4 5 6 6 6 9 10 10 12 12 12 13 8 12 9 10 11 11 6 6 6 5 4 5 7 7
5 5 4 4 5 4 3 3 3 3 3 3 3 2 3 3 3 1 1 -0 1 4 4 3 4 2 0 1 0 6 4 4 5 4 7 9 13 9 14 12 11 8 7 9 10 7 7 5 4 4 5 7 7 7
5 5 5 4 4 5 4 3 3 3 3 3 3 3 3 3 3 2 1 0 1 4 11 6 3 3 2 0 1 1 3 3 3 3 9 11 12 6 11 9 9 7 7 8 9 7 6 5 6 6 7 7 7 7
5 5 5 5 5 5 5 4 4 4 4 4 3 3 2 3 3 -0 -1 -0 -0 3 9 6 3 4 3 2 2 2 2 4 5 8 10 11 7 8 9 10 10 6 8 10 11 7 7 8 7 7 8 8 8 8
5 5 6 5 5 5 5 5 4 4 4 3 3 3 3 3 2 -0 3 -1 -1 -1 6 10 4 5 4 2 3 3 3 4 5 7 9 7 5 7 13 12 7 6 5 5 8 6 6 7 8 8 8 9 9 8
5 5 6 5 5 5 5 5 5 5 4 4 3 3 3 3 -1 2 4 2 2 -1 7 10 8 6 6 4 5 3 3 4 5 6 8 8 7 7 13 12 8 7 7 7 6 6 8 8 9 8 9 8 7 7
5 5 5 6 6 5 5 5 5 5 5 4 4 3 4 3 3 2 1 3 1 2 5 10 10 8 6 8 8 6 6 7 7 7 10 9 9 11 12 9 9 9 9 9 9 7 8 9 8 8 8 8 8 8
4 5 5 6 6 5 5 5 5 5 5 4 4 4 3 4 6 4 4 3 1 2 8 11 11 12 6 8 8 8 8 11 9 12 12 10 11 12 10 10 9 9 8 10 9 9 9 9 9 9 9 9 8 8
3 3 4 5 6 6 5 5 5 5 5 5 5 7 11 9 5 4 5 7 8 10 10 11 8 10 6 9 10 9 10 11 12 11 9 13 12 12 10 9 8 9 9 9 10 10 10 10 10 9 8 8 7 7
2 3 3 4 4 5 5 5 5 5 5 7 10 11 7 5 7 9 12 12 11 13 12 12 12 11 8 10 11 11 12 12 14 12 12 12 12 10 10 10 9 9 9 9 9 9 9 9 9 8 8 7 7 7
2 2 3 3 3 3 4 4 5 6 7 7 7 7 8 9 12 13 13 13 13 13 13 13 12 11 12 9 12 13 13 12 15 11 14 14 10 10 10 10 9 8 9 9 9 9 8 8 7 7 7 7 7 7
2 1 2 2 2 2 3 4 5 6 6 7 10 13 12 13 14 14 15 14 13 12 11 12 13 12 11 10 12 11 13 14 11 15 14 11 10 9 9 10 9 9 9 10 9 8 7 7 6 7 8 7 7 6
2 2 1 2 2 2 2 4 6 6 7 11 13 14 13 14 13 12 12 11 11 11 11 11 13 11 12 12 12 14 13 13 16 16 14 11 10 10 10 9 9 10 9 10 9 8 7 7 8 7 7 7 7 7
2 2 1 1 2 2 2 3 5 6 8 12 12 14 14 13 12 12 11 11 11 10 10 12 12 11 13 14 13 14 16 16 14 14 11 10 10 10 10 9 9 8 9 9 8 7 8 8 8 7 6 5 5 6
1 1 1 1 2 2 3 3 5 7 10 11 12 13 13 13 13 13 12 12 11 12 11 11 13 14 14 14 15 15 15 16 13 11 9 9 10 9 9 8 8 8 8 8 7 7 7 7 7 6 5 6 6 5
1 3 1 1 2 3 3 4 4 10 11 12 13 11 12 11 11 11 11 11 10 11 12 12 14 15 14 15 15 14 14 12 10 10 9 9 8 8 8 8 8 8 8 7 6 6 6 5 5 6 6 4 4 4
2 1 1 1 1 2 4 5 7 8 11 12 12 12 11 11 11 11 10 10 10 11 11 12 13 14 14 15 13 11 11 10 10 9 8 8 7 7 6 6 6 6 6 6 5 5 5 6 5 4 4 4 4 4
2 1 1 1 2 5 7 7 7 10 11 11 11 11 11 11 11 11 10 10 8 9 10 11 13 13 13 12 11 10 9 9 8 8 8 7 7 7 7 6 7 6 6 5 5 4 4 4 4 4 3 3 4 4
1 1 2 2 2 5 8 8 7 9 10 10 9 9 10 10 10 10 9 8 8 8 10 11 10 9 10 9 9 8 7 7 7 8 8 7 6 6 6 5 5 4 4 4 4 5 4 3 3 3 3 4 5 5
3 3 3 3 5 5 7 8 9 8 9 9 9 8 11 10 10 10 9 8 9 9 10 8 8 7 7 7 7 7 7 7 7 6 6 6 4 4 5 4 4 4 4 4 4 4 5 4 3 3 4 4 4 4
4 3 7 5 7 7 8 8 8 9 8 9 9 9 9 10 10 10 9 10 10 8 7 7 7 6 6 7 6 5 5 5 5 5 6 5 5 5 4 4 4 4 4 3 3 3 3 2 3 3 4 4 4 4
5 6 7 8 9 8 10 7 9 10 10 10 10 10 10 9 10 10 11 9 8 6 6 6 5 5 5 5 5 5 5 5 5 4 4 4 3 3 4 3 3 4 4 3 2 3 3 4 4 4 4 4 4 5
5 9 10 11 10 12 10 11 9 10 10 10 10 12 12 10 11 11 12 9 7 6 6 6 5 5 5 6 6 5 4 4 3 3 3 3 4 4 3 3 3 3 3 3 3 3 4 4 4 4 4 5 5 5
8 11 10 13 11 12 12 11 12 11 13 14 13 12 12 11 11 12 11 8 6 6 5 5 6 5 5 4 4 4 4 4 4 4 2 3 3 3 3 2 2 3 3 5 5 4 5 5 5 5 5 5 6 6
13 11 12 12 12 12 12 14 13 13 12 13 12 12 12 10 12 11 9 6 6 5 5 4 4 5 5 4 5 4 3 3 4 4 3 3 4 5 5 5 5 4 3 4 5 5 6 6 6 6 6 6 7 7
13 12 10 10 10 12 13 13 12 12 14 13 11 13 11 13 12 9 7 8 7 7 6 6 6 6 6 6 5 4 4 4 5 5 4 5 5 5 6 6 6 5 4 4 5 5 6 6 6 6 7 7 7 7
11 10 13 11 11 11 12 12 12 13 11 10 10 12 12 11 10 9 10 10 10 8 7 7 7 8 8 7 7 7 7 6 6 5 5 5 5 6 7 6 6 7 5 5 5 5 5 6 7 7 7 7 7 7
10 10 10 13 12 12 11 10 10 9 8 9 9 9 9 9 13 13 12 11 10 10 11 12 11 11 9 9 9 9 9 10 10 9 8 7 5 9 9 8 7 7 7 7 7 7 7 8 8 8 8 8 8 9
11 9 11 12 13 11 8 8 7 7 7 6 6 7 9 13 14 12 12 13 13 14 14 14 13 13 14 13 13 11 11 11 11 11 11 12 12 11 11 11 10 10 10 9 8 8 8 9 9 9 10 11 11 12
10 9 10 10 10 7 8 11 10 10 9 7 8 7 9 14 14 14 14 14 14 14 15 16 15 14 14 14 15 14 14 13 13 12 12 12 12 12 13 13 12 12 11 10 10 10 11 11 11 12 13 14 15 15
10 10 10 11 9 10 11 10 10 10 9 9 10 11 13 13 17 16 16 15 16 17 18 17 17 16 14 14 14 14 15 14 14 14 15 14 15 14 14 14 14 13 12 12 12 13 13 13 14 14 15 16 17 17
13 12 12 12 11 10 12 12 12 12 11 11 13 14 15 16 19 17 15 15 16 17 17 17 16 15 14 14 15 14 14 14 15 15 16 16 16 17 16 15 14 14 13 13 13 14 14 15 16 16 17 18 19 19

GFSWCAN_con_lsi_021.txt.gz
Lid_Strength_Index
4 4 3 3 3 3 3 3 3 2 2 2 2 2 3 4 3 1 1 -1 2 5 4 3 3 5 5 5 8 6 7 7 7 13 13 12 14 10 10 9 11 12 14 15 13 15 17 6 7 11 8 6 6 6
5 4 3 3 3 3 3 3 3 3 2 2 2 2 3 3 3 3 1 -1 -1 2 4 1 1 1 2 2 3 5 6 6 6 9 10 10 13 12 12 13 6 11 9 11 10 11 5 5 6 4 4 5 6 7
5 5 4 3 3 3 3 3 3 3 2 2 2 2 3 3 3 2 0 -0 0 4 3 3 4 1 0 1 0 5 4 4 5 3 7 9 13 9 14 11 9 7 5 9 9 7 6 6 5 5 5 6 6 7
5 5 5 4 3 3 3 3 3 3 3 3 3 3 2 3 2 2 0 -1 1 3 11 6 1 2 0 0 1 1 2 2 3 3 8 10 12 6 10 8 9 7 7 8 9 7 6 6 6 6 6 6 6 7
5 5 5 5 4 4 5 4 3 3 3 3 3 3 2 2 2 -0 -1 -1 -1 3 9 6 2 2 1 1 2 2 2 3 4 8 10 10 6 7 7 8 9 6 7 10 11 7 7 7 7 6 6 7 7 8
5 5 5 5 5 5 5 5 5 4 4 3 3 2 2 2 2 -0 3 -1 -1 -0 5 10 3 3 2 2 2 3 3 3 4 6 8 6 5 6 12 12 6 5 4 4 6 5 5 6 6 6 7 8 8 8
5 5 5 5 5 5 5 5 5 5 4 4 3 3 3 3 -1 2 3 1 2 -1 6 9 8 4 4 3 3 3 3 4 5 5 8 7 6 6 11 12 6 5 5 5 5 6 8 7 7 7 8 7 7 7
5 5 6 6 6 5 5 5 5 5 5 4 4 4 4 4 3 1 -0 1 1 2 3 9 9 7 4 6 7 4 6 5 5 6 8 8 7 8 12 7 6 6 6 7 7 6 6 6 7 7 7 8 9 8
5 5 6 6 6 6 5 5 5 5 5 4 4 4 3 2 3 2 4 2 -2 2 7 10 11 12 5 7 7 7 5 10 7 10 10 8 10 12 8 7 7 7 7 7 7 7 8 9 9 9 9 9 9 8
4 5 5 5 6 6 6 6 5 5 4 4 4 6 10 8 5 4 2 4 4 3 4 9 6 10 5 8 9 9 8 10 12 9 9 12 12 9 7 7 6 6 7 7 8 9 9 10 10 9 9 8 8 8
3 3 4 4 5 5 5 6 5 5 5 7 10 11 7 5 6 8 11 9 10 12 11 9 8 9 5 9 11 9 11 11 12 11 11 12 12 9 7 7 7 7 7 7 8 9 9 9 9 9 8 7 7 7
2 2 3 3 4 4 5 5 5 5 6 7 7 7 7 10 11 11 12 12 13 12 12 13 11 9 10 8 12 13 13 12 14 10 13 14 10 8 8 8 8 8 8 9 9 9 9 9 8 8 8 7 7 7
2 2 2 2 3 3 3 5 6 6 5 7 11 13 12 13 14 14 14 13 13 13 12 13 13 12 12 11 13 12 13 13 10 14 14 10 9 8 8 8 8 8 9 10 10 9 8 8 7 8 8 7 7 7
2 2 2 2 2 3 3 4 4 5 6 11 13 14 13 14 13 12 11 11 11 11 11 12 13 12 12 13 12 13 12 11 15 16 14 9 9 8 7 8 8 9 10 10 10 9 8 8 7 7 8 7 8 7
2 2 1 1 2 2 3 4 4 3 5 10 11 14 13 12 12 12 12 11 11 10 9 10 10 10 12 13 12 13 15 15 14 13 10 8 8 8 9 9 9 10 10 10 8 8 8 8 7 7 6 5 5 6
2 1 0 2 2 2 3 3 4 4 6 8 10 13 12 12 13 12 12 12 10 10 10 10 12 13 13 12 14 14 14 15 12 10 8 8 9 9 9 9 9 9 9 8 8 7 7 7 7 6 5 5 6 6
2 1 1 2 3 3 3 4 4 7 7 9 11 9 10 10 11 11 10 10 9 10 12 11 14 14 13 14 15 12 13 11 9 8 8 9 9 9 9 8 8 8 7 7 7 6 6 5 5 5 6 4 4 4
2 0 1 2 1 3 5 5 6 6 9 8 8 10 10 10 10 10 9 8 9 10 10 11 11 13 14 14 12 10 9 8 8 8 8 8 8 7 7 7 6 6 6 6 5 5 5 5 5 4 4 3 3 3
0 0 1 1 1 4 6 6 5 8 8 7 8 8 9 10 10 9 9 9 8 8 9 10 12 13 12 10 9 8 7 7 8 8 7 7 7 7 7 6 6 6 6 5 5 4 4 3 3 3 3 3 3 3
1 1 1 2 1 5 7 6 4 6 7 7 6 7 7 9 9 9 9 8 7 8 10 11 10 9 8 8 7 7 7 6 7 7 7 6 6 6 5 5 5 5 4 4 3 4 3 3 2 2 2 2 3 4
3 3 3 3 5 4 5 7 7 7 7 7 6 6 9 8 9 9 9 7 8 8 8 7 5 5 5 5 5 5 5 6 7 6 6 7 5 4 4 4 3 3 3 3 3 3 3 3 2 1 3 3 3 3
4 4 6 4 6 6 6 6 6 6 6 7 7 6 9 9 9 9 8 9 8 6 5 5 5 5 5 6 5 5 5 5 5 5 6 5 5 4 4 3 3 3 3 3 3 3 3 2 1 1 3 4 3 3
4 5 7 6 8 7 9 5 8 8 9 9 8 9 9 9 8 7 9 7 6 4 4 4 4 4 4 4 4 4 4 4 4 4 3 3 3 2 2 2 2 3 3 2 1 2 2 2 2 3 3 4 4 4
5 7 9 9 7 10 8 9 7 8 8 9 9 10 10 8 9 9 10 7 5 4 5 5 4 4 4 5 4 4 4 3 3 3 2 2 3 3 2 2 2 1 2 2 2 3 3 4 4 4 4 4 4 5
8 10 9 11 10 10 10 10 10 9 11 10 11 11 10 9 10 10 10 6 5 5 5 4 4 4 4 4 4 3 2 3 3 4 2 1 2 2 2 2 2 2 2 4 5 5 4 4 4 4 5 5 6 6
12 11 11 11 11 11 11 12 11 11 10 11 10 9 9 9 11 11 8 6 6 6 7 6 5 5 4 4 4 4 4 3 3 4 3 2 3 4 5 6 5 3 1 3 4 5 5 5 5 5 5 5 6 6
12 11 10 9 9 10 10 10 9 10 11 11 9 10 10 12 11 8 7 9 8 8 7 6 7 7 7 7 6 7 6 6 7 7 7 6 5 5 6 7 6 4 4 4 4 5 5 5 5 5 6 5 5 6
9 9 12 10 9 8 10 10 10 10 9 7 8 11 11 10 9 9 10 9 9 8 7 7 7 8 8 9 8 8 9 8 8 7 6 4 5 9 9 8 6 6 5 5 5 5 5 5 6 6 6 6 6 6
9 8 8 12 10 9 9 9 8 7 6 7 8 8 8 10 11 11 11 10 9 9 10 10 10 9 9 9 9 9 10 11 12 13 13 12 12 11 10 10 9 8 7 7 7 6 6 7 7 7 8 7 8 8
10 8 9 11 11 10 7 6 7 6 5 5 5 7 9 12 12 11 10 10 11 12 11 11 11 11 12 12 12 11 10 12 13 14 15 15 14 12 11 11 11 10 10 9 8 7 7 7 7 7 8 9 10 10
8 8 9 8 9 7 7 7 7 7 6 6 6 6 10 12 13 12 12 12 12 12 12 13 13 12 13 13 14 14 14 12 13 14 14 14 13 13 13 13 12 11 11 10 9 9 9 9 8 9 10 11 12 12
8 9 9 10 8 7 7 7 7 7 6 7 7 8 10 11 13 14 13 13 13 14 15 14 15 15 14 13 13 13 14 14 13 14 14 15 15 14 14 14 13 13 12 12 10 10 10 10 10 11 11 13 14 14
9 9 9 9 9 9 8 9 9 9 8 9 10 10 12 11 15 14 12 13 14 15 15 15 14 14 13 14 13 13 14 14 14 14 14 15 16 15 15 15 15 16 14 12 11 11 12 12 13 13 14 15 16 17

GFSWCAN_con_lsi_024.txt.gz
Lid_Strength_Index
4 3 4 3 3 3 3 3 2 2 2 2 2 3 3 3 4 2 1 -1 2 5 4 3 3 5 5 5 9 6 7 7 9 12 13 13 14 12 11 9 12 13 14 15 13 15 17 6 6 12 8 6 6 6
4 4 4 3 3 3 3 3 3 2 2 2 2 2 3 3 3 4 2 -1 -0 3 4 1 2 1 2 3 4 5 6 7 7 10 11 10 13 12 12 14 7 12 10 12 11 12 7 6 6 5 5 6 7 7
4 4 3 3 3 3 3 3 3 3 2 2 1 2 2 3 2 3 1 0 1 4 4 4 4 1 0 1 0 6 5 4 5 4 7 9 13 10 14 12 9 7 6 10 10 7 6 6 5 5 6 7 6 6
5 4 4 3 3 3 4 4 4 3 3 3 3 3 3 3 3 3 1 -0 1 4 11 6 1 2 0 0 1 1 3 3 3 4 9 11 12 7 11 9 10 8 7 8 9 7 6 6 5 6 6 6 6 6
5 5 5 5 3 3 3 4 4 3 4 3 3 2 2 2 4 0 -0 -0 -0 4 9 6 3 2 1 1 2 2 3 4 5 8 11 10 8 8 8 8 10 7 8 10 11 7 7 7 6 6 6 7 7 8
6 6 6 5 4 3 3 4 3 4 3 3 3 3 3 3 4 1 4 0 -1 0 6 10 3 3 2 2 3 3 3 3 4 7 9 7 4 7 12 12 7 5 5 4 7 5 5 5 6 5 7 7 8 8
6 6 6 5 5 4 4 4 4 4 4 3 3 3 3 3 -0 3 4 2 3 -0 6 9 8 4 3 3 3 4 3 4 5 6 8 7 7 6 11 12 6 5 4 4 4 5 7 7 7 6 7 7 7 8
6 6 6 6 6 5 5 4 4 4 4 4 3 3 3 4 3 2 0 1 2 2 4 10 10 7 3 7 8 4 6 5 6 7 8 8 7 8 12 8 6 5 4 6 6 5 6 6 7 7 7 8 9 9
6 6 6 6 5 5 5 5 5 5 5 5 5 4 1 1 3 2 3 3 -1 3 8 11 11 12 4 7 7 6 5 10 6 10 10 8 10 12 8 7 6 5 6 7 7 7 7 8 8 9 9 9 10 10
6 6 6 6 5 5 5 5 5 5 5 5 4 6 10 8 4 4 2 4 4 4 5 9 6 10 6 8 10 9 9 10 12 9 9 12 12 7 6 5 5 6 6 7 8 9 9 10 10 10 10 9 9 9
5 5 5 5 5 5 5 5 5 5 5 6 10 11 7 5 5 6 9 9 9 11 10 8 7 9 5 9 10 8 11 10 13 10 11 12 12 9 6 7 6 6 7 7 7 8 9 10 10 10 9 8 9 9
4 4 4 5 5 5 5 5 5 6 6 7 8 7 8 9 12 10 12 13 13 12 12 12 11 8 9 6 10 11 12 12 13 9 12 13 10 7 8 8 8 7 7 9 9 9 9 9 9 9 9 9 9 9
3 3 3 3 4 4 5 5 6 6 6 8 10 12 11 13 14 14 15 14 14 13 13 13 13 12 11 10 13 13 14 13 11 13 15 11 9 8 8 8 8 8 10 10 10 9 9 9 9 9 10 9 10 8
2 2 2 3 3 3 4 5 5 4 6 11 13 14 13 14 13 13 13 13 12 12 12 12 13 12 13 13 13 14 13 12 15 15 14 9 9 8 8 8 8 10 13 11 10 9 10 9 9 10 10 9 10 9
2 1 1 1 2 3 3 4 4 2 5 10 11 14 13 12 12 12 12 12 12 11 12 12 12 12 13 13 13 13 15 15 14 14 12 9 8 9 9 9 10 10 12 11 9 10 11 10 10 9 8 7 7 8
2 2 1 1 2 2 3 3 3 3 5 8 10 11 11 12 12 13 13 13 11 11 10 10 12 13 13 13 14 14 14 15 12 10 8 9 10 10 10 10 10 10 9 9 9 9 9 9 10 8 7 7 7 7
2 2 2 2 2 3 2 3 4 7 7 9 10 8 9 10 10 11 10 10 9 11 13 12 13 14 12 14 14 12 13 11 9 8 9 9 9 9 9 9 10 9 8 8 8 8 7 7 7 7 7 6 5 5
2 1 2 2 1 3 4 4 6 6 9 7 8 8 8 8 9 9 8 8 9 10 10 12 10 13 13 14 12 10 9 8 8 8 8 8 8 8 8 8 7 7 7 7 8 7 7 7 6 5 4 4 4 4
2 1 2 2 2 5 7 7 4 8 8 7 8 7 8 8 7 7 8 8 7 8 9 10 12 12 11 9 9 8 8 7 8 8 8 8 8 8 7 7 7 7 6 6 6 5 5 4 4 3 3 3 3 3
2 2 2 3 2 5 7 6 4 6 7 7 6 7 8 8 8 8 8 7 7 7 9 10 10 8 8 7 7 7 7 6 7 8 7 6 5 6 6 5 5 5 5 4 4 5 4 3 2 2 2 3 3 3
3 3 3 3 5 5 5 6 6 5 6 7 6 6 9 8 8 8 8 6 8 8 9 6 5 5 4 4 4 4 5 5 6 5 6 6 5 4 5 4 4 4 4 4 4 4 4 3 2 2 3 4 4 4
4 3 5 5 6 6 6 5 5 5 6 7 7 6 9 9 10 9 8 8 8 7 6 5 4 4 4 4 4 4 4 4 4 4 6 5 5 4 4 3 3 4 3 3 3 4 3 3 3 3 4 4 4 4
4 5 6 7 8 7 9 5 8 7 9 9 7 9 9 9 9 8 9 7 6 4 4 4 4 3 4 3 4 4 3 4 4 4 4 3 3 2 3 3 3 4 4 3 3 3 4 4 4 5 5 5 4 4
4 6 7 8 7 10 7 9 7 8 7 8 9 10 9 9 9 9 10 7 5 4 5 5 4 5 4 4 5 4 4 3 3 3 3 3 4 3 3 3 3 3 3 3 4 4 4 5 4 4 4 5 5 5
7 9 8 10 8 10 10 10 10 9 11 9 10 10 10 9 10 10 10 7 7 7 7 5 4 4 5 4 4 4 4 5 6 6 4 4 4 4 5 4 4 3 3 5 5 5 5 5 4 4 5 5 6 5
10 9 9 9 10 10 10 11 10 10 10 10 10 9 8 9 11 11 8 8 9 9 9 8 8 6 6 6 7 7 8 6 7 8 7 7 7 8 8 8 8 7 8 7 7 7 7 5 4 4 5 5 5 6
11 11 9 8 8 9 10 9 9 10 11 11 10 10 10 12 11 9 9 10 9 9 8 8 8 8 9 8 8 8 7 8 9 9 8 7 8 9 10 11 11 10 8 8 8 8 8 7 6 5 5 5 5 5
9 9 11 9 9 8 11 10 11 11 10 7 8 11 11 10 10 10 11 10 9 9 8 8 9 9 9 9 9 9 9 9 9 9 8 7 8 9 10 10 10 10 10 10 10 9 8 7 7 7 7 7 6 6
10 8 9 12 10 9 9 9 8 7 6 6 8 9 9 11 11 11 11 10 9 9 10 11 10 9 9 9 9 9 10 12 14 15 15 15 14 13 12 12 12 12 11 11 10 9 9 8 7 7 8 7 7 7
10 8 9 10 10 9 8 6 7 7 5 6 5 8 10 12 12 11 11 11 11 12 11 11 11 11 12 12 12 12 10 12 13 15 17 17 16 14 14 14 14 13 13 12 12 11 9 9 9 7 8 9 10 10
8 8 9 8 9 8 8 8 7 7 7 6 7 8 12 14 13 12 12 11 11 11 12 13 12 12 13 14 14 14 15 13 13 13 14 14 15 15 15 15 15 14 14 14 13 12 11 11 10 10 11 12 12 13
8 9 9 10 9 8 7 8 8 8 7 8 8 9 10 11 13 13 13 12 12 13 14 14 14 14 13 13 13 12 13 13 13 14 14 14 15 15 15 16 15 15 16 16 15 13 12 12 12 13 13 14 15 15
9 9 9 9 9 9 8 8 9 9 8 8 9 10 11 12 14 14 12 12 13 14 15 14 14 13 13 14 14 13 14 14 14 13 13 14 15 16 16 16 16 16 18 17 16 13 14 14 14 15 15 16 17 18

GFSWCAN_con_lsi_027.txt.gz
Lid_Strength_Index
4 4 3 3 4 4 4 3 3 2 2 2 2 3 3 3 5 2 2 2 3 7 6 4 4 7 7 7 11 8 9 9 12 13 14 14 15 14 13 11 13 15 17 17 15 16 19 7 8 12 10 8 8 8
4 4 4 3 4 4 3 3 3 3 3 2 2 3 3 3 4 4 3 1 1 4 6 3 3 3 3 4 6 6 8 8 8 11 13 13 14 13 14 16 9 14 12 14 13 14 9 7 8 6 6 8 8 9
4 4 3 3 4 4 3 3 3 3 3 2 3 4 3 3 4 4 2 2 3 7 5 5 6 3 2 3 2 7 8 5 7 5 10 10 14 12 16 14 13 10 7 12 11 9 8 7 6 6 7 7 7 7
4 4 4 3 3 4 4 4 4 3 4 4 4 4 3 4 5 3 2 2 3 5 12 8 3 4 2 2 2 3 4 4 5 8 12 11 14 8 13 11 13 9 8 10 11 9 8 6 6 7 7 6 7 7
5 5 5 4 4 3 4 4 4 4 4 4 3 3 3 4 5 2 1 1 2 5 9 11 4 3 2 3 3 3 4 5 8 11 13 12 12 11 14 13 13 8 9 12 14 8 8 8 7 6 7 7 8 9
5 5 5 4 4 4 4 4 5 5 4 4 3 3 3 3 4 2 5 2 2 2 7 11 5 5 3 3 4 4 4 5 6 9 12 9 6 9 12 13 8 6 5 6 8 6 6 6 6 5 6 8 9 9
5 5 5 5 4 4 3 4 5 5 4 4 3 3 3 4 3 4 5 4 5 3 8 11 9 5 5 4 6 5 6 7 7 9 11 11 10 9 12 13 8 6 6 6 5 6 8 7 8 7 8 9 9 10
6 5 5 5 5 5 4 3 4 4 4 4 3 3 3 4 3 4 3 3 4 4 6 11 11 11 5 11 10 7 10 7 7 8 10 11 10 11 12 8 7 6 6 6 5 5 6 6 7 8 10 10 11 11
6 6 5 5 5 5 5 4 4 3 3 3 3 2 1 3 5 4 4 4 1 4 10 12 13 14 7 9 10 10 7 12 8 12 11 10 12 12 9 8 7 6 7 8 7 6 6 7 10 11 11 11 12 12
6 6 6 6 6 5 5 4 4 4 4 3 3 4 9 7 4 3 3 7 7 7 7 12 10 11 8 11 11 11 11 12 12 11 9 12 12 9 7 6 7 6 6 7 9 10 10 11 11 12 11 11 11 12
5 6 6 6 5 5 5 5 5 4 4 6 9 11 8 5 6 9 11 10 10 12 11 10 10 10 8 11 12 11 12 12 13 14 12 13 14 11 8 8 8 8 8 9 9 10 10 11 12 12 11 12 12 12
5 5 6 6 6 6 5 5 5 6 7 7 8 7 8 10 11 12 13 13 12 13 12 12 12 10 12 8 12 12 13 13 14 11 13 15 13 9 9 9 8 8 9 10 10 10 11 10 11 12 12 12 12 12
5 5 5 5 6 6 6 6 6 6 6 8 10 12 11 13 14 14 15 14 14 14 13 13 13 13 12 11 13 13 14 14 12 14 16 15 9 9 9 11 11 11 12 12 11 11 11 11 11 12 13 12 14 12
4 4 5 5 5 6 6 6 6 6 8 12 13 14 13 14 14 14 14 13 13 13 13 13 13 13 13 13 13 14 14 14 15 18 19 12 10 9 9 10 12 13 14 13 13 12 12 13 12 13 13 13 15 12
2 2 3 4 5 5 6 6 5 5 8 12 12 14 14 13 13 13 13 13 13 12 12 13 13 13 14 14 14 14 15 16 15 15 13 12 11 11 12 11 12 13 14 13 12 12 14 14 13 11 11 10 10 11
2 1 2 2 3 4 4 5 6 6 11 10 11 12 12 12 13 13 13 13 12 12 12 12 13 13 14 14 15 15 15 16 14 13 12 12 12 11 11 12 12 11 11 11 11 11 11 13 13 10 10 10 10 10
2 3 2 2 3 2 3 5 7 9 11 10 11 9 10 10 11 11 11 11 10 12 13 13 14 15 13 15 15 13 14 13 12 12 12 11 11 11 11 10 11 10 10 10 10 10 10 9 11 10 10 7 7 7
3 2 2 2 2 3 5 5 9 10 11 9 10 9 9 9 10 10 10 9 10 12 12 13 13 15 15 16 14 12 12 12 11 11 11 10 10 10 9 10 9 10 10 10 10 9 9 11 9 8 7 6 7 7
3 2 2 2 3 6 8 8 7 11 10 11 9 9 9 9 9 9 9 9 8 9 10 12 13 14 14 12 12 11 12 12 12 11 10 10 10 10 9 9 9 9 8 8 8 9 8 7 7 7 7 7 7 7
3 3 3 3 3 7 9 9 7 10 10 10 9 9 9 10 9 9 9 8 8 9 13 14 13 12 12 11 10 10 10 10 10 11 11 9 9 8 8 8 8 7 8 7 7 9 8 7 7 7 7 9 10 9
3 4 4 4 7 6 8 8 9 9 10 9 9 9 10 9 9 9 9 8 8 12 11 11 11 9 8 9 9 9 8 8 9 10 10 10 8 8 8 7 7 8 8 8 9 8 9 8 6 7 10 7 5 5
5 4 7 6 8 8 9 8 8 10 8 10 8 8 10 11 10 10 9 10 11 11 9 10 9 9 8 7 7 7 7 7 7 8 9 9 9 9 9 8 9 9 8 8 7 6 6 6 6 9 6 6 5 6
5 5 7 8 9 8 11 8 10 8 12 10 9 12 10 10 10 10 11 10 10 8 8 8 7 7 7 7 7 7 7 7 8 8 7 8 8 8 7 7 8 8 7 7 7 6 6 6 8 10 10 6 6 8
4 7 10 8 8 10 8 9 8 9 9 10 10 14 11 10 12 13 15 13 10 9 8 8 8 9 8 7 9 9 8 8 8 8 8 8 9 8 8 8 8 8 7 7 7 7 7 6 6 8 6 7 10 10
8 9 8 10 9 10 11 11 10 13 15 12 14 16 14 13 16 16 16 10 10 10 9 9 9 8 9 10 10 10 9 10 11 11 10 10 11 11 10 9 9 9 10 10 10 10 10 8 7 7 8 9 10 9
10 9 10 10 12 11 11 13 13 15 14 14 13 12 13 15 17 18 12 12 11 11 10 10 11 11 10 10 11 12 11 10 11 13 11 10 10 12 13 14 14 13 12 11 12 12 12 11 11 10 8 8 8 8
11 10 9 8 8 9 11 11 10 12 13 15 14 14 15 20 20 13 11 11 11 10 9 9 10 11 12 12 11 10 11 12 13 12 11 9 11 12 13 15 15 14 13 13 13 14 13 12 12 11 11 9 8 8
10 10 14 11 10 9 11 12 12 12 12 11 12 15 17 17 14 12 12 11 10 9 9 10 12 11 12 11 10 14 16 16 15 15 13 11 13 16 15 15 15 14 16 15 15 14 14 13 13 12 11 10 9 9
10 9 10 13 12 12 12 13 12 10 9 10 13 14 13 13 13 12 12 11 11 11 14 14 16 15 15 15 14 14 18 19 19 22 24 23 20 19 16 16 16 17 16 16 15 14 14 14 12 12 11 10 10 13
11 9 12 14 15 13 10 9 9 8 10 10 10 12 13 14 14 14 13 14 15 16 14 15 14 17 20 21 21 19 16 18 21 21 23 24 19 17 18 18 18 18 17 17 18 18 15 14 12 12 12 13 13 14
9 9 9 10 10 9 9 9 8 8 8 8 8 11 15 17 16 16 16 14 14 19 19 19 19 20 21 21 20 21 21 22 21 18 19 21 20 21 22 19 19 18 17 19 20 20 19 16 14 14 15 15 15 16
9 10 10 12 11 9 8 9 9 9 11 10 12 13 16 18 20 18 19 17 16 20 20 21 22 21 22 19 21 22 16 20 22 22 20 19 20 21 20 20 19 18 18 24 20 19 19 17 16 17 17 18 18 18
10 11 12 15 15 14 12 15 15 16 16 16 15 14 17 19 21 19 17 18 20 22 22 22 22 22 18 20 23 21 22 23 21 16 17 16 18 20 22 20 18 18 21 22 21 19 19 19 20 19 20 20 20 20

GFSWCAN_con_lsi_030.txt.gz
Lid_Strength_Index
3 4 3 4 4 5 4 3 3 2 3 3 4 4 4 5 4 3 4 3 4 8 6 5 5 7 7 8 12 8 10 10 12 15 17 14 18 15 15 12 14 15 17 18 19 22 20 9 9 12 11 9 9 9
3 4 4 4 5 5 4 3 3 3 2 3 4 5 4 5 5 3 5 2 3 5 6 4 4 4 4 5 6 8 9 8 9 12 13 12 17 14 15 16 10 14 13 15 13 14 10 8 9 8 7 9 9 9
3 4 4 4 4 4 3 3 3 3 2 4 4 4 5 5 5 2 3 3 4 8 6 6 6 4 3 4 4 8 9 5 7 8 11 14 17 13 16 14 13 10 8 13 12 9 9 8 8 8 8 9 7 7
4 4 4 4 4 4 4 4 4 4 4 4 4 4 6 5 4 2 3 3 4 7 12 8 4 5 3 3 3 4 5 5 7 9 12 12 15 10 15 13 14 11 9 10 12 9 8 8 8 8 8 7 6 6
4 4 4 4 4 4 4 4 5 4 4 4 4 3 5 5 4 2 3 4 4 5 10 11 5 4 3 3 3 4 5 6 10 12 14 13 14 12 13 14 13 8 9 12 13 9 9 9 8 7 7 6 6 9
5 5 5 4 4 4 4 5 5 5 4 4 3 3 4 5 4 4 5 3 4 4 9 12 6 5 5 4 4 4 5 6 8 11 13 10 7 11 13 13 9 7 6 7 8 6 7 7 7 5 6 7 8 10
5 5 5 4 4 4 5 5 5 5 4 4 3 4 4 4 4 5 6 4 5 4 9 11 11 7 6 6 7 7 7 8 8 11 11 12 12 9 12 13 9 7 6 6 6 6 8 8 8 6 8 9 10 11
5 5 5 5 4 4 4 5 5 4 4 3 3 3 4 4 4 4 4 5 5 6 9 13 14 11 7 11 12 8 11 9 8 9 10 11 11 12 12 9 8 6 6 6 6 7 7 6 7 9 10 10 11 12
6 6 5 5 5 5 4 4 3 4 4 3 3 3 4 5 6 4 4 5 3 6 12 13 14 14 8 10 11 11 9 12 10 12 11 11 12 13 10 8 7 7 7 7 7 6 7 8 10 11 11 11 12 12
6 6 6 5 5 5 5 4 4 3 3 4 4 6 9 7 4 4 5 8 9 8 10 12 10 12 8 12 12 11 12 12 12 12 9 12 12 10 8 7 8 8 7 7 8 10 11 12 12 11 12 12 12 12
5 5 6 5 5 5 5 5 4 4 3 5 8 10 6 4 6 9 10 12 10 11 10 10 11 11 9 12 12 12 13 13 14 15 13 14 14 12 9 9 9 9 9 9 9 10 10 10 11 11 12 12 12 13
5 5 6 5 5 5 5 5 5 6 6 6 7 6 7 9 11 11 12 12 12 13 13 12 12 10 11 9 12 12 13 13 15 12 13 15 13 10 11 10 10 10 10 10 10 10 10 11 11 12 13 13 13 12
5 5 5 6 6 6 6 6 6 6 6 7 9 12 11 13 13 13 14 14 14 13 13 13 13 13 12 11 13 13 14 14 13 14 15 15 10 11 12 12 12 11 11 11 11 11 11 11 12 13 13 12 14 12
6 5 5 6 6 6 6 6 6 6 8 11 12 14 14 15 14 14 14 13 13 13 13 13 13 13 13 13 13 14 14 14 15 20 20 13 10 10 11 12 12 13 14 13 13 12 12 13 13 13 15 14 16 13
5 5 6 6 6 6 6 6 6 7 10 12 14 15 15 14 13 13 13 13 13 12 13 13 13 13 14 14 14 15 16 16 16 16 14 13 12 12 12 12 12 13 14 13 12 13 14 14 14 12 12 12 11 13
4 5 6 6 6 6 6 7 8 10 13 13 13 15 14 14 13 13 13 13 12 12 12 12 13 14 16 14 15 15 15 17 15 13 12 11 11 10 10 11 12 11 11 11 11 11 11 14 15 11 10 11 12 11
3 5 3 4 4 5 5 8 11 11 13 12 13 11 12 12 12 12 12 12 10 12 13 13 16 17 14 16 17 14 15 13 12 11 10 11 11 11 11 10 11 10 10 11 10 11 10 10 12 12 11 8 8 7
4 4 2 2 3 4 6 8 11 12 12 11 12 11 11 11 11 11 10 10 11 12 11 13 13 15 15 16 14 11 12 12 11 11 11 10 10 10 9 10 9 10 10 10 11 9 9 11 9 8 7 7 7 8
3 3 2 2 3 8 9 9 8 12 10 10 10 10 10 10 10 9 9 9 11 11 12 13 15 15 15 13 14 11 11 12 11 11 10 10 10 10 9 9 9 9 9 8 8 8 8 7 7 7 8 8 9 9
3 3 3 3 3 9 10 11 9 11 11 11 9 10 10 11 10 9 9 9 10 12 14 15 14 13 13 12 11 11 11 11 11 12 11 10 9 8 8 8 9 8 8 7 8 10 8 8 7 7 7 8 7 6
5 4 5 6 7 7 9 10 10 10 9 10 10 10 11 10 10 10 10 9 12 14 13 11 12 10 9 10 10 11 9 9 10 11 11 11 10 10 9 8 8 9 9 9 10 9 10 9 7 6 8 7 6 6
5 4 7 6 9 9 9 10 10 11 9 10 10 10 11 12 11 10 10 10 13 12 10 11 10 10 9 8 9 9 8 8 8 9 10 10 10 9 9 9 9 11 11 11 9 8 8 7 7 7 6 6 6 6
5 6 8 8 13 11 13 8 12 11 15 11 10 11 11 11 10 9 11 10 12 9 10 9 8 8 9 9 9 10 9 9 10 10 10 10 10 11 12 11 11 12 11 10 9 9 9 10 9 9 8 7 6 6
5 8 10 11 11 17 11 13 10 11 14 12 11 13 11 11 11 13 16 13 9 10 10 10 10 10 10 10 11 11 11 11 11 11 11 12 12 11 11 11 11 12 12 11 12 13 12 12 12 11 10 10 9 8
11 14 13 14 14 16 15 15 12 14 16 11 12 15 16 14 18 19 18 11 11 11 11 12 11 10 11 11 12 12 11 11 13 13 12 12 15 15 14 13 13 13 14 15 15 15 15 15 14 13 12 12 11 10
13 14 11 11 14 13 14 16 14 12 13 12 15 14 16 16 17 19 13 12 12 12 12 12 13 13 13 12 13 13 13 12 13 14 12 12 14 17 19 18 17 17 15 16 16 17 17 16 16 16 15 13 12 11
14 15 9 7 8 9 12 12 10 11 13 16 13 16 15 17 22 14 12 12 12 11 11 11 12 13 13 12 13 14 15 15 16 15 13 14 15 15 17 18 19 17 16 18 18 18 18 18 17 16 16 14 13 12
11 11 14 12 9 9 11 11 12 12 12 10 12 14 14 17 17 14 13 12 11 11 12 12 13 13 13 13 15 18 18 19 18 17 14 16 17 19 20 22 21 17 21 21 19 18 19 19 19 17 16 15 13 14
11 9 10 12 11 11 11 11 11 10 9 11 14 15 15 15 16 14 14 13 13 13 15 16 18 18 17 18 19 20 23 22 22 25 28 28 26 23 21 24 24 21 20 20 18 17 18 18 17 17 14 14 16 16
11 10 12 14 13 13 11 10 10 10 10 12 13 14 15 16 15 14 15 16 17 17 17 17 21 21 27 25 26 22 20 23 25 24 26 27 23 21 23 23 21 20 20 20 20 20 19 19 19 16 16 16 17 18
10 10 11 11 12 11 10 9 9 9 9 9 12 17 18 19 19 18 17 18 19 20 21 22 22 27 25 25 26 27 25 23 25 23 24 23 24 26 25 24 23 23 21 20 22 23 21 21 20 19 20 21 21 20
10 11 11 12 14 10 9 10 10 10 10 10 14 16 21 22 25 21 19 20 22 23 26 28 26 24 23 23 25 26 25 26 26 26 23 22 23 25 25 24 24 23 22 26 26 25 21 22 23 23 23 23 22 22
14 20 18 22 18 16 17 20 21 19 19 15 16 18 21 21 23 21 19 23 23 25 26 26 27 26 23 25 26 27 26 27 26 21 20 18 22 23 26 27 27 30 30 29 27 26 25 27 29 26 25 24 24 23

GFSWCAN_con_lsi_033.txt.gz
Lid_Strength_Index
3 3 3 4 5 4 3 3 4 4 3 4 5 5 5 4 3 3 4 4 5 9 7 6 5 7 8 9 12 9 10 11 15 17 18 17 20 15 15 13 14 15 17 17 19 21 19 10 10 12 11 10 8 9
3 4 4 5 4 4 3 3 4 4 6 5 5 5 6 5 4 4 5 2 3 5 6 5 5 5 5 7 8 9 9 10 11 14 16 14 18 14 16 17 12 16 14 15 14 14 11 10 10 9 8 9 9 9
4 4 5 5 5 4 3 4 4 5 5 5 5 6 6 5 3 3 4 4 5 8 7 7 7 4 4 4 4 9 10 7 8 9 11 14 17 15 16 15 15 11 10 14 13 11 10 9 8 8 8 9 8 8
4 4 4 5 4 4 4 4 4 5 4 4 5 5 5 4 3 3 4 4 5 8 12 9 5 6 4 4 4 5 6 7 8 10 13 14 17 12 16 14 14 11 10 11 13 10 9 8 8 8 8 7 7 7
4 4 5 5 4 4 5 5 4 4 4 3 4 5 4 4 3 3 4 4 4 6 10 12 6 6 6 4 5 5 6 8 10 12 13 13 14 13 13 13 13 9 10 13 13 9 9 9 8 8 8 8 7 9
5 5 4 5 5 5 5 5 5 4 4 3 4 5 5 4 4 3 6 4 3 5 9 12 7 6 5 5 5 6 6 7 9 11 13 11 9 11 13 13 9 7 7 8 9 8 8 8 8 7 7 6 8 10
5 5 4 5 5 5 5 5 5 4 4 4 4 4 4 5 4 5 7 5 5 5 9 11 12 8 7 7 8 7 8 8 8 10 13 11 12 9 13 14 9 8 7 7 6 7 9 8 8 6 7 9 10 11
5 5 5 5 5 5 5 5 5 4 4 4 4 5 4 4 4 5 5 5 5 7 10 13 14 12 8 12 11 8 12 10 10 10 11 12 11 12 12 10 8 7 7 7 7 7 7 7 9 10 10 11 12 12
5 6 6 5 5 6 5 5 4 4 4 4 4 4 4 5 7 6 5 5 5 7 12 14 14 14 9 10 11 10 9 12 10 12 11 11 13 13 10 9 8 8 8 7 7 7 8 10 11 11 11 11 12 13
5 5 5 6 6 5 5 5 4 4 4 4 4 7 10 7 5 5 6 9 10 11 10 13 11 12 9 12 12 13 12 13 15 12 9 13 12 10 9 9 8 8 8 8 10 12 11 12 12 11 11 11 12 12
5 5 5 5 5 5 5 4 3 4 4 7 9 10 7 5 7 9 12 13 10 11 11 11 11 10 9 11 13 12 13 13 14 15 13 15 14 13 12 12 11 10 10 10 10 10 10 11 12 11 12 12 12 13
5 5 5 5 5 5 5 5 5 5 7 6 7 6 8 10 11 11 12 11 12 12 12 11 11 10 11 11 12 12 13 13 16 12 13 15 14 12 12 12 11 10 10 10 9 10 10 10 10 12 13 13 12 12
5 6 6 6 5 5 5 5 5 5 6 7 9 11 10 12 12 12 13 13 13 12 11 13 13 13 12 11 13 13 13 14 13 14 15 14 13 11 11 11 10 10 10 11 10 10 11 12 12 12 12 12 13 12
6 6 6 6 6 6 5 5 5 6 7 11 11 13 12 14 14 14 13 13 13 13 13 13 13 13 13 13 13 14 14 14 15 18 20 13 11 11 12 13 13 14 15 13 13 12 12 13 12 14 14 14 15 13
6 6 6 6 6 6 6 6 5 6 10 12 12 15 15 13 13 13 13 13 13 12 13 13 13 12 13 14 14 15 17 19 18 18 14 13 12 12 12 11 13 13 14 13 12 12 14 14 13 12 12 12 11 14
6 6 7 6 6 6 6 7 9 9 13 12 13 14 14 14 14 13 13 13 12 12 12 12 13 14 15 14 16 16 17 20 19 14 12 12 12 11 10 10 12 11 12 11 11 11 11 13 13 10 11 12 13 13
6 8 6 6 6 7 7 10 12 13 15 13 13 12 13 14 13 13 13 13 11 12 14 14 19 17 14 16 16 14 16 14 12 11 10 10 10 10 10 11 11 11 10 10 10 10 10 11 13 12 11 8 8 8
6 6 4 4 6 8 10 11 13 14 14 13 13 13 13 13 13 12 12 12 13 13 13 15 14 18 18 17 16 13 12 11 11 11 10 9 9 10 10 10 9 10 10 10 11 9 9 11 9 9 8 8 8 8
4 4 3 3 5 9 11 10 10 13 12 11 11 11 11 12 11 11 11 11 14 14 14 16 18 18 16 14 14 10 11 12 11 11 10 10 10 10 10 9 9 9 9 8 8 9 9 8 9 8 8 8 8 8
3 3 4 4 4 10 11 12 9 11 11 10 10 11 11 11 10 9 9 10 11 12 15 16 15 14 13 12 12 12 12 11 11 12 12 11 10 9 10 10 10 9 9 9 9 11 9 8 8 8 8 8 8 8
5 6 5 6 7 8 11 10 10 10 10 10 10 10 12 10 11 11 10 10 15 15 14 12 14 12 11 11 11 11 10 9 11 12 12 12 11 10 10 10 10 10 11 12 11 10 9 10 9 10 10 9 8 7
6 5 7 7 9 9 11 10 10 10 10 10 11 10 12 12 12 11 10 11 13 13 12 13 11 11 10 10 11 10 9 9 10 11 11 11 12 12 12 11 12 12 12 12 11 12 12 11 12 12 12 11 10 9
6 8 8 9 15 12 15 8 11 11 12 11 11 13 13 12 11 10 12 10 11 11 11 10 10 9 10 11 11 11 11 11 12 12 12 12 12 13 12 12 14 16 16 14 13 14 15 15 15 15 14 13 12 12
7 12 10 11 11 16 13 15 12 12 13 14 12 14 13 12 11 12 13 12 10 10 11 10 10 11 11 11 13 13 13 12 12 13 13 13 13 14 14 14 15 16 16 16 16 17 17 18 18 16 16 16 16 15
12 14 14 15 14 17 19 21 18 16 18 18 17 16 15 14 15 15 17 12 11 11 12 12 11 10 12 13 13 13 13 13 13 14 14 15 18 17 16 15 16 16 17 19 20 20 19 19 19 18 18 18 18 16
15 16 17 17 16 15 18 20 18 17 16 14 14 13 14 15 15 19 13 12 12 12 12 12 12 13 13 12 13 15 15 14 14 15 15 16 17 21 23 22 21 20 18 23 21 21 21 20 21 21 20 19 18 17
17 18 13 8 9 9 10 13 11 11 13 13 16 15 13 16 16 15 12 13 12 12 12 12 12 12 13 15 16 16 17 17 18 15 15 16 17 17 22 25 24 20 18 20 23 23 22 22 22 22 21 20 18 17
11 13 14 13 9 9 11 11 11 12 11 10 11 13 14 16 17 15 13 12 13 12 14 14 14 14 15 16 18 19 18 19 16 17 17 19 20 23 23 24 23 18 23 25 26 23 24 22 21 21 20 19 18 17
10 9 9 11 11 11 11 11 11 10 9 10 12 14 16 16 17 16 15 14 14 15 17 18 18 18 18 18 20 21 24 25 24 27 29 30 29 25 23 27 28 27 27 27 22 19 19 19 19 19 17 16 18 20
11 10 13 14 13 14 12 11 11 10 11 12 13 15 16 18 17 16 17 17 18 19 21 21 22 22 27 27 28 25 25 27 27 26 28 29 25 23 29 28 26 27 27 28 26 23 22 25 24 25 24 25 24 23
12 11 11 12 13 12 11 10 9 9 9 12 14 17 19 20 19 18 18 20 20 21 22 26 26 30 28 28 29 29 27 28 29 27 26 26 27 29 29 27 28 30 29 27 29 30 30 29 29 30 29 28 28 27
11 12 12 13 13 12 15 11 11 11 12 12 16 21 23 24 27 22 20 23 24 26 28 31 28 26 26 26 28 29 25 28 29 29 28 26 27 28 29 29 31 31 32 32 32 31 31 32 33 32 33 32 30 29
16 20 17 21 18 17 17 22 22 20 16 15 20 22 24 23 24 21 21 25 25 26 27 28 29 30 28 27 27 28 28 29 29 24 23 23 25 25 29 31 32 33 32 33 34 34 32 32 33 33 33 33 33 32

GFSWCAN_con_lsi_036.txt.gz
Lid_Strength_Index
3 4 4 4 4 3 3 3 3 4 5 5 5 5 4 3 3 2 4 5 6 9 7 6 6 8 9 10 12 10 11 11 15 16 18 18 20 16 15 14 14 15 16 16 19 23 19 11 10 13 11 11 9 10
4 4 4 4 4 3 3 4 4 5 5 5 6 6 5 4 4 2 3 3 4 6 7 5 5 5 6 7 8 10 10 10 11 15 18 17 18 14 16 17 12 16 14 16 15 15 11 11 10 9 9 10 9 9
4 5 5 4 3 4 4 5 5 5 5 6 6 5 4 4 4 3 4 5 6 8 8 7 7 5 4 5 5 10 11 8 10 11 14 15 17 16 17 16 15 12 11 15 13 12 11 10 9 8 8 9 8 8
4 5 4 4 4 4 5 5 5 5 5 6 5 5 5 4 4 4 4 5 7 9 13 10 6 6 5 4 4 6 7 8 9 11 14 15 17 13 16 15 15 12 11 12 13 11 10 8 8 8 8 8 8 7
4 4 4 4 4 5 5 5 5 4 5 5 5 4 4 3 3 3 4 4 4 7 11 13 7 7 6 5 6 6 7 9 11 13 13 14 15 14 13 14 13 10 11 13 14 10 10 10 8 8 8 8 8 10
4 4 4 4 5 5 5 5 5 4 5 6 5 5 4 4 4 5 6 4 3 6 8 13 9 9 8 7 7 7 7 9 10 11 13 12 9 12 13 13 9 8 8 9 10 8 8 8 8 8 8 8 10 10
4 4 4 5 5 5 5 5 5 4 4 4 4 4 4 3 2 6 7 5 4 5 9 11 12 9 8 8 9 8 9 9 9 11 13 12 12 10 13 14 9 8 7 8 7 8 10 9 9 7 9 10 11 12
5 4 5 5 5 5 5 5 4 4 4 4 4 4 4 4 4 5 5 5 5 8 10 13 14 12 8 11 11 8 11 10 9 10 11 12 10 12 13 10 9 8 8 8 7 8 8 9 11 11 11 10 11 12
5 5 6 5 5 5 5 5 4 4 4 4 4 4 4 5 6 6 5 5 5 7 12 15 14 14 9 10 11 10 10 12 10 12 11 11 13 13 12 12 10 9 9 9 8 10 11 12 11 11 10 11 12 12
5 5 6 6 6 6 5 5 4 5 5 5 5 7 11 7 5 6 7 10 11 11 10 13 11 12 9 12 12 13 12 13 16 14 10 13 13 11 12 12 11 11 10 9 12 13 12 12 11 11 11 11 11 12
6 6 5 5 6 5 5 5 5 5 4 7 9 10 7 6 7 11 13 13 11 15 11 11 11 11 10 12 13 13 13 13 14 16 12 14 14 12 12 11 11 11 11 11 11 11 11 11 12 12 12 12 13 13
6 6 6 6 5 5 5 5 5 7 8 7 8 8 9 10 12 12 13 13 13 15 12 11 11 10 11 11 11 12 13 13 15 12 13 15 15 12 11 11 10 10 10 10 10 10 10 10 10 12 13 13 13 12
6 6 6 6 6 6 6 6 6 6 6 8 10 12 11 13 12 13 13 13 13 12 11 12 12 12 11 11 12 12 14 15 13 14 15 14 13 11 10 10 11 11 11 11 10 10 11 12 12 12 12 12 13 11
6 6 6 6 6 5 5 5 5 6 7 12 12 12 13 13 13 13 13 12 12 12 12 12 12 12 13 13 13 13 14 14 15 17 19 13 12 13 13 13 13 14 16 14 13 13 12 13 12 13 14 14 15 13
6 6 6 6 6 6 6 5 6 6 9 12 12 15 15 14 13 13 12 12 12 12 12 13 13 12 13 14 14 15 18 20 19 20 15 13 13 13 12 12 13 14 15 14 12 12 14 14 14 13 12 12 11 14
6 6 7 6 6 6 7 7 8 9 12 12 14 14 13 13 13 13 13 13 11 12 12 12 13 15 15 16 18 19 19 22 19 14 14 12 12 11 10 10 11 11 11 11 11 11 11 13 14 10 11 12 14 14
6 8 7 6 6 7 7 10 11 13 14 13 13 12 13 13 13 13 13 12 11 13 14 14 18 18 15 19 18 16 18 15 12 11 10 10 10 9 9 10 10 10 10 11 10 10 10 11 13 11 10 8 8 9
9 9 6 6 8 9 11 12 14 14 14 14 14 14 13 13 13 13 13 12 12 13 14 16 15 19 20 20 19 16 14 14 12 12 11 9 9 10 10 10 9 10 11 10 11 10 10 10 10 9 9 9 9 9
7 7 7 6 8 12 13 13 13 14 14 13 13 14 13 13 13 13 12 12 14 15 15 17 19 19 17 15 16 12 11 14 12 11 11 10 10 10 10 10 10 10 10 10 10 10 10 9 9 10 11 10 11 10
4 4 5 6 6 12 12 13 12 13 13 12 12 12 13 13 12 11 11 11 12 13 16 17 16 15 15 14 13 12 12 12 12 13 13 12 11 11 11 11 11 11 11 11 11 13 11 12 11 12 13 12 12 12
6 6 5 7 9 9 11 12 11 10 10 11 10 11 12 10 11 11 10 10 14 16 15 14 16 14 12 12 12 12 11 11 12 12 12 11 11 11 12 12 12 12 13 14 14 15 15 15 14 14 15 14 14 13
7 5 10 9 11 13 10 9 10 10 10 11 11 10 12 13 12 12 11 13 13 14 12 13 12 12 11 12 11 11 11 11 11 11 12 13 14 13 14 15 15 17 16 16 16 17 17 16 16 17 17 17 16 15
6 8 9 12 14 14 13 9 12 10 12 12 11 13 13 13 12 11 13 11 11 11 11 11 11 11 11 11 11 12 11 12 13 13 13 13 13 13 14 16 17 19 19 18 17 17 18 20 19 20 19 18 18 18
8 10 11 11 12 14 12 17 13 14 15 14 13 14 14 13 12 13 14 13 11 11 11 10 11 11 11 12 14 14 13 12 14 14 14 14 16 16 15 16 18 19 19 19 20 22 21 23 23 21 21 21 21 20
16 15 16 21 14 20 17 20 17 14 20 20 18 18 15 17 17 16 16 13 13 13 12 10 10 11 12 13 14 14 14 13 14 16 16 16 18 18 18 18 18 18 19 25 24 25 24 24 24 23 23 23 22 21
19 17 17 22 21 19 21 22 22 20 19 18 16 16 17 18 18 18 14 14 13 13 13 13 13 13 14 13 15 16 16 15 14 17 17 18 19 22 24 25 25 23 21 26 28 28 25 24 23 24 24 23 22 21
19 20 15 11 13 14 16 17 16 15 15 13 14 14 13 14 16 15 13 13 13 13 13 13 12 13 15 16 17 17 18 18 17 17 17 17 18 19 24 27 26 22 20 23 28 31 28 25 25 24 23 22 22 21
14 15 17 16 14 12 13 14 14 13 14 9 10 13 14 15 17 15 14 13 14 14 15 15 16 16 18 19 20 21 20 18 18 19 20 20 21 24 25 26 25 20 26 29 31 29 28 26 23 22 22 21 23 25
14 12 12 15 14 12 12 13 11 10 9 9 12 14 16 16 17 16 15 14 15 16 17 18 19 19 19 20 21 22 23 26 26 28 29 31 30 26 25 29 30 29 31 30 25 21 21 23 23 25 28 28 27 28
14 12 14 17 15 14 13 11 13 11 12 13 13 15 16 18 17 16 17 17 19 21 23 23 23 23 28 28 29 26 28 31 29 28 30 31 27 24 30 32 31 30 32 34 32 30 25 30 28 31 30 30 31 32
13 14 16 16 16 15 14 11 11 11 12 15 17 19 19 20 19 18 20 21 21 23 25 28 29 33 30 30 31 30 28 29 31 28 28 29 29 30 30 31 32 34 35 35 36 35 35 34 35 35 34 32 32 33
12 13 16 16 15 15 17 15 16 13 13 14 19 23 24 24 27 22 22 24 26 27 29 33 30 27 29 30 32 32 28 30 29 29 30 28 28 28 30 31 34 35 34 34 35 35 35 35 35 35 36 35 35 33
17 20 19 21 18 17 19 23 23 21 19 19 23 23 25 23 25 22 22 26 26 28 29 30 30 32 30 29 29 30 30 31 31 25 24 23 26 26 31 33 35 34 33 34 35 36 34 34 34 35 35 36 35 36

GFSWCAN_con_lsi_039.txt.gz
Lid_Strength_Index
4 5 4 5 5 4 3 3 4 4 5 5 5 4 3 3 3 2 4 3 4 8 6 4 4 7 8 8 10 8 9 9 12 13 13 14 14 14 13 12 13 13 14 15 17 16 16 10 9 11 8 9 8 8
5 5 5 5 4 3 4 4 5 5 5 5 4 4 3 3 3 3 4 3 4 6 5 4 4 4 4 5 7 9 8 9 9 12 14 15 15 14 14 14 11 13 11 12 12 12 9 9 8 7 8 8 7 7
5 5 4 4 4 4 4 5 5 5 5 5 5 4 3 3 3 3 3 4 4 7 7 6 6 5 4 5 4 8 9 8 9 9 12 13 14 13 14 13 12 11 10 11 11 9 10 9 7 7 6 7 6 6
4 4 4 4 5 5 5 5 5 6 6 5 5 4 3 3 3 3 4 5 6 8 13 8 5 6 5 4 4 5 7 9 9 10 13 13 12 12 13 12 12 10 10 11 11 9 9 8 7 6 6 6 6 6
4 4 4 4 5 5 5 5 5 5 4 5 4 4 4 4 3 3 4 4 5 6 11 11 7 6 6 5 6 6 7 8 9 11 13 12 13 11 12 12 12 9 10 11 11 8 8 8 7 6 6 6 6 8
4 4 5 5 5 5 5 5 6 6 5 5 4 4 4 4 4 4 5 4 5 6 9 13 9 9 8 7 7 7 7 9 9 11 13 11 9 10 13 12 9 8 7 7 8 6 7 6 6 6 7 8 9 10
4 5 5 5 5 5 5 4 5 5 4 4 4 4 4 4 4 7 8 5 6 6 9 11 12 10 9 8 9 9 9 9 9 10 12 11 10 9 12 12 9 8 7 7 6 6 7 8 9 9 10 10 9 10
5 5 5 5 5 5 5 4 5 5 4 4 4 4 4 4 4 5 5 5 5 8 9 12 13 11 8 11 11 8 10 9 9 10 10 11 10 11 12 11 10 9 9 8 8 8 10 10 10 10 10 10 12 12
5 5 5 5 5 5 5 5 5 5 4 5 5 4 5 5 6 5 5 5 5 6 11 13 12 12 7 10 11 9 9 12 10 11 10 9 12 13 13 13 12 11 11 9 10 10 10 10 11 11 11 12 13 13
6 6 6 6 6 5 5 5 5 5 5 5 5 7 10 7 5 5 7 9 9 10 10 13 10 12 8 11 11 11 11 12 13 12 10 12 13 12 11 11 11 10 10 10 12 12 12 12 12 12 12 11 11 11
5 5 6 6 5 5 5 5 5 4 4 6 8 9 6 5 7 10 12 11 11 12 11 11 11 11 10 11 12 12 13 13 14 13 12 13 13 13 11 11 10 10 10 10 10 10 11 11 11 11 12 11 11 11
5 5 5 6 5 6 6 6 5 6 7 7 7 7 8 10 11 12 13 12 13 13 12 12 12 10 11 10 12 12 13 13 15 11 12 14 14 11 11 11 10 10 9 10 9 10 10 10 10 10 11 12 12 11
6 6 6 6 6 6 6 6 6 6 6 7 9 11 10 12 13 15 15 13 13 12 12 12 12 11 10 9 11 11 12 13 11 13 14 14 12 11 11 11 11 11 11 10 10 10 11 12 12 11 11 11 11 10
6 6 6 6 6 6 6 6 6 6 8 12 12 13 15 13 13 13 13 12 13 12 12 12 12 11 12 11 12 12 13 12 14 15 17 13 12 12 11 11 12 13 14 13 12 12 12 12 11 12 13 13 14 11
6 7 7 7 6 6 6 7 7 7 10 12 12 15 15 14 13 13 12 12 12 12 12 12 12 11 13 13 13 14 16 17 17 17 14 13 14 13 13 13 13 12 14 12 11 11 13 13 12 11 10 10 10 11
6 7 8 6 7 7 7 7 8 9 11 12 13 14 13 13 13 13 13 13 11 12 12 12 13 13 15 15 16 17 17 18 16 14 13 12 12 11 10 10 11 11 10 10 10 10 10 11 12 10 10 9 10 10
7 9 7 6 7 7 7 9 10 12 12 13 13 12 12 13 13 13 12 12 11 12 13 14 17 17 15 17 17 15 16 15 13 12 12 11 11 9 9 9 10 10 9 9 9 10 10 10 10 10 11 11 10 10
10 9 7 7 8 9 11 12 13 13 14 13 14 14 13 13 13 13 13 12 12 12 13 14 13 16 17 18 17 15 14 12 11 10 9 8 8 8 9 9 10 9 10 10 11 10 10 11 11 12 12 12 11 11
9 9 8 7 9 12 13 13 13 14 14 14 14 13 13 13 13 13 13 13 14 14 14 16 18 17 16 15 14 13 11 11 10 11 11 10 10 10 10 10 10 11 11 11 11 12 11 11 12 13 13 13 13 13
8 8 8 8 9 13 14 15 13 13 14 13 13 14 14 14 13 12 12 12 13 14 15 16 15 13 13 12 11 10 10 10 10 11 12 12 11 11 11 11 11 12 12 12 13 14 14 14 14 14 15 15 16 16
8 8 8 9 11 11 12 13 12 12 12 12 12 12 13 12 13 12 12 11 13 14 13 13 13 12 11 11 11 11 11 10 11 11 11 13 12 12 12 12 13 14 15 15 16 16 16 16 16 16 17 18 17 16
7 6 11 10 12 11 9 9 10 10 11 11 11 10 12 12 12 11 11 11 12 13 11 11 11 11 11 12 12 12 11 11 11 12 12 12 12 13 15 15 15 16 17 17 17 18 18 17 18 18 19 19 18 17
7 9 12 13 14 14 12 9 11 10 12 12 11 13 12 12 11 10 12 11 11 11 10 10 11 11 12 12 12 12 12 12 13 13 12 13 13 14 16 17 17 18 18 18 18 19 20 22 20 21 20 20 19 19
8 13 16 17 16 14 14 16 11 14 14 12 13 16 14 12 12 13 14 13 12 11 11 11 11 13 13 13 14 13 12 12 14 14 14 14 15 16 16 17 18 19 19 19 20 22 22 22 24 21 22 22 21 21
15 14 15 18 19 18 16 16 17 18 20 19 17 17 14 15 17 16 16 15 14 14 13 11 11 11 14 14 14 14 13 13 14 16 16 16 17 17 18 18 18 19 19 21 22 23 23 23 22 22 22 22 22 21
17 14 18 16 21 20 18 22 21 21 21 21 19 16 17 17 20 19 16 16 15 14 14 12 13 14 14 13 14 15 16 14 15 17 18 18 18 20 21 22 21 21 20 22 23 23 23 23 23 23 22 21 22 21
18 17 14 11 12 13 17 18 16 16 19 18 16 16 14 15 18 16 13 13 13 14 14 14 12 14 15 16 16 16 16 16 16 17 17 18 18 19 21 22 23 20 20 21 23 24 24 24 24 23 22 21 20 20
12 13 17 17 16 12 16 16 15 12 12 10 11 14 14 15 16 15 14 13 14 14 16 16 16 16 18 18 18 18 18 18 19 19 19 20 20 21 21 21 22 21 23 24 24 24 23 24 23 22 21 22 22 21
12 13 14 18 18 15 15 15 15 12 10 10 12 15 17 16 17 16 15 14 14 15 17 18 19 18 19 20 22 22 22 21 21 24 25 23 23 21 21 22 23 23 24 24 24 22 20 19 20 22 23 23 23 24
15 15 17 19 17 16 16 13 14 13 12 13 14 15 17 18 17 16 16 17 18 20 21 21 22 21 24 23 24 23 24 25 23 22 23 23 23 21 23 23 23 23 25 26 25 25 23 24 23 24 25 25 25 25
14 15 16 17 17 16 16 12 11 11 15 16 18 19 19 19 18 19 20 21 21 22 22 24 24 27 24 24 24 24 23 23 27 25 24 24 24 23 23 23 24 26 26 26 26 26 26 25 26 27 26 26 27 27
13 14 17 16 15 18 19 21 20 13 14 16 22 23 23 22 25 20 21 23 23 23 27 29 26 23 25 26 28 27 27 25 24 25 25 24 23 22 22 23 26 27 26 25 26 27 27 26 26 27 27 27 27 28
18 20 17 16 18 18 20 23 24 20 19 21 23 24 24 22 23 21 21 23 23 24 25 25 25 26 27 27 25 25 27 25 27 25 24 24 25 23 22 24 26 26 26 25 26 27 26 27 26 27 27 28 28 29

GFSWCAN_con_lsi_042.txt.gz
Lid_Strength_Index
4 4 5 4 4 5 4 4 5 4 4 4 4 4 4 4 3 2 1 0 2 6 5 4 4 5 6 6 9 6 7 7 7 12 12 11 13 10 10 9 11 12 14 15 13 17 17 7 7 10 7 5 6 5
4 4 4 4 5 5 5 4 4 4 4 4 4 4 4 3 3 3 3 0 -0 4 5 2 2 2 3 3 5 5 6 6 6 9 9 10 13 12 11 13 8 12 9 10 10 9 7 6 5 5 5 5 5 5
5 5 5 4 4 4 4 4 4 4 4 4 4 4 4 3 4 2 1 1 1 4 4 4 5 2 0 1 1 6 5 4 5 4 7 8 14 8 14 11 10 8 7 9 9 7 7 6 5 4 4 4 4 4
5 5 5 5 4 4 4 4 5 5 4 4 4 4 3 3 3 2 1 1 2 4 10 6 2 3 2 1 1 2 3 5 5 4 8 9 12 7 9 8 8 7 7 8 8 6 6 6 5 4 4 4 4 4
5 5 4 4 4 5 5 5 5 5 5 5 4 4 3 2 3 2 2 3 2 4 9 7 4 3 3 3 3 3 4 4 5 7 10 10 7 8 8 8 9 7 8 9 9 6 6 6 4 4 4 4 4 5
5 5 5 5 5 5 6 6 5 5 5 4 4 3 3 3 3 1 4 3 3 1 6 10 5 5 4 3 4 4 4 4 4 7 9 7 8 7 12 10 7 6 6 5 7 5 5 4 6 5 6 6 6 7
5 5 5 4 5 5 5 5 5 5 5 4 4 4 4 4 1 3 4 3 5 3 6 9 8 6 6 5 6 5 5 5 5 8 10 9 8 6 10 11 8 7 7 5 4 5 6 8 9 7 7 8 8 10
5 5 5 5 5 5 5 5 4 5 4 4 4 4 4 4 3 2 3 5 4 4 4 10 9 7 6 8 9 7 8 6 8 9 9 9 8 7 11 10 9 8 7 7 8 7 7 7 8 9 10 10 11 11
5 5 5 5 5 5 5 5 5 4 4 4 4 4 1 2 3 2 5 5 3 3 7 11 11 12 7 10 9 7 7 10 7 9 9 7 10 12 12 11 10 10 9 9 8 8 9 10 10 10 11 11 11 11
5 5 5 6 6 6 6 5 5 5 4 4 2 3 6 3 5 4 3 4 5 6 7 11 8 10 7 8 10 8 8 10 11 9 8 10 12 11 11 10 10 9 7 8 11 11 11 11 11 11 10 10 9 9
5 5 5 5 6 6 5 6 5 5 3 2 4 6 3 5 3 5 7 8 7 10 8 9 7 9 7 9 10 9 11 9 13 10 10 11 13 12 10 10 9 8 8 9 9 10 10 9 10 10 10 9 10 10
5 5 5 6 6 6 6 6 5 3 4 4 4 4 4 5 6 10 12 10 10 11 10 9 9 8 9 7 9 9 12 11 13 9 12 13 13 10 10 10 9 8 8 8 8 9 9 9 9 10 10 10 10 10
6 6 6 6 6 6 6 6 6 6 5 3 5 8 6 9 12 14 14 12 12 11 11 11 11 9 9 8 10 10 12 12 9 12 12 12 11 10 10 10 10 9 9 9 10 10 10 10 10 10 10 9 8 8
6 7 6 6 6 7 6 6 6 6 4 7 10 12 11 12 12 12 11 11 12 11 11 10 11 10 10 10 11 12 12 11 13 14 13 13 12 11 10 10 11 12 12 11 11 10 11 10 10 9 9 9 9 9
7 7 7 7 7 7 7 7 6 5 7 11 10 14 14 13 13 13 12 12 12 11 10 9 9 9 12 12 12 12 13 14 13 13 13 12 12 10 10 11 11 12 12 10 9 9 10 9 9 9 8 9 9 9
6 7 8 7 7 7 7 6 6 7 9 11 12 13 12 13 13 13 13 13 11 11 10 9 12 12 13 11 12 13 13 14 13 11 12 12 11 10 11 10 10 9 8 8 8 8 9 10 9 9 9 10 10 9
7 9 8 7 7 7 7 7 8 11 11 12 13 12 12 13 13 13 12 12 11 12 12 11 13 14 12 13 14 12 13 12 12 12 11 10 11 10 9 8 8 8 8 8 8 9 9 9 10 10 11 11 10 10
9 8 7 7 7 7 9 9 10 11 14 13 13 13 12 12 12 12 12 11 10 11 11 12 11 13 13 14 13 11 12 11 10 11 10 9 8 8 8 8 8 8 9 9 10 10 10 10 10 10 11 11 11 11
8 8 8 7 7 7 10 10 9 13 13 12 12 12 12 12 11 11 12 12 11 10 11 11 12 12 12 11 11 12 11 9 10 10 10 9 8 8 8 8 9 9 10 11 10 10 10 11 11 12 12 12 13 12
9 8 8 8 7 9 12 12 9 11 13 13 12 13 13 12 12 12 12 11 10 10 11 12 12 12 11 10 9 8 6 6 7 10 11 10 9 9 9 9 10 10 10 11 12 12 11 11 12 13 13 14 14 14
8 8 9 8 9 10 12 12 12 12 12 13 12 12 13 12 12 12 12 10 10 12 12 12 12 11 10 9 8 6 7 6 7 8 9 11 10 10 11 11 11 11 11 11 12 13 13 13 14 14 14 14 15 14
6 6 7 8 10 10 10 10 10 10 11 11 11 11 12 12 12 11 10 9 11 11 10 10 9 9 9 10 10 9 9 9 9 10 10 11 12 12 12 11 11 12 13 14 14 14 14 15 15 15 15 16 15 14
5 5 7 8 10 9 11 8 9 10 11 10 9 11 11 10 10 8 10 10 10 10 9 10 11 10 11 11 11 11 10 10 11 11 11 11 12 12 12 13 13 14 14 15 15 15 16 18 16 17 16 16 15 15
6 9 11 11 10 13 10 11 9 10 9 10 10 12 12 10 9 10 12 11 11 10 10 10 11 12 12 12 13 13 12 11 12 12 11 11 12 13 13 14 15 15 16 16 16 16 17 17 18 17 17 17 16 16
10 12 11 13 11 12 14 13 12 11 13 13 13 13 12 10 12 13 14 13 13 13 12 11 11 12 13 14 13 13 12 11 12 14 13 13 13 14 15 15 16 16 16 16 17 18 18 18 18 18 18 17 17 17
14 12 12 13 12 12 13 13 14 13 13 13 13 12 11 12 15 16 16 14 14 14 14 13 12 13 14 13 13 13 14 12 12 14 15 14 14 15 16 16 16 16 16 17 18 19 18 18 18 19 18 17 18 17
14 13 12 10 11 11 12 12 12 12 13 13 12 12 12 15 17 15 13 13 13 14 13 13 12 13 14 15 15 14 14 14 14 15 15 16 16 16 16 17 18 17 17 18 18 18 19 19 19 18 18 17 16 17
12 11 13 12 11 10 12 11 11 11 10 9 9 13 14 14 15 13 12 12 12 12 13 14 14 15 15 15 14 14 15 15 16 16 16 16 16 16 17 16 17 19 18 18 19 19 18 18 18 18 17 18 18 17
10 9 9 13 11 10 10 10 10 9 10 9 10 13 15 15 14 14 13 13 12 12 14 15 15 15 16 16 17 16 16 15 16 18 18 16 16 16 16 16 17 17 17 18 19 18 18 17 17 18 19 19 18 18
10 8 10 12 13 12 10 9 9 10 10 11 12 14 15 15 15 14 14 14 15 16 17 17 17 16 17 16 17 17 17 16 17 17 17 18 18 17 17 17 17 17 18 18 19 19 19 18 18 18 19 19 19 19
9 8 10 10 11 10 10 10 8 10 11 13 14 14 16 16 15 16 16 16 16 16 15 16 17 17 16 17 16 16 17 17 19 19 19 18 18 18 17 17 17 17 18 19 19 19 19 19 18 20 20 21 21 22
10 12 11 12 11 11 11 11 11 10 11 13 16 16 16 16 18 16 17 16 15 16 21 17 16 16 17 16 18 17 22 18 18 19 19 18 17 16 17 17 18 18 18 19 18 19 20 20 20 20 20 21 22 22
11 11 11 11 11 11 13 13 14 14 14 15 16 16 17 16 19 17 16 17 16 16 17 16 16 16 18 19 18 17 21 18 20 20 20 20 21 20 19 17 17 18 18 18 18 19 20 20 20 20 21 22 22 23

GFSWCAN_con_lsi_045.txt.gz
Lid_Strength_Index
0 0 1 1 1 1 1 1 1 3 4 4 4 4 5 4 3 2 1 -0 3 5 4 4 3 4 5 5 8 6 7 6 7 11 12 11 13 10 10 8 11 12 14 15 13 16 17 6 6 9 7 5 5 4
3 2 2 3 2 2 2 2 3 3 3 4 4 4 4 4 3 2 3 -0 -0 3 5 2 2 2 3 3 4 5 6 6 6 8 9 9 13 11 11 12 7 11 9 10 10 10 5 5 6 4 4 5 4 4
4 4 4 5 5 4 4 4 3 4 4 4 5 4 4 4 3 1 1 1 1 4 4 4 5 2 0 1 1 5 4 4 5 4 7 8 14 8 14 11 9 7 6 8 8 6 6 5 4 4 4 4 4 3
5 5 5 4 4 4 4 5 5 5 5 4 4 4 4 4 3 2 1 0 1 4 10 7 1 3 1 1 1 2 3 3 3 4 7 9 12 6 9 8 8 6 6 7 8 6 5 5 4 4 4 3 4 3
5 5 5 5 5 5 5 4 4 4 4 4 4 4 4 3 3 1 0 1 -0 4 9 7 3 2 1 1 2 2 2 3 5 7 9 10 6 7 7 7 9 5 7 9 9 6 6 6 4 4 4 4 4 5
5 5 5 5 5 4 4 4 4 4 4 4 4 4 3 3 3 1 4 1 1 1 6 10 4 4 2 2 3 3 3 3 4 7 8 6 6 6 12 10 7 6 5 5 6 5 5 4 5 5 6 6 6 6
5 5 5 5 5 5 5 5 5 5 5 4 4 4 3 3 -0 3 4 2 3 0 5 10 9 4 3 3 3 3 3 4 4 6 8 7 6 6 10 11 7 6 5 5 4 4 6 5 7 6 7 7 8 8
5 5 5 5 5 5 5 5 5 5 4 4 4 3 4 4 3 2 3 5 3 3 3 10 10 8 4 6 8 4 5 4 6 8 7 8 7 7 11 8 7 6 5 6 6 5 6 7 7 8 8 9 10 10
5 5 5 5 5 5 5 5 5 4 4 4 4 3 0 1 3 2 5 5 2 3 7 11 12 13 5 7 6 6 4 10 6 9 8 7 9 11 10 8 8 7 7 7 7 8 8 8 9 9 9 9 10 9
5 5 5 6 6 6 5 5 5 4 4 4 1 3 5 2 4 4 3 4 4 5 6 11 7 10 7 8 9 8 8 10 11 9 7 10 11 9 9 8 8 7 7 8 9 10 10 11 10 9 9 9 8 9
5 6 6 6 6 6 6 5 5 5 4 2 4 5 2 4 2 4 8 8 7 9 8 9 7 9 6 9 11 8 10 9 13 10 10 11 11 11 9 9 8 7 7 8 8 8 8 8 9 9 9 10 10 10
6 6 6 6 6 6 6 6 4 2 2 2 2 2 2 4 6 10 11 9 9 11 10 10 9 8 8 5 8 7 10 9 13 8 12 13 12 10 10 9 8 7 7 8 7 9 9 9 9 10 10 10 9 8
6 6 6 6 6 6 6 6 6 5 5 1 3 7 6 9 12 14 14 12 12 10 10 9 11 8 7 6 8 9 12 12 7 12 12 12 11 10 9 8 9 8 8 8 9 9 10 10 10 9 10 8 7 7
6 6 7 7 7 7 6 6 6 4 2 6 9 11 11 12 12 11 10 11 11 10 9 8 10 9 8 11 10 13 12 10 13 14 13 11 11 10 8 8 9 10 10 10 10 10 10 10 10 9 9 9 9 9
7 7 7 7 7 7 7 6 6 4 6 9 9 13 13 13 12 12 12 11 11 10 8 9 9 8 11 11 10 11 13 14 12 13 12 12 11 10 10 10 11 12 11 10 10 11 10 8 8 8 9 10 10 11
7 7 9 7 7 7 7 6 6 6 8 11 11 13 13 13 13 13 13 13 10 10 7 7 10 11 12 11 12 13 13 14 13 11 11 11 10 10 10 10 10 10 10 9 9 8 9 9 9 9 10 10 10 10
7 9 8 7 7 7 6 6 7 10 11 11 13 12 12 13 13 13 12 12 10 10 12 10 12 13 11 12 13 11 12 11 11 11 11 10 10 10 10 9 10 9 8 8 7 8 8 9 10 10 11 11 10 10
7 7 7 7 6 6 7 7 9 10 13 12 13 13 13 13 13 12 12 11 11 11 10 12 10 12 12 13 12 11 12 10 11 11 10 10 9 9 9 9 8 7 7 8 9 9 10 10 10 10 11 11 10 10
8 7 8 7 6 7 10 10 9 13 12 12 12 12 12 12 11 11 11 9 8 7 8 9 11 12 12 11 12 12 11 11 12 12 11 10 10 10 8 7 7 8 9 9 9 9 10 11 11 11 11 11 11 11
8 8 8 7 5 8 11 11 8 11 12 12 11 12 11 11 11 11 11 9 8 9 11 13 14 14 13 12 11 9 9 9 9 10 11 9 8 7 8 8 8 9 10 11 11 11 10 10 11 11 12 12 12 12
7 8 7 6 7 9 10 11 11 11 11 12 11 11 12 10 11 12 11 9 11 14 14 13 13 13 11 11 9 8 7 6 7 7 7 9 8 8 9 9 9 9 10 10 10 11 11 12 12 12 12 12 13 12
8 8 7 7 9 10 11 10 10 10 11 11 11 11 12 12 12 12 10 11 13 13 12 12 11 10 10 10 9 8 7 8 8 9 9 9 10 10 10 10 10 11 11 11 11 12 12 13 13 13 13 13 13 12
5 5 7 8 11 11 12 8 11 11 13 12 10 13 12 11 10 8 11 11 11 10 9 10 10 10 10 10 10 9 8 8 9 10 10 11 11 11 11 11 11 11 12 13 12 13 13 15 14 15 14 14 13 13
5 8 10 10 9 12 9 11 10 10 10 10 11 12 12 10 8 10 12 12 11 10 10 9 9 10 10 11 12 12 11 10 11 11 10 11 12 12 12 13 13 13 13 13 13 13 13 14 15 14 15 15 14 15
9 11 9 11 8 10 11 11 10 10 12 11 11 11 11 9 11 12 13 13 12 12 12 10 11 11 12 12 13 13 12 11 12 13 12 11 11 12 13 13 14 14 14 14 15 15 15 15 15 15 16 15 15 16
12 11 11 11 10 10 11 12 12 12 11 12 12 10 9 10 13 15 14 13 13 13 13 13 11 12 14 13 14 14 13 11 11 13 13 12 12 12 13 13 13 14 14 14 15 16 15 15 16 16 16 15 15 15
13 12 10 9 10 10 10 10 9 10 12 12 11 11 11 14 15 15 13 13 13 13 13 13 12 12 13 13 13 13 13 13 13 14 14 14 14 14 14 15 16 16 15 15 15 16 16 17 16 16 16 15 15 15
11 10 12 11 10 9 11 11 11 12 11 10 9 12 13 13 14 13 12 11 11 11 11 12 12 12 13 13 12 12 13 13 14 13 13 14 14 14 15 14 15 17 15 15 16 17 17 16 16 16 16 16 16 15
10 9 9 11 10 9 10 10 10 10 9 9 9 11 13 13 13 12 12 11 10 10 12 12 13 12 13 13 13 13 13 13 14 16 16 15 14 14 13 14 14 14 14 15 16 16 16 17 16 16 17 17 16 15
9 7 9 10 10 11 10 9 9 9 9 10 10 12 13 14 14 12 12 12 13 14 14 14 13 13 14 13 14 14 14 15 15 16 16 16 16 15 15 15 15 15 15 16 16 16 16 16 16 15 15 15 15 16
7 7 9 9 10 9 9 8 8 9 9 11 11 12 14 14 14 13 14 13 13 13 13 14 14 13 14 15 14 15 14 14 16 16 16 16 15 15 15 15 15 15 16 16 16 16 16 17 16 16 16 16 17 18
8 10 10 11 10 9 8 8 9 9 10 11 13 12 13 13 15 15 14 13 13 14 16 14 14 15 15 14 14 14 18 15 15 16 16 16 16 15 15 15 15 15 16 16 16 16 16 17 17 17 17 17 17 19
8 8 9 9 9 10 10 10 10 12 11 12 13 13 14 14 17 15 13 13 14 15 15 14 13 13 15 16 15 15 16 15 16 16 17 18 19 18 17 15 15 15 16 16 16 16 16 17 17 17 18 18 19 19

GFSWCAN_con_lsi_048.txt.gz
Lid_Strength_Index
2 2 2 1 1 0 0 0 0 -0 -0 -0 1 1 2 3 4 3 5 4 4 6 5 3 3 5 5 6 10 8 8 7 9 12 13 12 13 11 11 9 12 13 15 15 14 17 18 6 6 10 8 5 5 5
2 2 1 1 0 0 0 0 0 0 -0 1 1 2 3 3 3 3 7 3 1 5 5 2 2 2 3 4 5 6 6 7 7 9 10 11 13 12 12 14 7 12 10 12 11 12 6 5 5 4 4 5 5 5
1 1 0 0 0 0 0 0 0 0 1 1 3 3 3 4 4 4 4 2 2 4 5 4 5 2 1 1 1 7 5 4 5 4 8 9 13 10 14 12 9 7 6 9 9 6 6 5 5 4 4 5 4 4
2 2 2 2 1 1 1 1 0 1 2 4 4 3 3 3 3 4 4 3 2 4 9 7 2 3 1 1 2 2 3 3 4 5 8 10 12 7 11 9 9 7 7 8 8 6 6 6 5 5 4 4 4 4
4 4 3 2 2 2 2 2 3 3 3 4 3 2 3 3 3 4 2 1 1 5 9 7 3 2 1 2 2 2 3 4 5 8 10 10 7 9 8 8 10 6 7 10 10 7 7 7 6 4 5 6 5 6
5 5 5 5 5 5 5 5 3 3 3 3 3 4 4 4 4 2 5 1 0 1 6 11 4 4 3 2 3 3 3 4 5 7 9 6 5 8 12 11 7 6 5 5 7 5 5 6 6 5 6 7 7 7
6 5 5 4 5 5 4 5 5 4 4 4 4 4 4 4 3 4 5 3 4 1 6 10 9 5 3 3 4 4 3 5 5 6 8 7 7 7 11 12 7 6 5 5 5 4 6 6 8 7 7 8 8 9
5 5 5 5 5 5 5 5 4 4 4 4 4 4 4 4 4 3 3 4 4 3 5 10 11 8 4 7 8 4 6 5 6 7 7 8 7 8 11 7 7 7 6 6 6 5 6 7 7 8 8 9 9 9
6 5 5 5 4 5 5 5 4 4 4 4 4 4 2 3 4 3 6 5 -0 4 8 11 12 13 5 7 6 6 6 10 6 10 8 8 10 12 9 8 7 7 7 8 7 7 7 8 9 9 9 9 10 10
6 6 6 5 5 5 5 5 4 4 4 4 2 4 7 4 5 4 3 5 5 5 5 9 7 11 7 8 9 9 8 10 12 10 8 11 12 10 9 8 8 7 7 7 9 10 10 10 10 9 9 9 10 10
6 6 6 6 5 5 5 4 4 4 4 2 5 6 4 5 2 5 8 9 8 10 8 8 8 9 6 10 11 8 11 10 13 11 11 11 12 11 9 8 7 6 7 7 7 8 8 8 9 9 10 10 10 11
6 6 6 6 6 5 5 4 4 1 2 2 2 2 2 4 6 10 11 9 10 12 10 10 9 8 8 6 9 8 11 10 14 9 12 13 12 10 9 8 7 7 8 8 8 8 8 9 9 10 10 11 11 11
7 7 6 7 6 6 5 5 4 4 4 1 4 8 7 9 12 13 14 12 13 12 11 10 11 9 8 7 10 10 13 12 8 12 13 12 10 9 8 8 8 8 8 8 9 9 10 10 10 11 12 11 11 11
7 7 7 7 7 6 6 6 5 3 2 6 10 12 11 12 13 13 12 12 12 12 10 10 11 10 9 11 10 12 12 10 13 14 13 12 11 9 9 8 9 10 11 10 10 11 12 12 12 13 13 13 12 11
7 7 7 7 7 6 6 6 5 4 6 10 10 14 14 13 13 13 12 12 11 9 8 9 9 9 11 12 10 12 13 14 13 13 12 11 10 9 9 10 11 11 12 11 11 12 12 12 12 12 12 11 11 13
7 7 9 7 7 6 6 5 5 6 8 11 12 13 13 13 13 13 13 13 10 9 7 6 10 12 12 12 12 13 13 14 12 11 11 10 10 10 9 10 10 10 10 11 11 11 12 12 12 11 11 11 12 13
7 9 8 7 7 7 6 6 8 11 11 12 13 13 13 13 14 13 13 12 10 10 12 10 13 13 11 13 14 12 13 12 12 12 11 10 10 10 10 10 10 10 10 10 10 10 10 10 10 11 11 12 11 11
9 7 7 7 6 7 7 7 9 11 14 13 14 13 13 13 13 13 12 11 10 10 10 12 9 12 13 14 13 12 12 11 11 11 11 10 10 10 9 10 9 9 10 10 10 10 10 10 10 11 12 12 12 11
8 8 7 6 6 7 10 9 8 13 13 12 12 12 12 12 12 11 11 10 9 8 8 9 12 13 14 13 12 12 12 12 13 12 12 11 10 10 10 10 10 10 10 9 9 10 11 12 12 12 13 12 12 12
7 7 7 7 6 8 11 11 7 11 13 12 11 12 12 12 11 12 11 10 10 10 14 15 16 15 14 13 12 11 11 11 12 13 13 12 11 11 10 10 10 10 11 11 11 11 11 12 12 13 13 13 13 13
7 7 7 6 7 8 10 10 11 11 11 13 11 11 12 10 11 12 11 10 12 14 15 14 13 13 12 12 12 11 11 10 10 9 10 11 9 9 9 9 9 9 10 11 12 13 13 13 13 13 12 12 13 12
8 7 7 7 9 10 10 9 10 9 11 11 11 11 12 13 13 12 10 13 15 14 14 14 14 13 13 13 13 11 10 9 8 9 9 9 10 10 10 10 11 12 12 12 12 13 13 14 14 13 13 13 13 12
7 7 9 10 12 12 14 9 12 12 14 13 12 14 13 13 12 10 14 14 14 12 11 12 12 11 12 11 11 11 10 10 10 10 11 11 11 11 12 12 11 12 14 14 13 13 13 15 14 14 13 13 14 13
5 10 11 12 11 14 11 13 11 12 12 12 13 15 14 12 10 12 15 14 13 12 11 11 10 11 11 12 13 13 11 11 11 11 10 12 13 13 13 14 14 14 13 12 13 13 13 13 15 14 14 15 15 15
9 11 9 11 8 10 11 12 11 11 12 11 12 12 12 9 11 13 14 13 13 13 13 11 11 11 12 13 13 14 12 12 13 14 12 12 12 13 13 14 14 14 13 14 15 15 15 15 15 16 16 15 16 15
13 11 12 11 11 11 11 13 12 12 11 11 12 11 9 10 13 15 15 14 14 14 14 14 12 14 15 14 15 15 15 12 13 15 14 13 13 12 13 13 14 15 14 15 16 17 16 16 16 16 16 15 16 16
13 12 10 8 9 9 10 10 9 10 11 12 11 10 10 13 15 15 14 14 14 14 14 13 13 14 14 14 14 13 13 13 13 13 13 13 14 14 15 16 17 17 16 16 16 17 17 17 17 16 16 15 15 16
11 11 12 10 10 9 11 10 11 12 12 11 9 13 14 15 16 14 13 12 11 11 12 12 12 12 13 12 12 12 12 12 13 13 13 13 13 14 14 14 15 16 15 15 16 16 16 17 17 17 17 17 17 16
10 9 8 12 10 11 11 11 11 11 11 10 10 13 14 14 13 12 11 10 10 10 12 12 12 11 12 13 13 13 14 14 14 16 15 15 14 15 14 14 14 14 14 14 14 15 15 16 17 17 17 17 17 15
10 7 9 9 10 11 10 9 10 10 9 9 11 13 14 14 13 11 12 12 13 13 13 13 13 13 13 13 14 15 15 16 16 17 17 17 17 15 14 14 15 15 15 15 16 16 15 16 16 16 16 15 15 16
7 7 8 9 10 10 9 7 8 9 10 11 10 13 15 15 14 13 14 12 13 12 12 14 14 14 15 15 15 15 15 15 16 16 17 16 15 15 14 15 15 15 15 16 16 17 17 16 16 17 17 17 17 17
8 9 9 10 10 9 8 8 8 9 10 11 13 12 13 12 15 15 14 13 13 14 15 14 14 15 15 14 14 14 18 15 15 16 16 17 16 16 16 16 16 15 15 16 16 16 16 16 16 17 17 17 17 18
8 8 8 8 9 9 9 9 10 11 11 12 13 12 14 14 17 15 13 13 14 14 15 14 14 13 14 14 15 15 15 14 15 14 15 16 18 17 17 16 16 16 16 16 16 16 16 16 16 16 17 18 18 18

GFSWCAN_con_lsi_051.txt.gz
Lid_Strength_Index
2 2 2 3 3 2 2 1 1 1 0 -0 -0 0 2 2 2 3 4 3 4 7 6 5 4 6 6 7 11 8 9 9 10 13 13 15 15 13 13 11 13 14 15 17 15 17 18 7 8 11 9 7 6 7
2 2 3 3 3 2 2 1 1 0 0 -0 -0 0 2 2 2 3 6 3 2 6 6 4 3 4 3 4 7 8 8 8 8 11 12 12 14 14 13 16 9 15 12 14 13 13 8 6 7 6 6 7 6 6
2 2 2 2 2 2 1 1 0 0 0 0 -0 1 2 2 2 3 5 3 4 7 6 5 6 3 3 3 2 8 7 6 7 6 9 11 14 12 15 14 12 9 8 11 11 9 8 7 6 5 5 6 6 6
2 2 2 2 1 0 0 0 0 0 0 0 1 1 2 2 2 3 5 4 3 6 10 8 2 4 2 2 3 3 4 4 5 6 10 12 13 9 13 10 11 9 9 9 10 9 8 7 6 6 6 6 8 8
1 1 0 0 0 0 0 0 0 0 0 0 1 2 2 2 3 3 4 4 3 5 10 8 4 3 2 2 3 3 4 5 7 10 13 12 9 11 11 11 14 9 9 13 12 8 8 8 7 6 8 8 8 9
2 2 2 1 0 0 0 0 0 0 1 2 2 2 2 3 3 4 8 4 3 3 7 12 5 5 3 3 4 5 5 5 6 9 12 9 6 10 14 15 8 8 7 6 8 7 8 8 8 8 9 9 9 10
4 3 2 2 1 1 1 1 1 2 3 2 3 2 3 3 5 5 6 4 4 2 7 11 10 6 4 5 6 5 5 7 7 8 11 10 9 9 13 14 9 7 7 7 6 7 9 9 10 9 9 9 9 10
5 5 4 4 4 3 2 3 3 3 3 3 4 3 4 3 4 4 3 5 4 4 6 11 11 9 5 10 10 6 8 8 8 9 9 12 10 13 14 10 9 8 8 8 8 7 9 9 9 10 10 10 10 10
6 5 5 5 4 4 4 4 5 4 3 4 4 4 4 4 4 3 3 6 4 5 11 13 12 13 6 8 9 8 8 12 8 12 11 11 12 13 10 10 10 9 9 9 9 9 10 11 11 10 10 10 11 11
5 5 5 5 4 4 4 3 4 4 4 4 4 4 8 5 4 4 4 7 7 8 9 12 9 12 8 11 12 12 12 12 13 12 9 13 14 11 11 10 10 9 9 8 11 12 11 11 11 10 10 10 11 11
5 5 5 5 5 5 5 4 4 3 3 3 5 8 5 5 5 8 12 12 10 13 11 10 10 11 8 12 13 11 13 13 17 14 14 15 15 12 10 9 8 8 9 9 10 10 9 9 10 11 11 11 12 13
6 6 5 5 5 5 5 4 4 4 3 3 4 4 5 6 10 12 13 13 12 14 12 12 11 9 11 7 13 11 13 14 16 12 13 17 13 11 9 9 9 9 9 9 8 9 9 9 10 11 11 12 13 14
6 6 6 6 5 4 4 4 4 4 3 3 7 10 8 12 13 16 16 14 14 13 12 12 13 12 11 11 12 12 13 15 14 15 16 14 12 11 10 9 9 8 9 10 11 11 11 11 11 12 13 13 14 15
6 6 7 6 6 6 5 4 4 4 4 9 12 14 13 14 14 14 14 13 13 13 12 12 13 13 13 13 13 14 14 13 16 19 17 13 11 10 9 9 10 11 12 12 12 12 13 14 14 14 15 16 16 16
7 7 7 7 6 6 6 5 5 6 9 13 13 16 15 14 13 13 13 13 13 11 11 12 12 12 13 13 13 14 14 16 17 16 13 11 11 10 11 11 12 12 12 12 12 13 14 14 15 15 15 15 16 18
7 7 8 7 7 6 6 6 6 7 11 13 13 14 13 13 13 13 13 13 12 12 12 12 13 13 13 13 13 14 16 16 14 13 12 11 10 11 11 12 12 11 12 13 13 13 13 14 15 15 15 16 18 17
7 10 7 7 6 6 6 8 10 12 13 13 14 13 13 13 14 14 13 13 12 12 13 13 15 14 12 14 14 13 15 14 13 13 12 11 12 12 12 12 12 12 12 12 13 13 14 14 15 15 15 14 13 14
9 8 7 6 6 7 7 8 11 12 14 14 15 14 13 13 13 13 13 12 12 13 13 13 12 14 15 15 15 14 14 13 12 12 12 11 11 11 11 11 10 11 12 13 13 13 14 14 14 14 14 13 13 14
8 8 7 7 7 9 12 11 10 14 14 13 13 13 13 13 13 12 12 11 12 11 12 13 17 17 17 15 14 13 13 13 13 13 12 11 11 11 11 11 12 13 13 13 14 15 14 14 14 15 14 14 15 15
7 7 7 7 6 11 13 12 10 13 14 14 13 13 13 13 13 12 13 12 13 13 16 17 17 16 15 15 13 13 12 12 12 13 13 13 12 12 12 12 14 14 14 13 13 14 14 14 14 14 15 15 18 19
8 8 7 7 9 10 12 12 13 12 13 13 13 13 13 13 13 14 14 13 15 16 17 16 15 14 14 14 13 12 12 11 12 12 13 13 12 12 12 12 11 11 12 13 14 15 15 16 15 15 20 21 20 20
10 7 11 9 12 12 13 11 12 12 12 13 13 13 14 14 14 14 14 16 16 16 15 15 15 15 15 15 15 14 13 13 12 12 11 11 12 12 12 12 14 15 14 14 14 16 16 16 16 16 20 21 19 19
8 9 12 13 15 15 15 12 14 13 15 15 13 15 15 15 14 13 17 16 16 15 14 14 15 15 15 15 14 14 13 13 13 14 13 14 14 14 15 15 14 15 16 15 14 15 16 16 17 19 20 21 21 23
8 12 14 15 15 16 15 16 14 15 15 16 17 18 17 16 14 18 19 18 17 16 16 15 13 14 15 15 16 15 13 13 13 13 13 14 15 15 15 16 16 15 14 14 14 15 16 19 19 20 24 25 26 25
14 14 14 16 14 16 18 15 16 16 18 16 18 17 17 14 17 18 18 18 18 18 17 14 15 15 15 16 16 16 14 14 16 17 16 14 15 15 16 15 16 15 15 17 17 19 20 22 24 25 23 26 23 24
14 12 13 13 13 14 14 15 15 14 15 17 13 12 13 15 19 19 17 17 18 17 17 16 15 16 17 16 17 17 17 14 15 17 17 16 16 15 15 16 17 17 16 18 21 23 22 23 25 25 26 23 22 21
14 13 11 9 10 11 14 12 12 15 16 15 15 14 14 21 21 17 15 15 16 16 15 15 15 16 16 16 16 16 15 15 15 15 14 14 15 15 17 20 22 20 19 21 24 26 26 26 26 26 25 21 22 23
11 11 13 11 13 11 13 14 17 16 17 13 12 19 20 21 20 16 15 13 15 14 14 14 14 14 15 15 15 15 15 15 16 15 15 15 17 18 20 20 20 17 19 20 24 23 25 25 26 26 25 26 27 26
11 9 12 13 12 12 14 14 14 13 12 13 18 19 19 16 15 14 13 13 13 13 14 14 14 15 15 16 17 17 19 19 21 23 24 23 22 21 21 22 21 22 22 22 18 17 19 20 20 22 25 22 22 23
11 9 11 12 14 13 12 12 14 12 11 14 15 15 16 16 15 14 14 14 15 17 15 15 15 17 18 18 20 21 22 23 22 25 27 27 25 22 22 19 22 23 21 24 24 23 20 22 22 24 25 24 21 21
8 10 12 13 12 11 10 10 11 14 16 15 16 19 19 19 18 16 16 15 16 14 16 20 20 20 21 22 23 24 24 24 22 24 24 24 24 22 19 19 19 24 23 20 23 25 26 25 24 22 25 25 25 23
9 11 15 15 14 9 9 9 10 11 13 17 18 19 18 18 22 20 16 15 17 17 19 19 21 23 23 23 21 23 23 22 21 24 23 25 25 26 25 24 23 19 20 20 20 22 22 23 23 21 22 22 25 26
12 13 13 14 12 13 15 14 13 16 16 18 17 18 21 21 23 20 17 18 20 21 21 21 20 19 19 21 23 23 20 22 22 17 17 19 23 23 25 25 26 27 26 26 26 26 24 20 19 19 20 23 25 23

GFSWCAN_con_lsi_057.txt.gz
Lid_Strength_Index
2 2 2 3 4 4 4 4 4 3 3 3 3 2 1 1 1 3 3 2 4 7 6 5 5 7 7 7 10 9 9 9 11 13 13 15 16 14 14 12 14 14 16 19 18 21 18 9 10 13 11 9 8 8
3 3 4 4 4 4 4 4 4 4 4 3 3 2 2 2 1 2 4 1 1 6 6 5 5 4 5 5 6 7 9 9 8 11 12 13 15 16 15 16 11 14 13 14 14 14 10 9 10 9 8 8 8 8
4 4 4 4 4 4 4 4 4 3 3 3 2 2 2 2 1 3 3 3 4 8 8 7 7 4 3 4 3 8 8 6 7 7 10 11 14 13 15 15 13 11 9 12 12 10 9 8 8 8 8 8 8 7
3 4 4 3 3 3 3 3 3 3 2 2 2 2 1 1 2 1 3 3 5 6 10 8 2 4 2 3 4 4 4 4 6 7 11 13 14 9 12 11 12 10 9 11 12 10 8 8 9 10 10 9 10 10
3 3 3 3 3 3 3 3 3 2 2 2 1 0 1 0 0 1 2 2 3 5 9 9 5 3 2 3 4 4 4 6 9 11 14 12 11 11 13 12 12 10 11 12 13 9 9 9 10 9 10 10 10 11
3 3 3 3 3 3 3 3 2 2 2 0 -0 -0 -0 -0 1 2 5 4 2 2 7 10 5 5 4 4 4 5 5 6 7 9 11 9 8 11 13 14 10 9 8 9 9 8 10 11 10 10 11 11 11 11
2 2 2 2 2 1 1 1 1 1 0 0 0 0 -0 1 2 5 8 6 2 2 6 11 11 6 5 5 6 6 6 8 8 9 12 11 10 11 15 16 10 10 10 10 10 10 12 11 12 11 11 11 11 12
2 2 2 1 1 1 1 1 1 1 0 0 0 -0 0 1 2 6 2 2 2 4 5 10 11 9 6 9 9 8 10 9 9 10 11 14 11 13 14 11 10 9 10 10 11 10 11 11 12 12 12 12 13 13
1 0 1 0 0 1 0 0 0 0 0 0 -0 -0 1 4 6 4 2 1 2 5 9 11 13 13 7 9 10 10 10 13 10 14 12 10 13 13 11 11 11 10 10 12 12 12 12 13 13 13 12 13 14 14
0 0 0 0 0 0 0 0 0 0 0 0 2 5 8 6 1 1 3 5 6 5 8 12 9 12 8 13 13 12 13 13 14 12 11 13 14 12 11 10 10 10 11 11 13 14 13 13 13 13 13 13 13 14
1 1 1 0 0 0 0 1 1 1 1 5 6 7 3 2 4 5 10 10 10 12 11 11 10 10 9 13 13 13 14 15 14 13 13 14 14 13 10 10 10 10 10 11 10 11 11 11 13 13 13 14 15 15
2 2 2 2 2 1 2 2 3 5 6 5 4 2 3 5 8 11 13 12 12 13 12 12 11 10 12 10 13 13 13 15 15 11 13 14 14 11 10 10 10 10 10 10 10 10 11 11 12 13 14 15 15 15
4 5 4 4 4 4 4 3 4 4 3 3 5 8 7 11 12 14 15 14 15 13 13 12 13 12 12 12 14 15 18 16 13 14 14 14 11 10 10 10 10 9 10 11 11 12 12 13 13 14 15 15 15 16
5 5 5 4 4 5 4 4 4 4 4 9 11 14 14 15 14 14 14 14 13 13 13 12 13 13 13 14 15 16 14 14 21 19 17 13 11 11 11 11 12 12 13 13 13 13 14 15 15 15 16 16 17 18
5 5 5 5 5 4 5 5 5 6 9 13 13 16 16 14 13 14 14 13 13 12 13 13 13 12 14 14 15 14 15 16 19 19 14 13 11 12 12 13 14 14 14 14 14 15 15 16 16 16 16 16 17 19
6 6 7 5 5 5 5 6 8 8 11 13 14 14 13 13 14 13 13 13 12 13 13 13 14 14 15 14 15 16 18 18 16 15 13 12 12 13 13 13 13 13 14 14 14 14 15 16 17 17 17 17 19 19
7 9 7 6 5 6 6 8 12 14 13 14 15 13 14 14 14 14 13 13 12 13 14 15 15 15 14 16 17 15 17 16 14 13 13 13 13 13 13 13 13 13 14 14 15 15 16 16 17 17 18 18 17 18
9 8 6 6 6 7 8 10 13 13 15 14 15 15 14 14 14 14 14 13 15 14 13 14 14 18 19 18 18 15 15 14 13 13 13 13 13 12 12 13 13 13 14 15 15 15 15 16 16 17 16 17 18 18
8 7 7 6 7 9 12 12 11 15 15 14 13 13 14 15 15 14 14 13 13 14 15 16 20 20 20 17 17 15 14 14 14 13 13 13 12 13 13 13 13 14 15 15 15 16 16 16 17 17 17 17 17 17
8 8 8 7 7 11 13 13 11 14 15 14 14 16 15 16 15 15 15 15 15 15 17 19 20 19 18 17 16 14 13 13 13 14 15 14 14 14 14 14 15 16 16 17 17 17 18 18 17 17 17 17 18 19
10 10 9 9 11 11 12 13 13 13 13 14 13 14 16 16 17 18 18 15 17 18 19 18 18 18 16 16 16 15 15 13 14 14 15 16 16 15 16 16 16 17 18 18 19 19 18 17 17 17 18 19 19 18
11 9 14 12 13 13 13 13 13 13 13 14 14 14 15 18 18 18 17 20 20 19 18 18 19 18 18 18 18 17 16 16 16 17 17 16 18 18 18 18 18 19 19 18 17 18 18 17 17 17 19 19 18 18
10 12 15 15 17 16 15 13 14 13 15 15 14 16 16 16 16 15 21 20 20 18 17 18 18 18 18 18 17 17 17 17 18 19 19 19 19 19 19 19 18 18 18 17 16 17 18 17 18 19 19 19 19 21
11 17 19 19 18 21 17 17 14 15 15 16 17 18 17 17 16 20 23 22 20 19 19 19 18 19 19 19 20 20 19 18 19 19 18 19 20 20 19 19 19 19 18 18 19 20 20 20 20 20 22 24 24 25
15 17 18 21 19 19 21 22 20 18 19 18 19 18 18 18 22 23 24 22 22 22 21 20 20 20 21 21 21 21 19 19 20 21 19 18 18 19 20 20 20 20 19 21 23 23 23 23 24 25 24 28 23 26
18 16 15 18 16 17 19 21 20 20 22 23 20 18 20 22 24 25 22 22 22 21 21 21 21 21 21 20 21 20 19 18 19 21 20 19 19 20 22 22 22 21 21 24 26 27 28 30 31 30 31 28 27 30
18 17 15 12 14 14 18 19 17 20 21 21 20 22 24 27 26 21 18 18 18 18 17 17 18 19 19 19 19 19 18 18 19 19 19 20 20 20 23 25 25 22 21 26 29 29 28 29 31 30 30 34 33 32
13 13 17 19 19 17 21 23 22 21 20 16 21 26 28 27 23 18 17 16 17 17 18 19 19 20 21 21 21 20 20 20 20 20 21 21 21 21 21 21 21 19 22 24 27 30 29 26 26 27 29 27 27 30
16 17 17 21 21 20 19 21 20 18 17 19 27 25 23 20 20 18 17 16 16 17 19 20 22 24 23 22 23 23 23 26 26 28 32 33 30 27 24 25 26 26 28 28 24 21 22 24 27 28 27 28 25 27
18 18 20 23 22 20 20 19 21 23 18 20 18 19 20 20 18 16 17 18 20 21 24 24 24 25 31 28 29 26 27 30 29 29 32 32 29 28 33 33 32 32 33 32 31 28 23 28 26 29 29 28 30 31
18 18 20 20 18 19 18 19 17 20 24 23 26 25 24 22 21 18 18 20 21 24 25 27 27 32 27 30 32 32 29 27 28 29 29 31 32 33 34 33 34 35 35 35 34 34 33 33 33 32 30 28 26 26
21 25 21 20 18 17 17 17 23 23 27 26 26 28 26 27 27 23 21 23 22 23 27 31 28 25 30 31 31 30 27 29 30 30 29 29 28 30 32 32 34 35 34 35 36 35 34 33 34 34 34 32 31 29
23 24 24 22 18 18 16 14 18 21 23 24 24 24 26 28 28 23 21 25 27 28 28 28 29 29 26 28 30 31 30 32 31 25 25 25 27 28 31 33 34 34 34 35 35 35 33 32 34 34 34 34 34 33

GFSWCAN_con_lsi_060.txt.gz
Lid_Strength_Index
1 1 1 1 2 2 2 3 3 3 3 3 3 3 2 2 1 3 4 2 4 6 6 5 6 7 7 7 11 8 9 9 12 13 13 15 16 13 14 12 13 14 15 17 19 20 18 10 11 13 11 10 9 9
1 2 1 2 2 3 3 3 3 3 3 3 3 2 2 2 2 2 5 2 1 5 6 4 5 4 4 4 6 7 8 9 8 11 12 14 15 15 14 16 11 14 12 14 13 14 10 10 11 10 10 10 9 8
3 3 3 3 3 3 4 4 3 3 3 3 3 3 2 2 2 2 4 2 2 5 6 6 6 4 3 4 3 8 8 6 7 7 10 11 14 13 15 14 13 11 10 13 12 11 10 10 9 9 8 9 8 8
4 4 4 4 4 4 4 4 4 4 3 3 3 3 3 2 2 2 4 3 2 5 9 7 3 4 2 3 4 4 5 5 6 8 12 12 14 10 14 11 12 10 10 12 12 11 10 9 10 10 9 9 9 10
4 4 4 4 4 3 4 4 4 4 3 3 3 3 2 2 0 2 3 1 1 5 9 9 6 3 2 3 4 4 5 6 8 10 13 13 11 11 13 13 16 10 11 12 12 9 10 10 10 10 10 11 10 11
3 3 3 3 3 3 3 4 4 4 4 3 3 2 2 1 0 3 5 2 2 2 7 11 7 7 4 4 4 5 5 7 8 10 12 10 9 11 14 15 10 9 9 8 9 8 11 11 11 11 11 11 11 11
3 3 3 3 3 3 3 3 3 3 3 2 2 2 1 1 2 4 6 3 2 2 6 10 10 7 4 4 5 5 7 8 8 9 13 11 11 11 16 16 11 10 10 9 10 10 12 11 12 12 12 12 12 12
2 3 3 3 3 3 3 3 3 2 2 2 2 1 1 0 1 4 1 2 2 4 5 10 10 9 5 8 9 7 9 9 9 10 11 13 11 14 13 12 11 11 11 11 12 11 11 12 13 13 13 13 13 14
2 2 2 2 1 1 1 2 2 2 2 1 1 1 1 3 6 5 1 2 2 5 10 11 12 14 7 9 9 9 8 13 10 13 12 11 14 13 12 12 11 11 11 13 12 12 12 14 14 13 13 14 14 14
1 1 1 1 1 1 1 1 1 1 0 0 1 4 7 5 1 1 3 7 6 6 6 10 8 11 9 12 12 13 13 13 13 12 10 13 13 12 11 10 10 11 12 12 14 14 14 14 14 14 14 14 14 14
1 1 1 1 0 0 1 1 1 0 1 4 7 7 3 1 3 5 9 9 9 10 9 9 10 11 8 12 13 13 14 14 14 13 13 14 15 12 11 10 10 11 11 11 11 11 11 12 14 15 15 14 14 14
0 0 0 0 0 0 0 0 0 2 4 4 3 2 3 5 7 11 10 10 10 12 10 10 9 10 11 9 12 13 15 14 15 12 14 15 14 12 12 12 11 11 11 11 11 12 12 13 13 14 15 15 15 16
3 3 3 3 3 2 2 2 1 1 2 3 4 7 7 9 12 17 14 12 12 11 10 11 13 12 13 12 14 15 16 16 13 14 15 14 12 11 11 11 11 10 10 11 11 12 13 14 14 15 16 16 16 17
4 4 4 3 3 3 3 3 3 3 5 8 11 13 11 12 12 12 12 12 12 12 12 12 13 13 13 14 14 14 14 14 16 17 17 14 12 11 11 11 11 12 13 13 13 14 14 15 16 16 16 17 17 18
4 5 5 5 4 3 3 4 4 5 9 12 11 14 14 12 12 12 13 13 13 12 13 13 13 12 14 14 14 14 15 17 18 19 15 13 12 12 13 13 13 14 14 14 14 15 16 16 17 17 17 17 17 18
5 5 6 5 4 4 5 6 7 8 11 13 14 14 13 13 14 14 13 14 12 13 13 12 14 14 15 14 15 17 17 18 16 15 14 13 13 13 13 14 14 14 14 14 15 16 16 17 17 17 18 19 19 20
6 8 5 6 5 5 6 8 11 13 13 14 15 14 14 14 15 15 14 15 12 13 14 14 15 15 14 16 17 16 18 16 15 14 14 13 14 14 14 14 14 14 14 15 15 15 16 17 17 18 19 18 18 19
8 6 5 6 6 7 8 10 13 13 15 14 16 15 16 16 16 16 15 14 13 13 14 16 15 18 20 19 19 16 15 14 14 14 14 13 13 13 13 14 14 14 15 15 16 16 17 17 17 18 17 18 18 18
8 7 6 6 7 9 12 12 12 15 15 14 14 14 15 16 15 15 15 14 14 14 15 17 22 22 22 19 19 18 15 14 15 14 14 13 13 13 14 14 15 15 16 16 17 17 17 17 17 17 17 18 19 20
8 8 7 6 7 11 13 13 11 13 15 16 15 17 17 17 16 16 16 15 16 16 19 21 22 20 20 18 17 16 13 13 14 16 17 16 15 15 16 16 17 17 17 18 18 18 18 19 18 19 19 19 19 19
9 10 9 8 10 11 13 13 13 13 13 15 14 15 17 17 19 19 19 16 19 19 21 20 20 19 18 18 17 16 17 16 17 16 17 19 17 17 18 18 18 18 19 19 20 20 20 20 19 19 20 20 19 18
11 10 13 12 13 13 13 13 13 13 13 13 14 14 17 18 19 19 18 21 21 20 19 19 19 19 19 19 19 18 17 17 18 18 18 18 20 20 19 19 19 20 20 21 20 21 20 19 19 19 20 20 18 19
11 12 15 15 16 15 16 13 15 14 16 16 15 16 18 18 18 17 22 21 21 19 19 18 19 19 19 19 18 18 18 19 20 20 20 21 21 21 21 21 20 21 22 21 20 20 21 20 21 21 21 21 21 22
12 17 19 20 18 22 18 17 14 15 15 16 17 18 18 18 18 21 24 23 21 20 20 20 19 20 20 20 22 21 19 19 20 20 20 21 23 23 22 23 22 22 21 21 22 23 23 23 23 23 25 28 27 28
16 17 18 21 19 20 22 21 19 18 18 18 18 18 19 18 22 23 24 23 22 22 21 20 21 21 22 22 21 21 20 20 22 23 22 20 22 22 23 22 22 22 21 23 26 26 27 30 31 32 30 33 27 30
17 16 18 19 18 19 19 22 22 20 21 21 20 21 23 24 26 25 23 22 22 22 22 21 22 22 23 22 22 22 22 20 21 24 23 21 21 23 23 24 24 23 23 28 29 31 30 31 32 30 32 30 30 34
19 18 16 14 15 16 22 22 20 22 24 23 22 26 26 29 28 22 20 20 21 21 21 21 20 21 22 22 21 21 20 20 21 21 21 21 22 22 23 25 25 23 22 25 30 30 29 30 32 32 33 36 35 33
14 17 22 22 22 19 24 25 23 23 22 19 24 29 30 29 24 19 18 18 19 19 20 21 21 21 21 21 21 21 21 22 21 22 22 23 23 24 25 25 26 22 29 31 31 32 30 28 29 30 32 32 30 32
20 21 20 24 24 23 21 23 23 21 19 21 29 28 25 21 21 19 18 17 17 19 21 23 24 25 23 23 25 25 26 28 28 30 34 34 33 29 29 32 33 32 33 31 26 22 21 25 25 29 30 32 31 33
21 20 22 26 25 24 26 22 25 24 19 21 19 19 21 21 19 18 19 20 21 24 26 27 30 30 33 30 31 27 28 32 32 31 33 33 31 30 36 36 34 35 37 37 36 32 27 32 30 33 33 33 34 35
21 21 21 22 22 24 25 24 22 22 26 24 27 26 25 23 22 19 20 24 27 30 27 29 29 35 31 33 34 33 31 30 32 31 31 31 32 34 34 35 36 38 38 37 38 37 37 37 39 39 38 35 34 34
23 23 22 22 21 19 20 24 27 26 28 28 27 31 29 29 29 25 23 24 25 27 30 33 30 28 32 33 35 34 30 32 32 32 30 31 33 33 34 34 36 36 37 37 38 38 37 37 38 39 39 38 38 36
26 28 26 24 21 21 19 19 21 22 25 25 24 26 30 29 28 25 23 30 28 29 30 30 29 29 29 30 31 33 32 34 33 26 26 27 30 30 34 37 37 37 35 37 38 38 36 36 37 38 39 40 38 38

GFSWCAN_con_lsi_063.txt.gz
Lid_Strength_Index
1 1 1 1 2 2 1 1 1 1 1 2 2 3 2 2 2 3 4 3 4 6 6 5 5 7 6 7 10 8 8 8 9 12 13 13 14 12 13 12 13 14 15 15 15 15 16 9 10 11 8 9 8 8
2 1 1 1 1 1 1 1 1 1 1 2 3 3 3 2 2 2 5 3 3 5 6 3 3 2 3 4 6 6 8 8 8 10 11 11 13 13 12 14 10 14 11 13 12 12 8 9 8 8 8 7 8 7
2 2 2 2 1 1 1 1 1 2 2 3 3 3 2 2 2 3 5 4 4 6 5 5 6 3 2 2 1 8 7 5 7 5 9 10 13 10 14 13 12 10 9 11 10 9 9 8 8 8 8 8 7 7
3 3 3 2 2 2 2 2 3 3 3 3 3 3 3 2 2 3 5 3 4 4 9 7 2 4 1 2 2 2 4 4 5 5 9 11 12 8 12 10 11 9 9 10 10 9 9 8 8 8 8 8 8 8
4 3 3 3 4 3 3 3 3 3 3 3 3 3 3 2 3 4 3 2 2 5 9 8 4 3 2 2 3 3 4 5 6 8 11 11 9 9 11 10 11 8 9 11 12 8 8 7 7 8 9 9 9 10
3 4 4 4 4 4 4 3 3 3 3 3 3 2 3 3 3 5 7 3 2 3 7 10 5 6 4 3 4 5 5 5 6 8 9 8 7 9 12 13 8 8 8 8 8 8 10 10 10 10 10 10 10 10
3 3 3 3 3 4 4 4 4 3 3 3 3 3 3 3 4 6 6 3 2 1 7 10 10 6 4 4 5 5 4 5 6 7 9 8 8 8 12 12 9 9 9 9 9 9 10 10 10 11 11 11 11 12
3 3 3 3 3 3 3 4 4 3 3 3 3 3 2 2 2 4 1 1 0 4 5 11 10 8 5 8 9 5 7 6 7 8 10 9 9 12 12 10 10 10 10 11 11 10 10 11 12 13 12 12 13 13
2 2 3 3 3 3 3 3 3 3 3 3 2 2 3 4 5 3 1 1 0 3 10 11 12 13 6 8 8 8 8 12 9 12 10 9 11 13 9 10 10 10 10 12 12 12 12 13 13 13 13 13 13 14
1 1 1 2 3 3 3 3 2 2 2 2 3 6 8 4 1 1 3 5 5 5 8 10 9 11 8 10 10 10 11 13 13 11 9 11 11 10 9 9 9 10 11 12 13 14 14 14 14 14 13 13 13 14
1 1 1 1 2 1 2 2 2 2 2 4 5 6 3 0 3 5 9 9 8 10 8 9 8 10 6 10 11 10 12 13 14 13 12 13 13 11 9 9 9 10 11 11 10 11 11 12 13 14 14 14 14 14
1 1 1 1 2 2 1 1 1 2 3 3 3 2 2 5 7 10 11 10 10 11 9 9 8 8 8 6 10 11 13 14 15 12 13 14 12 11 11 11 11 10 11 11 11 13 13 13 14 14 14 15 15 16
0 0 1 1 1 1 1 1 1 1 2 3 4 7 7 9 12 12 14 12 12 10 9 9 10 9 10 9 12 13 14 15 13 14 14 14 12 12 12 12 12 11 11 12 13 13 14 14 14 14 16 15 15 16
1 1 1 1 1 1 1 2 1 2 4 8 9 11 11 12 11 11 11 11 10 11 9 10 11 11 11 12 13 14 13 14 15 16 17 14 13 12 12 12 12 13 13 13 14 14 14 15 16 16 16 16 17 17
4 3 2 2 3 3 3 3 3 5 8 10 10 13 12 11 11 10 10 10 10 10 10 11 11 11 13 14 13 14 15 17 17 17 14 14 13 13 13 13 14 14 15 15 15 16 16 16 16 17 16 16 17 18
4 5 6 4 4 4 4 5 6 7 9 11 13 13 12 12 13 12 12 12 12 12 12 12 13 14 14 14 15 16 16 18 16 15 14 13 14 14 14 14 14 15 15 15 15 15 16 17 17 18 18 18 18 18
5 7 5 4 5 5 6 8 9 12 12 13 14 14 15 14 16 15 14 15 13 13 14 13 15 17 14 17 18 16 18 16 15 14 14 14 14 15 15 15 15 15 15 15 16 16 17 17 17 17 19 18 18 19
8 5 5 5 6 7 8 10 13 13 15 15 17 16 17 17 17 17 16 15 14 14 15 17 16 19 21 20 20 18 16 15 14 14 14 14 14 14 14 15 15 15 16 16 16 16 16 17 17 18 18 18 18 18
6 6 6 6 7 9 12 12 11 15 17 15 16 16 16 17 17 17 16 15 15 15 16 18 21 22 22 20 20 19 17 15 16 16 16 15 15 15 16 16 16 16 16 17 17 17 17 17 17 17 17 17 19 19
7 6 7 7 7 12 13 12 11 14 17 17 16 18 18 18 18 18 18 17 17 18 21 22 23 21 21 20 18 17 15 14 16 18 18 17 17 17 17 17 17 17 18 18 18 18 18 19 18 18 18 18 19 20
9 9 8 8 11 12 13 13 13 13 14 16 15 16 17 17 19 20 20 18 20 21 22 21 21 20 19 18 17 17 17 17 18 17 18 19 18 18 18 18 18 19 19 20 20 20 20 20 20 20 20 20 19 19
11 9 12 11 12 12 13 13 13 12 13 14 14 15 17 19 20 20 19 21 22 21 20 20 20 20 20 20 19 18 18 18 19 19 20 19 20 21 21 20 20 21 21 21 21 21 21 21 21 21 21 20 20 20
11 12 14 14 15 15 15 12 14 14 16 16 15 18 19 19 19 18 22 21 22 20 19 19 19 19 20 19 19 19 19 20 21 21 21 22 22 22 22 22 21 22 23 22 21 22 23 23 23 23 22 22 21 22
12 17 19 19 18 20 17 17 14 15 15 16 17 19 19 20 18 22 24 23 22 21 21 20 19 20 21 21 23 22 20 20 21 21 21 22 24 24 23 23 23 23 23 23 24 24 25 25 25 23 24 24 24 24
16 17 17 20 19 21 23 21 20 19 19 18 19 20 20 18 23 24 25 23 22 23 22 21 21 21 22 22 22 22 21 21 22 23 22 22 23 23 23 23 24 23 22 24 25 24 25 25 25 25 24 25 24 24
19 18 20 20 18 19 19 21 21 21 21 21 22 22 22 23 25 25 23 22 22 22 23 22 21 22 23 22 22 23 22 21 22 24 24 22 22 23 24 24 24 23 22 23 23 23 24 24 24 24 23 23 28 25
20 20 18 16 17 18 22 22 20 22 23 23 23 27 26 29 27 22 20 20 21 22 21 21 20 21 22 22 22 22 22 22 23 23 22 22 23 22 23 24 24 23 22 24 24 24 23 24 24 24 25 24 24 25
16 19 23 24 23 21 27 26 26 24 23 20 24 30 31 30 25 20 19 19 19 20 21 21 21 22 22 22 22 22 22 22 22 22 22 23 24 24 26 25 26 24 26 26 25 24 24 24 23 24 25 25 25 25
22 22 21 27 26 25 25 26 26 23 21 23 29 28 25 22 21 19 18 18 18 20 22 23 24 24 23 23 24 25 25 24 24 26 27 27 27 24 26 26 26 27 28 25 25 20 22 22 24 25 26 26 27 28
23 21 24 28 28 27 27 25 25 24 20 20 19 20 21 21 20 19 19 19 20 22 24 26 27 25 27 25 26 24 26 28 26 26 26 27 26 24 27 27 26 27 28 26 26 24 25 26 25 27 27 27 28 27
22 22 24 24 26 26 25 27 27 23 26 25 26 26 24 22 20 20 21 23 23 24 23 25 27 29 26 27 26 26 26 26 30 27 26 26 26 26 26 27 28 29 28 27 27 27 27 27 28 29 28 28 30 30
25 25 24 24 23 22 21 27 29 27 29 27 27 30 28 26 27 22 21 22 22 24 28 28 25 24 27 28 30 29 30 27 26 27 27 26 25 26 26 27 29 29 28 28 29 29 29 28 28 29 29 29 30 30
28 29 27 24 23 22 21 21 23 24 25 25 25 26 30 27 27 24 23 28 24 24 25 25 25 26 27 29 27 27 30 28 30 26 26 26 28 27 26 27 28 28 28 27 28 29 28 29 28 29 29 31 31 31

GFSWCAN_con_lsi_066.txt.gz
Lid_Strength_Index
1 1 1 1 2 1 1 1 2 1 1 1 1 1 2 2 2 3 3 1 3 5 4 3 4 6 5 6 9 6 7 7 8 11 11 12 13 11 11 10 12 13 14 15 13 17 17 7 8 9 6 5 5 5
2 1 1 2 2 1 1 1 1 1 1 1 1 1 1 2 2 3 5 2 0 3 5 2 2 2 3 3 5 5 6 6 7 9 9 9 13 12 11 14 8 13 10 11 11 10 7 6 5 4 4 5 5 4
3 2 1 1 2 2 1 1 1 1 1 1 1 1 2 2 2 3 4 2 1 5 4 4 5 2 1 1 1 6 5 4 5 4 7 8 12 9 14 11 9 8 7 10 10 7 7 6 5 5 5 5 5 5
3 2 2 1 1 1 1 1 1 1 1 1 1 2 2 2 2 3 5 1 2 4 9 6 2 3 1 1 1 1 2 3 3 4 7 10 11 7 10 9 10 8 8 8 9 7 7 6 5 4 5 5 5 5
3 3 2 2 1 1 1 1 1 2 1 2 2 2 2 2 3 3 2 1 1 3 9 7 3 2 2 2 2 2 3 4 5 7 9 10 7 8 8 8 10 7 8 11 11 7 7 6 5 4 5 5 5 6
3 3 3 3 2 2 2 2 2 2 2 2 2 2 3 3 3 4 6 2 1 1 6 10 4 6 3 2 3 3 3 4 5 6 7 6 6 7 12 11 7 6 5 5 7 6 6 7 7 7 5 5 6 6
3 3 3 3 3 3 3 3 3 3 3 3 3 3 3 3 2 5 6 3 1 1 8 10 10 5 4 4 4 4 3 4 5 6 7 7 7 7 10 11 7 6 5 5 6 7 7 8 7 8 7 7 7 7
3 3 3 3 3 3 3 3 3 3 3 3 3 3 3 3 3 3 1 2 2 5 7 11 11 9 4 8 9 5 7 6 6 6 6 8 7 7 11 7 6 5 7 7 8 7 7 8 8 9 8 9 10 10
3 3 3 3 3 4 4 3 3 3 3 3 3 3 3 4 5 3 2 2 1 5 9 11 12 13 6 7 7 7 6 11 6 10 8 8 10 12 8 7 6 6 7 6 8 8 8 9 9 9 9 9 10 10
3 3 3 3 4 4 3 4 3 3 3 3 4 6 8 4 1 2 4 5 6 5 6 10 9 11 7 8 9 9 7 10 13 10 7 11 10 6 6 6 5 6 7 7 9 10 10 10 10 10 10 10 10 11
2 2 3 3 3 3 3 3 3 3 3 4 7 7 2 1 3 5 8 9 8 10 7 9 9 10 7 10 10 8 10 10 14 11 12 13 12 8 7 7 7 7 7 7 7 8 9 9 10 11 12 12 12 13
1 1 2 3 3 3 3 3 3 3 4 5 4 2 3 6 7 9 11 9 10 11 8 9 8 7 7 5 8 9 11 11 14 10 13 14 12 10 9 9 8 8 8 9 8 9 10 11 13 14 14 15 15 16
1 2 2 2 2 2 2 2 3 1 1 1 3 6 7 8 12 13 14 12 12 9 8 8 10 7 6 6 9 9 12 13 11 13 14 14 12 11 11 11 11 11 12 12 12 13 13 14 14 15 16 16 15 16
2 1 2 2 2 2 2 2 1 1 2 6 9 11 10 12 10 9 10 9 8 7 8 7 8 8 7 9 9 13 11 11 14 15 16 14 14 13 12 12 13 14 15 15 15 15 16 15 15 14 14 14 15 16
1 1 1 1 1 2 2 2 2 2 4 9 8 12 11 9 9 9 9 8 9 6 7 8 8 8 10 11 10 11 13 14 15 15 14 14 13 14 14 14 15 16 16 16 15 15 15 14 15 15 15 15 16 16
3 3 3 3 3 3 3 2 3 3 7 9 11 12 12 11 13 12 11 11 10 9 8 9 11 11 12 11 12 14 14 16 16 15 14 13 14 14 15 15 15 15 15 15 14 15 15 16 16 16 16 17 17 17
4 5 5 5 4 5 4 4 6 9 11 12 13 12 13 13 14 14 12 12 10 10 11 10 12 14 11 14 16 15 17 16 15 14 13 13 14 15 15 14 14 14 15 15 15 15 16 15 15 16 18 17 17 17
6 5 5 5 5 6 7 8 10 11 14 13 15 14 14 15 17 17 16 15 13 14 13 16 14 18 18 18 18 17 16 15 14 14 14 14 14 14 14 15 14 15 15 15 15 15 15 16 16 17 17 17 17 17
6 5 6 6 6 8 11 11 11 16 16 15 16 16 15 17 16 17 16 15 15 14 16 18 20 21 21 19 19 17 15 15 16 16 16 15 15 15 15 15 15 15 16 16 16 16 16 16 16 16 16 16 17 16
6 7 7 7 7 10 12 12 10 14 16 16 16 18 18 18 17 17 18 17 16 18 20 21 22 21 20 19 17 16 14 14 15 17 17 17 16 16 16 16 16 16 17 17 17 17 17 17 17 17 17 16 17 17
8 8 7 8 9 10 11 12 12 13 13 15 14 15 16 16 18 19 19 17 19 20 22 20 20 19 18 17 16 16 16 15 16 16 18 18 17 17 17 17 17 17 17 18 18 19 19 19 18 17 17 18 18 18
10 9 9 9 10 11 11 11 12 11 12 13 13 14 17 18 19 19 18 21 22 21 19 20 20 19 19 20 19 18 18 18 18 18 18 18 19 19 19 18 18 19 19 19 19 20 20 20 19 19 19 19 19 20
9 9 11 11 12 12 14 10 13 13 14 14 14 17 18 18 18 17 21 21 21 19 18 18 19 19 19 19 19 19 19 19 20 20 20 20 20 20 20 19 19 20 21 21 20 21 21 21 21 20 20 20 19 19
10 14 15 15 14 16 13 15 13 14 14 15 17 19 19 18 17 20 23 22 21 20 20 19 19 20 20 21 22 21 20 20 21 21 20 21 22 22 21 21 21 21 21 21 21 21 21 22 22 21 21 20 20 20
13 16 14 16 13 15 16 17 17 16 18 17 19 19 19 17 21 22 23 22 21 21 20 20 20 20 21 22 22 22 20 20 21 22 20 20 21 21 21 21 21 21 20 21 21 21 22 21 20 20 20 21 21 20
17 16 16 16 16 16 16 18 18 18 17 18 19 18 18 20 23 24 22 21 21 22 21 21 21 22 22 21 22 22 21 19 20 22 22 20 19 20 20 21 22 22 20 20 20 20 20 20 20 21 20 20 22 20
18 17 15 15 15 15 17 16 16 18 20 20 19 20 19 23 23 20 18 19 20 20 20 19 19 20 21 21 21 20 20 20 21 21 21 21 21 21 20 21 22 21 19 20 19 19 20 20 20 20 20 19 19 20
15 15 19 18 18 18 20 20 21 21 20 19 19 23 23 23 22 19 18 17 17 18 18 19 18 18 19 19 19 20 20 21 21 20 20 20 20 20 21 20 21 22 20 20 19 19 19 19 20 20 20 21 21 21
17 16 17 23 21 21 22 22 22 20 19 19 21 22 22 20 19 17 17 17 16 16 18 19 19 18 18 19 19 19 18 17 19 21 21 21 20 21 20 20 20 20 19 19 19 18 19 20 20 21 22 21 21 20
17 15 19 22 23 22 21 20 20 19 18 17 17 18 19 19 18 16 15 15 17 18 18 19 19 17 18 18 19 20 20 19 19 18 20 20 20 20 20 20 20 20 20 19 19 19 20 20 20 20 21 21 21 21
16 15 18 19 20 19 18 18 16 17 17 17 17 18 19 18 17 17 17 17 17 18 17 18 19 18 18 19 18 19 20 20 22 21 19 19 19 19 20 20 20 20 20 20 20 20 20 20 21 22 22 23 24 24
16 17 18 19 19 17 16 16 15 16 16 16 18 17 18 17 19 17 17 16 16 16 20 17 17 18 19 19 20 20 24 20 20 20 20 19 19 20 20 20 20 20 20 20 20 21 22 22 22 23 23 23 24 24
16 15 16 16 17 18 16 15 16 18 17 17 17 17 18 17 19 17 17 18 16 15 16 16 17 18 19 20 19 19 22 19 23 22 22 22 23 22 19 19 19 20 21 21 21 22 23 24 23 23 23 24 24 24

GFSWCAN_con_lsi_069.txt.gz
Lid_Strength_Index
2 2 2 1 1 1 1 1 1 1 1 1 0 0 0 0 0 2 3 1 3 5 5 4 4 5 5 5 8 6 8 8 8 11 11 10 12 10 11 10 12 13 14 15 13 16 16 6 7 9 7 5 4 4
3 2 1 1 1 2 1 1 1 1 1 1 1 1 0 0 1 2 4 1 0 4 4 2 1 2 2 2 4 5 6 6 6 8 8 8 11 12 10 13 8 14 10 12 10 11 6 5 5 4 4 5 4 4
3 2 1 1 1 1 1 1 1 1 2 1 1 0 1 1 1 2 2 1 2 4 4 4 4 2 0 1 1 6 5 3 5 3 6 7 11 8 14 11 9 7 6 9 9 7 6 5 4 4 4 4 4 4
3 2 1 1 2 2 1 1 1 2 2 1 1 1 1 2 2 2 2 1 2 4 8 6 1 3 1 1 1 2 3 3 3 3 6 9 10 6 10 8 9 7 7 8 8 6 6 5 5 4 4 3 4 3
3 1 2 1 1 1 2 2 2 1 1 1 1 1 1 2 2 2 1 1 1 4 7 6 3 2 1 2 3 3 3 4 5 7 9 10 6 6 6 7 9 6 7 9 10 6 6 6 5 4 4 4 4 4
3 2 1 1 1 1 1 2 1 1 1 2 1 1 2 2 2 3 7 2 1 1 5 9 3 4 2 2 3 4 4 4 4 6 7 5 4 6 11 10 6 5 4 5 6 5 5 5 6 5 5 4 3 3
3 3 2 2 2 1 1 1 1 1 2 2 2 2 3 3 3 5 6 3 1 1 4 8 7 4 3 3 3 4 4 4 4 6 7 6 6 6 9 11 6 5 4 4 4 5 6 5 5 6 6 5 5 4
3 3 3 3 3 2 2 2 2 2 3 3 3 2 2 2 2 3 2 2 1 3 3 8 9 8 4 7 7 4 6 5 5 6 6 7 7 7 10 7 5 5 5 5 5 5 5 5 6 6 6 6 6 6
3 3 3 3 3 3 3 3 3 3 3 3 3 3 3 3 5 4 2 2 0 3 7 9 10 12 5 7 7 6 5 9 5 8 8 7 9 11 7 6 6 5 5 5 5 5 5 6 6 7 7 7 7 8
4 4 3 3 3 3 3 3 3 3 3 3 3 5 7 4 3 3 5 5 5 4 5 9 7 10 8 8 9 9 7 10 12 10 6 9 9 6 5 5 5 5 4 5 6 7 7 7 7 7 7 7 7 8
3 3 3 3 3 3 3 4 4 4 3 4 6 7 3 3 2 5 8 8 8 10 7 7 8 10 8 10 10 8 11 10 14 12 11 12 11 8 6 5 4 4 4 5 5 5 5 6 7 8 8 9 9 11
3 3 3 3 3 3 3 4 3 3 3 4 3 3 3 5 8 9 10 9 10 11 7 8 10 11 9 6 8 9 11 10 15 9 12 14 12 10 8 7 6 6 6 6 7 8 8 9 10 11 13 14 15 16
3 3 3 3 3 3 3 3 3 4 3 1 4 6 7 9 12 13 14 11 12 8 8 9 11 8 7 6 9 10 14 14 9 13 14 12 11 11 11 12 12 11 11 11 12 13 14 14 14 15 16 15 15 16
3 3 3 3 2 3 3 3 3 2 5 5 9 11 11 12 11 10 10 9 8 8 7 7 9 9 8 9 10 13 11 10 14 15 14 12 13 13 13 13 15 15 15 15 15 15 16 16 15 15 15 14 15 15
3 2 2 2 2 2 2 2 2 2 3 7 7 12 11 9 9 9 8 8 9 6 6 8 8 8 10 11 10 11 13 14 13 14 14 14 13 14 15 15 16 16 15 15 14 15 15 15 15 15 14 14 15 15
2 2 3 2 2 2 2 2 1 2 5 8 10 11 10 9 11 11 11 11 10 9 5 7 10 11 12 11 12 13 14 15 15 14 13 14 15 15 15 15 15 15 15 15 15 15 15 15 16 16 15 16 16 16
2 3 3 2 2 2 3 2 4 8 9 10 12 11 10 11 13 13 12 12 11 9 11 10 12 14 10 13 15 13 15 14 13 14 14 14 15 15 14 14 14 14 14 15 15 15 15 15 15 16 17 17 17 17
5 4 4 4 3 4 5 5 8 10 13 12 13 12 12 13 14 15 14 12 11 11 11 13 11 14 15 15 16 14 14 14 14 14 14 14 14 14 14 14 14 14 15 15 15 15 15 15 16 16 16 16 16 16
5 4 5 5 5 7 9 9 8 14 13 12 13 12 13 14 13 14 13 12 12 12 12 14 17 18 18 17 17 15 14 15 16 16 15 14 14 15 15 15 15 15 15 15 15 16 15 15 15 15 15 15 16 16
7 7 7 6 6 9 11 11 9 13 15 15 14 16 16 17 16 16 16 15 16 17 19 20 21 20 20 18 16 15 15 14 15 16 17 16 15 15 15 15 16 15 15 16 16 16 16 17 17 17 16 17 17 18
7 8 7 6 7 9 11 11 12 12 13 14 14 15 16 15 18 18 18 17 19 19 21 19 19 18 17 17 16 15 15 14 15 16 17 18 16 16 16 16 15 16 16 17 17 18 18 18 18 17 17 18 18 17
9 8 8 7 9 9 10 10 11 11 12 13 13 14 16 18 19 19 18 20 21 20 19 20 19 18 19 19 18 17 17 17 17 17 17 17 18 18 18 17 17 18 18 18 19 19 19 18 18 18 18 18 18 19
8 7 9 9 11 11 13 9 12 12 13 14 14 16 17 17 17 16 20 20 20 18 17 18 19 18 18 18 18 18 18 18 19 19 19 19 19 18 18 18 18 19 20 20 19 19 20 20 19 19 18 18 18 18
9 12 13 13 12 14 11 14 12 13 13 15 16 18 18 17 16 18 22 21 20 18 18 18 17 19 19 20 20 19 19 18 19 19 19 20 20 20 20 20 19 19 19 19 19 19 19 20 19 19 19 19 19 19
12 15 12 14 12 13 14 14 14 14 17 16 18 18 18 15 19 21 22 21 20 20 19 19 19 19 21 21 21 21 19 19 20 20 19 19 20 20 20 20 20 19 18 18 19 20 20 19 19 20 20 20 19 19
16 15 15 14 14 14 14 15 15 15 15 16 16 15 14 16 20 22 21 20 20 20 19 19 20 21 22 21 22 22 20 19 19 21 20 18 18 18 19 19 20 21 18 18 18 19 19 19 19 19 19 19 20 19
16 15 14 13 13 13 14 14 14 15 17 17 16 17 16 20 21 19 17 17 18 17 17 17 18 19 21 21 20 20 20 19 20 20 19 19 19 19 18 20 21 20 19 18 18 18 18 19 19 19 19 18 18 18
14 14 18 16 16 15 18 17 18 19 18 17 15 20 20 20 20 17 17 16 16 16 17 17 17 17 17 17 17 18 18 18 18 18 18 18 18 19 19 20 19 20 19 18 18 18 18 18 18 18 19 18 19 18
14 13 16 21 18 18 19 19 19 18 18 16 17 19 20 19 16 16 16 15 14 15 16 17 17 16 16 16 16 16 15 15 17 19 19 19 19 19 18 18 18 18 17 17 18 18 18 18 19 19 19 18 18 17
15 12 17 19 20 20 19 17 18 17 16 16 17 18 18 17 16 13 13 13 14 15 15 15 14 14 16 16 17 18 17 17 16 16 17 18 19 18 17 18 17 18 17 17 17 17 19 17 17 17 18 18 18 19
12 13 16 17 19 18 16 15 15 15 15 15 14 15 17 16 15 15 15 14 14 14 15 16 16 15 15 16 16 17 18 18 19 18 17 17 17 17 18 18 17 17 17 17 18 18 18 18 17 19 20 20 21 21
13 14 16 18 17 15 13 13 13 14 13 14 15 15 15 15 17 15 14 13 13 14 16 14 15 16 16 16 17 18 18 17 17 17 17 17 17 17 17 17 17 17 18 18 18 18 19 20 19 20 20 20 21 21
13 13 13 14 15 15 13 13 14 15 13 14 15 14 14 14 16 14 14 13 12 13 13 14 14 15 16 16 16 17 16 17 19 18 19 20 21 20 17 16 17 17 19 18 18 19 20 20 20 21 21 21 21 21

GFSWCAN_con_lsi_072.txt.gz
Lid_Strength_Index
2 2 2 2 2 2 2 1 1 1 1 1 1 1 1 0 1 1 3 1 4 6 5 4 4 6 6 6 9 6 7 7 8 11 12 12 13 10 11 11 12 13 14 15 14 16 17 6 7 10 8 5 5 5
3 3 2 2 2 1 1 1 1 1 1 1 2 1 1 0 1 1 4 2 1 4 5 2 2 2 3 3 5 5 6 7 7 9 9 9 12 11 10 14 9 14 12 13 12 12 7 6 6 5 5 5 5 5
3 2 2 1 1 1 1 1 1 1 1 1 1 1 0 0 0 2 3 2 2 5 5 5 5 2 1 1 1 6 5 4 6 5 7 8 11 9 14 12 10 8 7 10 10 8 8 6 5 4 4 5 4 4
2 1 1 1 1 1 1 1 1 1 1 1 1 1 0 0 0 1 3 2 3 5 9 7 2 3 1 1 2 2 3 3 4 4 8 9 11 7 11 9 9 8 7 9 9 7 6 6 5 5 5 4 4 4
2 1 1 1 2 1 1 1 1 1 1 1 1 0 0 0 0 1 1 1 1 4 9 7 3 2 1 2 2 2 3 4 7 8 9 10 7 8 8 8 10 7 8 10 11 6 7 6 5 4 5 5 4 4
2 2 1 1 1 2 1 1 1 1 2 1 1 0 0 0 0 2 6 2 1 1 6 10 3 4 3 2 3 3 4 4 6 8 8 6 5 7 12 11 7 5 6 6 7 5 5 5 5 5 5 4 4 4
3 2 1 1 2 1 2 2 2 2 1 1 1 1 1 1 2 4 5 3 1 0 6 9 8 4 3 3 4 4 4 5 6 7 9 8 7 6 10 12 6 5 5 4 4 5 6 5 6 5 5 5 5 4
3 2 1 2 2 1 2 1 2 2 2 2 2 2 2 2 2 3 1 1 0 3 4 9 9 7 3 7 8 4 6 6 6 7 7 8 7 7 11 7 6 5 4 5 5 4 5 4 5 6 6 6 6 6
3 3 3 2 1 2 2 2 2 2 2 2 2 2 2 3 4 4 2 2 -0 4 8 9 10 12 6 6 6 7 6 10 7 9 9 8 10 12 8 7 6 5 5 5 5 5 5 6 6 6 6 6 7 7
3 3 3 3 3 3 3 3 3 3 2 2 2 4 8 4 2 2 3 5 5 5 5 9 6 10 7 9 9 9 8 10 12 10 6 10 10 6 6 5 5 5 5 5 6 7 6 6 7 7 7 7 7 7
3 3 3 3 3 3 3 3 2 2 2 3 6 7 4 3 3 5 8 8 7 9 7 7 7 9 7 11 11 8 11 10 13 11 11 12 11 8 7 6 5 4 4 5 5 5 5 6 7 8 11 12 12 14
3 3 3 3 3 3 3 3 3 2 3 4 4 3 3 6 8 9 10 8 9 10 7 9 8 7 9 8 11 9 12 11 15 9 13 14 12 10 10 10 8 6 6 7 9 10 11 12 12 13 14 14 15 15
3 3 3 4 3 3 3 3 3 3 2 2 5 7 7 9 12 12 13 12 11 8 8 8 10 9 10 9 10 11 13 14 9 13 14 12 11 11 11 11 12 11 11 12 12 13 13 14 14 14 15 16 16 16
3 3 3 3 4 4 4 4 4 3 2 6 9 11 11 12 11 11 11 10 9 8 8 7 9 9 10 12 11 13 11 11 14 15 14 13 13 13 13 14 14 15 15 15 15 15 15 15 15 15 15 15 16 17
3 3 3 3 3 3 3 4 4 3 5 9 9 12 12 10 11 10 9 9 11 9 7 8 8 8 10 11 11 11 14 15 15 15 14 13 13 14 15 15 15 15 15 15 15 15 16 16 16 16 16 16 17 18
2 2 3 3 2 2 2 3 3 3 6 9 11 12 11 11 13 12 12 12 11 12 9 7 10 12 12 11 12 15 14 17 15 13 13 13 14 15 15 15 15 15 15 15 15 16 16 17 17 17 17 17 17 17
2 3 3 3 3 3 3 3 4 8 9 10 11 11 11 12 13 14 13 13 12 12 11 9 13 14 10 13 16 15 16 14 14 14 14 14 15 15 15 15 15 15 15 15 16 16 16 16 17 17 18 18 17 17
3 2 3 3 2 3 4 5 7 9 13 12 13 12 12 12 13 13 13 13 12 11 11 14 11 15 17 17 17 14 13 13 13 13 14 14 14 14 14 15 15 15 15 15 16 16 16 16 17 17 17 16 16 16
5 4 5 4 4 5 8 8 7 13 13 12 12 12 12 12 12 13 14 13 12 12 13 14 18 19 19 17 16 14 14 14 15 15 16 15 15 15 15 15 16 16 16 16 17 17 16 16 16 16 16 16 17 16
6 6 6 5 5 8 10 10 7 11 13 13 12 14 14 15 14 14 15 14 14 15 18 19 20 19 18 16 15 13 14 14 15 17 18 16 15 15 16 16 16 16 16 16 17 17 17 18 17 17 17 18 18 19
6 6 6 5 6 8 10 11 12 12 12 14 13 14 14 14 16 17 17 15 18 19 20 18 18 18 17 17 16 16 16 15 16 17 18 18 17 16 17 16 16 17 17 18 18 19 18 19 18 18 19 19 18 18
8 7 7 6 9 9 10 10 11 11 12 13 13 14 16 18 18 18 17 20 20 20 19 19 19 19 19 19 18 18 18 17 17 17 17 17 19 18 18 18 18 19 19 19 19 20 20 19 18 18 19 20 20 20
8 7 8 8 11 11 13 9 12 12 14 14 13 16 17 17 17 16 21 20 20 18 18 19 19 18 19 18 18 18 18 19 20 20 19 19 19 19 19 19 18 19 20 20 19 20 20 20 20 19 19 18 18 19
9 11 12 12 12 14 11 13 11 13 13 15 16 18 18 17 16 19 22 21 20 18 18 18 18 20 20 20 20 19 19 19 19 19 19 20 20 20 19 19 19 19 19 19 19 20 20 20 20 19 19 19 19 20
13 15 12 14 11 12 13 13 13 13 16 15 16 17 17 15 19 20 22 21 20 19 19 19 19 19 21 21 21 20 19 18 19 20 19 19 20 20 21 20 20 19 18 19 20 20 20 19 20 20 21 21 20 20
16 14 15 14 14 14 14 15 15 15 15 16 16 14 13 16 19 20 19 19 19 19 19 19 20 21 22 21 22 22 20 19 20 21 21 19 18 18 20 21 22 21 18 17 18 20 20 20 20 19 20 21 22 20
15 15 13 12 12 12 14 13 13 15 17 17 16 16 15 19 21 19 17 16 17 17 16 16 17 18 19 20 20 20 20 20 20 21 20 20 20 19 19 20 22 20 18 18 18 18 19 19 19 19 19 19 20 19
14 14 17 15 16 14 17 17 17 18 18 16 15 19 20 19 20 17 17 16 16 16 16 16 16 16 17 17 17 17 18 18 18 18 18 18 18 18 19 19 19 19 20 18 18 18 18 18 19 19 19 20 20 18
14 13 16 20 17 18 18 18 18 18 17 16 17 19 20 17 16 16 15 15 14 15 16 17 17 16 16 16 16 16 15 15 17 18 19 20 20 20 18 18 18 17 17 18 18 18 19 19 20 19 19 18 18 17
15 12 16 18 19 20 19 16 17 15 16 16 17 18 18 17 15 12 13 13 14 14 14 14 13 14 15 16 18 18 17 17 17 16 18 19 19 18 17 18 18 18 17 17 18 19 19 18 17 18 18 18 19 20
11 13 15 16 18 17 16 15 14 14 14 15 14 16 17 16 15 13 13 13 13 13 14 15 14 14 15 15 15 17 19 18 18 17 17 17 17 17 18 18 18 17 17 18 18 18 19 18 18 18 19 20 20 21
12 14 16 18 18 15 13 13 13 14 13 14 15 14 14 14 16 15 14 12 13 14 14 13 15 16 15 16 16 16 17 17 17 17 17 16 17 17 17 17 17 17 18 18 18 18 19 19 19 19 20 20 21 21
12 12 13 14 15 14 13 12 13 14 13 14 14 14 14 14 16 15 12 12 12 12 13 13 14 15 15 15 15 16 16 17 18 18 19 19 21 20 19 16 17 18 18 18 18 18 19 20 20 20 21 21 21 22

GFSWCAN_con_lsi_075.txt.gz
Lid_Strength_Index
3 2 2 2 2 2 2 2 2 2 1 2 1 1 1 1 1 2 3 2 5 8 7 6 5 7 7 7 10 8 8 8 10 12 13 14 15 12 13 11 13 14 15 16 15 17 19 7 7 11 9 7 6 7
2 2 3 2 2 2 2 2 2 2 2 2 2 2 2 1 1 1 4 2 2 5 6 3 3 3 4 5 6 7 8 8 8 11 11 11 13 13 12 16 10 14 12 14 13 13 8 7 7 6 6 7 6 7
3 2 2 1 1 1 1 1 1 1 1 1 1 1 1 1 1 1 4 3 3 5 6 5 6 3 2 3 2 8 7 6 7 6 9 10 13 10 16 13 12 10 8 12 11 9 8 7 6 6 5 5 5 5
2 2 2 1 1 1 1 1 1 1 1 1 1 0 1 1 1 2 4 3 3 7 10 8 2 4 1 2 2 3 4 4 5 6 9 10 12 8 12 11 11 9 9 10 10 9 8 7 7 6 6 5 5 5
2 2 1 1 2 1 1 1 1 1 1 1 1 1 1 1 1 2 2 2 2 5 9 8 4 3 2 2 3 4 4 6 7 9 11 11 9 9 9 10 11 8 9 11 12 8 8 7 6 5 6 5 5 5
2 1 1 2 2 1 1 1 1 1 1 1 1 1 1 1 1 2 6 2 1 2 7 11 5 4 4 3 4 5 5 6 7 8 9 8 6 9 12 13 8 6 6 6 8 6 7 6 6 6 6 6 6 6
2 1 1 1 2 1 1 1 1 1 1 1 1 0 0 0 1 4 6 3 1 1 6 10 10 6 4 4 5 5 5 6 7 8 9 9 8 8 11 13 8 6 6 6 6 6 8 7 7 6 7 7 6 6
2 2 2 1 1 2 2 1 1 1 1 1 0 0 0 0 1 3 2 1 1 4 5 11 12 9 5 8 9 6 8 7 7 8 8 9 8 9 12 8 7 6 5 6 6 6 6 6 7 8 7 8 8 9
2 2 2 2 2 2 1 1 1 1 1 0 0 0 1 2 5 4 1 1 1 4 10 12 13 14 7 8 7 7 7 10 8 12 9 9 10 12 9 8 7 6 6 6 6 6 6 7 7 8 8 8 9 10
2 3 3 3 2 3 2 2 1 1 1 1 1 5 8 4 1 2 4 6 6 6 7 12 10 12 8 9 10 9 9 10 12 11 8 11 11 8 8 7 6 6 6 6 7 8 8 8 9 10 12 12 13 14
3 3 3 3 3 3 3 2 2 2 2 3 6 7 4 2 3 6 10 10 9 11 9 10 9 10 8 10 11 9 11 10 14 12 11 13 13 9 9 10 8 9 9 10 10 8 7 10 12 13 14 15 15 16
3 3 3 3 3 3 3 2 2 3 4 4 5 3 4 6 8 10 12 11 11 12 10 9 9 9 8 8 12 10 12 11 15 9 12 14 13 11 11 12 11 11 11 12 12 13 13 14 14 15 16 16 16 16
3 3 3 3 3 3 3 3 3 2 2 4 5 8 8 10 13 15 16 14 14 11 9 9 11 10 9 8 11 12 12 13 10 13 14 13 13 12 12 13 13 13 13 13 14 14 14 15 15 15 16 16 16 17
3 3 3 3 3 3 3 3 3 3 3 8 9 13 12 14 13 13 11 10 10 9 9 10 10 11 11 12 12 13 11 11 14 15 16 14 14 14 14 13 14 15 14 14 14 14 15 15 15 16 16 16 17 17
3 3 3 4 3 3 3 3 3 4 8 12 12 15 14 12 13 12 12 11 12 11 10 10 11 10 12 12 12 12 13 16 16 17 15 14 14 14 14 14 14 14 14 15 15 16 17 17 17 18 18 18 18 18
3 3 4 4 3 3 3 4 5 6 9 12 14 14 13 14 15 14 15 15 12 13 11 10 11 11 12 13 15 17 16 19 18 15 14 14 15 15 15 15 15 15 16 17 17 17 17 18 18 18 17 18 18 18
2 4 3 3 3 3 3 5 8 11 12 12 15 14 14 15 15 14 14 14 13 13 11 11 14 15 12 16 17 16 18 17 15 15 14 14 14 15 15 15 16 16 17 17 17 18 18 17 17 18 19 18 18 18
4 4 3 3 3 3 5 6 10 11 15 14 15 14 14 14 15 15 14 14 13 13 13 14 13 17 19 19 20 16 16 15 14 15 15 15 15 15 15 16 16 16 17 17 17 17 17 18 18 18 18 18 18 19
6 5 4 4 4 6 10 10 9 15 14 14 15 14 13 14 14 14 15 14 13 14 15 17 21 21 21 18 19 17 16 16 17 16 16 16 16 17 17 17 17 17 17 17 18 18 18 18 18 18 18 18 19 19
5 5 5 4 4 8 10 10 8 12 14 14 13 15 15 16 16 17 18 17 16 17 19 20 21 21 20 19 18 15 15 15 15 17 18 17 17 17 17 17 18 18 18 18 18 19 19 20 19 19 20 20 21 20
6 7 6 6 8 9 11 11 12 12 12 14 13 14 15 15 19 20 19 17 20 20 21 19 20 19 18 18 17 16 15 16 16 17 18 19 18 18 18 18 18 19 19 20 20 20 21 21 21 21 22 21 22 21
9 7 9 8 11 11 11 11 12 11 13 14 14 14 16 18 18 19 18 20 20 20 19 19 19 19 19 20 20 19 19 19 19 19 19 19 20 20 20 20 21 22 21 21 21 22 21 20 21 22 23 23 22 22
7 8 11 11 14 14 15 10 13 13 15 15 15 17 17 18 17 16 21 20 20 18 19 20 20 19 20 20 19 19 19 20 21 21 21 21 21 20 20 21 21 22 22 22 21 21 22 22 22 22 21 22 24 25
9 12 14 15 13 15 15 17 13 14 16 17 18 20 19 18 17 21 24 22 21 19 19 20 20 21 21 21 21 21 20 20 21 21 20 21 21 21 21 21 21 21 20 21 21 22 22 24 24 23 25 26 26 26
17 18 16 19 14 14 14 16 17 17 21 18 20 20 19 16 22 23 24 22 21 21 21 21 20 21 22 22 22 21 20 19 20 21 21 21 21 21 22 22 21 20 20 21 22 23 24 24 25 25 25 27 25 27
19 17 17 15 15 16 16 17 17 18 17 19 18 16 18 22 25 24 21 21 20 19 19 20 21 22 22 22 23 22 21 20 20 23 22 22 19 21 22 23 23 22 20 20 22 24 24 23 23 26 27 26 27 28
20 19 15 13 14 14 18 17 16 20 23 21 19 22 22 27 26 21 18 18 18 18 17 17 18 20 20 20 20 19 19 19 20 21 20 21 21 21 21 23 23 21 20 21 21 23 25 26 26 26 28 30 31 30
17 17 21 19 20 17 22 22 23 23 22 19 19 25 27 25 24 19 18 17 17 17 17 17 16 17 17 18 18 19 19 19 19 19 19 19 20 21 22 22 21 20 23 23 24 25 25 27 29 29 29 30 30 30
17 17 19 25 22 22 21 22 22 19 18 19 22 24 24 18 19 19 17 16 16 16 18 18 18 17 18 18 19 19 19 18 19 21 22 23 25 22 23 24 23 21 24 26 21 25 26 28 29 29 28 28 27 25
18 16 21 24 26 24 22 18 21 22 19 20 19 19 20 20 17 15 14 15 16 16 16 15 15 17 18 19 21 21 20 20 19 21 23 25 25 24 25 25 26 26 26 26 25 25 22 25 23 26 28 28 29 31
14 17 20 21 22 22 21 20 19 17 18 18 21 22 22 22 20 17 15 16 16 16 17 17 18 17 18 19 20 23 24 22 23 21 20 22 23 27 27 27 27 25 27 27 27 29 29 27 26 27 26 29 30 31
17 20 22 24 22 19 17 16 18 18 18 21 22 21 20 19 21 19 18 16 15 17 16 17 18 19 19 20 22 19 22 23 22 23 22 24 26 26 26 25 25 27 27 27 27 28 28 28 29 29 30 30 30 31
18 18 19 20 21 19 19 16 18 19 17 19 19 19 21 20 23 20 17 15 14 15 17 18 21 23 22 23 23 22 24 26 24 20 23 23 26 25 24 24 25 26 27 28 27 27 27 27 30 30 30 31 31 32

GFSWCAN_con_lsi_078.txt.gz
Lid_Strength_Index
3 3 3 3 2 2 3 2 2 2 3 3 3 3 3 3 3 4 5 3 6 9 8 7 6 8 9 9 12 9 10 10 11 14 13 14 15 12 13 11 13 15 16 16 15 18 19 8 8 11 9 8 7 7
2 2 2 2 2 2 2 2 2 2 1 1 1 2 2 2 2 2 6 3 3 7 8 5 5 5 6 6 8 8 9 9 9 11 13 12 14 13 13 15 10 14 12 14 13 14 8 7 8 6 6 7 6 6
2 2 2 2 2 2 1 1 1 1 1 2 1 1 1 1 1 2 4 4 4 7 7 7 7 5 3 4 4 9 8 6 7 7 9 10 13 10 14 13 11 10 9 12 11 9 8 7 7 6 6 6 6 5
2 2 2 2 1 1 2 1 1 1 1 1 1 1 1 1 1 1 4 2 4 7 10 8 3 5 3 3 3 4 5 4 5 6 9 11 13 8 12 10 11 9 9 11 11 9 8 7 7 7 6 5 5 5
2 2 2 1 2 1 1 1 1 1 1 1 0 1 1 1 1 2 3 2 2 5 9 9 4 3 3 2 3 4 4 6 7 9 10 11 9 10 10 10 11 8 10 12 12 8 8 8 7 6 6 6 5 5
2 2 1 1 2 1 1 1 1 1 1 1 1 1 1 1 1 4 6 3 1 1 7 11 6 5 3 3 4 5 5 5 6 8 10 8 7 9 12 13 8 7 7 6 8 6 6 6 6 6 6 6 6 6
1 1 1 1 2 1 1 1 1 1 1 1 1 1 0 0 2 5 7 5 2 1 7 10 9 6 4 4 5 5 5 6 6 8 9 9 9 8 11 13 8 7 7 6 6 6 8 6 7 7 7 7 8 9
2 1 1 1 1 1 1 1 1 1 1 1 1 0 1 1 1 4 2 1 1 4 5 10 10 8 5 8 8 5 7 8 8 9 9 9 9 9 12 9 8 6 6 7 6 6 6 7 7 8 8 9 12 13
2 2 2 1 1 1 1 1 1 1 1 1 1 1 2 3 5 4 1 1 1 4 10 13 13 13 6 8 8 8 8 10 9 13 10 9 10 13 9 8 8 7 7 7 6 7 7 8 8 9 10 12 14 15
3 3 2 2 1 1 1 1 1 0 0 1 2 5 8 5 1 1 4 7 6 7 8 13 11 11 8 10 11 10 12 13 12 11 8 13 13 8 7 8 8 9 9 6 8 9 9 10 11 12 13 13 15 16
3 3 3 2 2 1 1 1 1 1 1 4 6 9 3 1 3 6 10 10 9 11 9 10 10 11 9 11 12 11 10 10 14 13 12 12 13 9 9 9 9 9 11 10 8 8 9 11 13 15 16 16 16 16
3 3 3 2 2 2 1 1 1 2 5 5 5 3 4 6 8 11 13 11 12 12 11 11 9 10 10 9 13 12 11 11 15 10 12 14 12 10 11 12 11 11 12 12 12 12 13 14 15 16 16 17 17 17
3 3 3 2 2 2 2 2 1 1 2 3 6 8 9 10 15 17 17 13 13 11 9 10 11 10 9 8 11 11 12 13 9 13 14 14 13 13 12 13 13 13 13 14 15 15 15 16 16 16 17 16 17 17
3 3 3 3 3 3 3 2 2 2 5 8 12 16 16 16 14 14 13 11 11 10 11 12 11 10 10 11 11 13 11 11 14 15 17 15 14 14 13 14 15 15 15 15 16 16 16 17 17 16 16 16 17 18
3 3 3 3 3 3 3 3 3 5 8 12 12 17 15 14 14 14 13 12 12 11 10 12 10 9 11 11 11 12 13 17 17 19 16 15 14 14 14 15 15 16 16 16 17 17 17 17 17 17 17 17 17 18
3 4 4 3 3 3 3 4 6 6 9 13 15 16 15 15 16 15 15 15 12 12 11 10 10 11 12 14 15 17 17 20 19 16 15 15 15 15 16 16 16 16 17 17 17 16 16 17 18 19 18 19 19 19
4 7 4 3 3 3 4 7 9 12 13 14 17 15 17 16 17 16 16 15 13 13 12 11 16 16 13 17 18 17 19 17 16 16 15 15 16 16 16 16 16 16 17 17 17 17 17 17 18 19 20 19 19 19
6 5 3 3 3 5 7 9 12 13 16 16 17 16 17 18 17 17 17 15 15 13 13 16 15 19 22 20 21 17 17 17 16 16 16 16 16 16 16 17 16 17 17 17 17 17 17 18 19 20 19 19 20 20
5 5 3 3 4 8 11 11 11 16 16 16 16 16 16 17 17 16 16 16 14 14 15 17 21 22 22 19 20 18 17 17 18 18 17 16 17 17 17 17 18 18 18 18 18 19 19 18 18 18 19 19 21 21
4 5 5 4 4 10 11 12 10 14 16 15 15 17 18 19 18 19 17 17 17 18 22 23 22 21 20 20 18 17 16 16 17 19 19 18 17 17 18 18 18 18 19 19 19 19 20 21 20 20 20 21 22 23
7 7 5 6 8 8 10 11 13 13 12 14 14 14 17 16 19 19 20 18 21 22 22 20 20 20 19 18 17 17 18 17 18 18 19 20 18 18 19 19 19 19 20 21 21 22 22 22 22 21 22 22 23 23
9 7 9 8 11 10 11 10 12 11 13 14 14 15 18 20 23 21 19 21 22 21 20 20 19 19 20 21 20 19 19 19 19 19 19 19 20 21 21 21 21 22 21 21 21 22 22 22 22 22 23 24 24 24
9 10 13 12 15 14 15 10 13 13 15 15 15 17 18 19 18 17 22 20 20 19 19 20 20 19 20 19 19 20 19 20 21 21 21 21 21 21 21 21 20 21 22 22 21 21 22 22 22 23 24 24 25 27
11 15 17 18 15 18 17 17 14 16 17 18 18 20 19 20 18 22 24 22 21 20 20 20 20 21 21 22 22 21 21 20 21 21 20 21 22 21 21 21 20 20 21 21 22 23 23 24 24 24 25 26 27 28
18 19 19 21 18 17 20 22 21 20 23 21 21 20 17 17 23 24 25 23 22 22 22 22 22 22 23 23 22 22 21 21 22 22 21 21 22 22 22 22 21 20 20 22 24 24 25 25 25 26 26 27 27 30
21 19 20 20 19 20 19 22 21 23 22 22 22 18 22 26 28 26 23 22 21 20 21 21 22 22 22 21 22 22 22 20 21 23 23 20 20 21 22 23 23 23 21 22 23 24 25 26 26 26 28 28 29 30
23 24 18 15 16 17 22 22 20 24 26 25 23 27 27 30 28 23 19 19 19 19 18 18 19 20 21 21 20 20 20 20 20 21 20 21 21 21 22 23 24 23 21 22 24 24 25 27 28 29 32 35 35 32
20 20 25 24 23 21 28 27 27 27 26 20 23 29 30 29 26 21 20 18 18 17 17 17 17 18 18 19 19 19 19 19 19 20 20 20 21 22 23 23 22 21 24 25 26 27 27 27 28 32 33 32 32 36
22 21 22 28 26 25 22 27 26 23 21 22 29 28 25 20 22 21 18 17 17 17 18 18 18 18 19 20 20 20 20 19 20 24 24 25 26 24 25 23 23 25 28 26 22 26 26 28 29 30 31 29 29 30
23 21 26 30 29 27 25 24 24 26 21 22 20 20 20 21 18 15 15 16 18 19 17 17 17 19 21 22 23 21 20 21 22 22 25 26 25 24 26 27 27 27 30 31 30 28 22 27 25 30 31 32 33 34
19 23 25 26 26 24 23 27 23 22 25 26 28 27 25 22 19 17 17 17 17 17 17 18 19 19 20 22 24 24 23 22 23 22 21 24 27 29 30 29 30 31 32 31 32 33 32 31 30 30 32 33 34 34
25 29 27 28 24 23 20 21 23 25 27 27 26 28 24 24 24 21 18 18 17 17 18 19 20 21 21 22 22 22 22 24 24 25 26 26 29 30 29 29 31 31 30 31 32 32 32 33 34 34 34 34 34 35
25 26 29 26 25 24 23 20 23 22 23 24 24 24 25 23 25 21 19 17 19 18 19 22 21 23 24 25 26 28 28 29 28 22 25 26 27 26 30 31 32 32 30 31 31 32 31 31 33 33 34 34 35 36